[[{"header":{"parameterUnit":"m.s-1","parameterCategory":1,"la1":31.0,"la2":29.5877,"lo1":-88.7671,"lo2":-86.6584,"dy":0.0162,"dx":0.0185,"nx":115,"ny":88,"refTime":"2024-06-07T12:00:00:Z","depth":0,"parameterNumber":2,"parameterNumberName":"U-component_of_WINDS"},"data":[0.0,0.0,0.0,0.0,0.0,0.0,0.0,0.0,0.0,0.0,0.0,0.0,0.0,0.0,0.0,0.0,0.0,0.0,0.0,0.0,0.0,0.0,0.0,0.0,0.0,0.0,0.0,0.0,0.0,0.0,0.0,0.0,0.0,0.0,0.0,0.0,0.0,0.0,0.0,0.0,0.0,0.0,0.0,0.0,0.0,0.0,0.0,0.0,0.0,0.0,0.0,0.0,0.0,0.0,0.0,0.0,0.0,0.0,0.0,0.0,0.0,0.0,0.0,0.0,0.0,0.0,0.0,0.0,0.0,0.0,0.0,0.0,0.0,0.0,0.0,0.0,0.0,0.0,0.0,0.0,0.0,0.0,0.0,0.0,0.0,0.0,0.0,0.0,0.0,0.0,0.0,0.0,0.0,0.0,0.0,0.0,0.0,0.0,0.0,0.0,0.0,0.0,0.0,0.0,0.0,0.0,0.0,0.0,0.0,0.0,0.0,0.0,0.0,0.0,0.0,0.0,0.0,0.0,0.0,0.0,0.0,0.0,0.0,0.0,0.0,0.0,0.0,0.0,0.0,0.0,0.0,0.0,0.0,0.0,0.0,0.0,0.0,0.0,0.0,0.0,0.0,0.0,0.0,0.0,0.0,0.0,0.0,0.0,0.0,0.0,0.0,0.0,0.0,0.0,0.0,0.0,0.0,0.0,0.0,0.0,0.0,0.0,0.0,0.0,0.0,0.0,0.0,0.0,0.0,0.0,0.0,0.0,0.0,0.0,0.0,0.0,0.0,0.0,0.0,0.0,0.0,0.0,0.0,0.0,0.0,0.0,0.0,0.0,0.0,0.0,0.0,0.0,0.0,0.0,0.0,0.0,0.0,0.0,0.0,0.0,0.0,0.0,0.0,0.0,0.0,0.0,0.0,0.0,0.0,0.0,0.0,0.0,0.0,0.0,0.0,0.0,0.0,0.0,0.0,0.0,0.0,0.0,0.0,0.0,0.0,0.0,0.0,0.0,0.0,0.0,0.0,0.0,0.0,0.0,0.0,0.0,0.0,0.0,0.0,0.0,0.0,0.0,0.0,0.0,0.0,0.0,0.0,0.0,0.0,0.0,0.0,0.0,0.0,0.0,0.0,0.0,0.0,0.0,0.0,0.0,0.0,0.0,0.0,0.0,0.0,0.0,0.0,0.0,0.0,0.0,0.0,0.0,0.0,0.0,0.0,0.0,0.0,0.0,0.0,0.0,0.0,0.0,0.0,0.0,0.0,0.0,0.0,0.0,0.0,0.0,0.0,0.0,0.0,0.0,0.0,0.0,0.0,0.0,0.0,0.0,0.0,0.0,0.0,0.0,0.0,0.0,0.0,0.0,0.0,0.0,0.0,0.0,0.0,0.0,0.0,0.0,0.0,0.0,0.0,0.0,0.0,0.0,0.0,0.0,0.0,0.0,0.0,0.0,0.0,0.0,0.0,0.0,0.0,0.0,0.0,0.0,0.0,0.0,0.0,0.0,0.0,0.0,0.0,0.0,0.0,0.0,0.0,0.0,0.0,0.0,0.0,0.0,0.0,0.0,0.0,0.0,0.0,0.0,0.0,0.0,0.0,0.0,0.0,0.0,0.0,0.0,0.0,0.0,0.0,0.0,0.0,0.0,0.0,0.0,0.0,0.0,0.0,0.0,0.0,0.0,0.0,0.0,0.0,0.0,0.0,0.0,0.0,0.0,0.0,0.0,0.0,0.0,0.0,0.0,0.0,0.0,0.0,0.0,0.0,0.0,0.0,0.0,0.0,0.0,0.0,0.0,0.0,0.0,0.0,0.0,0.0,0.0,0.0,0.0,0.0,0.0,0.0,0.0,0.0,0.0,0.0,0.0,0.0,0.0,0.0,0.0,0.0,0.0,0.0,0.0,0.0,0.0,0.0,0.0,0.0,0.0,0.0,0.0,0.0,0.0,0.0,0.0,0.0,0.0,0.0,0.0,0.0,0.0,0.0,0.0,0.0,0.0,0.0,0.0,0.0,0.0,0.0,0.0,0.0,0.0,0.0,0.0,0.0,0.0,0.0,0.0,0.0,0.0,0.0,0.0,0.0,0.0,0.0,0.0,0.0,0.0,0.0,0.0,0.0,0.0,0.0,0.0,0.0,0.0,0.0,0.0,0.0,0.0,0.0,0.0,0.0,0.0,0.0,0.0,0.0,0.0,0.0,0.0,0.0,0.0,0.0,0.0,0.0,0.0,0.0,0.0,0.0,0.0,0.0,0.0,0.0,0.0,0.0,0.0,0.0,0.0,0.0,0.0,0.0,0.0,0.0,0.0,0.0,0.0,0.0,0.0,0.0,0.0,0.0,0.0,0.0,0.0,0.0,0.0,0.0,0.0,0.0,0.0,0.0,0.0,0.0,0.0,0.0,0.0,0.0,0.0,0.0,0.0,0.0,0.0,0.0,0.0,0.0,0.0,0.0,0.0,0.0,0.0,0.0,0.0,0.0,0.0,0.0,0.0,0.0,0.0,0.0,0.0,0.0,0.0,0.0,0.0,0.0,0.0,0.0,0.0,0.0,0.0,0.0,0.0,0.0,0.0,0.0,0.0,0.0,0.0,0.0,0.0,0.0,0.0,0.0,0.0,0.0,0.0,0.0,0.0,0.0,0.0,0.0,0.0,0.0,0.0,0.0,0.0,0.0,0.0,0.0,0.0,0.0,0.0,0.0,0.0,0.0,0.0,0.0,0.0,0.0,0.0,0.0,0.0,0.0,0.0,0.0,0.0,0.0,0.0,0.0,0.0,0.0,0.0,0.0,0.0,0.0,0.0,0.0,0.0,0.0,0.0,0.0,0.0,0.0,0.0,0.0,0.0,0.0,0.0,0.0,0.0,0.0,0.0,0.0,0.0,0.0,0.0,0.0,0.0,0.0,0.0,0.0,0.0,0.0,0.0,0.0,0.0,0.0,0.0,0.0,0.0,0.0,0.0,0.0,0.0,0.0,0.0,0.0,0.0,0.0,0.0,0.0,0.0,0.0,0.0,0.0,0.0,0.0,0.0,0.0,0.0,0.0,0.0,0.0,0.0,0.0,0.0,0.0,0.0,0.0,0.0,0.0,0.0,0.0,0.0,0.0,0.0,0.0,0.0,0.0,0.0,0.0,0.0,0.0,0.0,0.0,0.0,0.0,0.0,0.0,0.0,0.0,0.0,0.0,0.0,0.0,0.0,0.0,0.0,0.0,0.0,0.0,0.0,0.0,0.0,0.0,0.0,0.0,0.0,0.0,0.0,0.0,0.0,0.0,0.0,0.0,0.0,0.0,0.0,0.0,0.0,0.0,0.0,0.0,0.0,0.0,0.0,0.0,0.0,0.0,0.0,0.0,0.0,0.0,0.0,0.0,0.0,0.0,0.0,0.0,0.0,0.0,0.0,0.0,0.0,0.0,0.0,0.0,0.0,0.0,0.0,0.0,0.0,0.0,0.0,0.0,0.0,0.0,0.0,0.0,0.0,0.0,0.0,0.0,0.0,0.0,0.0,0.0,0.0,0.0,0.0,0.0,0.0,0.0,0.0,0.0,0.0,0.0,0.0,0.0,0.0,0.0,0.0,0.0,0.0,0.0,0.0,0.0,0.0,0.0,0.0,0.0,0.0,0.0,0.0,0.0,0.0,0.0,0.0,0.0,0.0,0.0,0.0,0.0,0.0,0.0,0.0,0.0,0.0,0.0,0.0,0.0,0.0,0.0,0.0,0.0,0.0,0.0,0.0,0.0,0.0,0.0,0.0,0.0,0.0,0.0,0.0,0.0,0.0,0.0,0.0,0.0,0.0,0.0,0.0,0.0,0.0,0.0,0.0,0.0,0.0,0.0,0.0,0.0,0.0,0.0,0.0,0.0,0.0,0.0,0.0,0.0,0.0,0.0,0.0,0.0,0.0,0.0,0.0,0.0,0.0,0.0,0.0,0.0,0.0,0.0,0.0,0.0,0.0,0.0,0.0,0.0,0.0,0.0,0.0,0.0,0.0,0.0,0.0,0.0,0.0,0.0,0.0,0.0,0.0,0.0,0.0,0.0,0.0,0.0,0.0,0.0,0.0,0.0,0.0,0.0,0.0,0.0,0.0,0.0,0.0,0.0,0.0,0.0,0.0,0.0,0.0,0.0,0.0,0.0,0.0,0.0,0.0,0.0,0.0,0.0,0.0,0.0,0.0,0.0,0.0,0.0,0.0,0.0,0.0,0.0,0.0,0.0,0.0,0.0,0.0,0.0,0.0,0.0,0.0,0.0,0.0,0.0,0.0,-2.1495,0.0,0.0,0.0,0.0,0.0,0.0,0.0,0.0,0.0,0.0,0.0,0.0,0.0,0.0,0.0,0.0,0.0,0.0,0.0,0.0,0.0,0.0,0.0,0.0,0.0,0.0,0.0,0.0,0.0,0.0,0.0,0.0,0.0,0.0,0.0,0.0,0.0,0.0,0.0,0.0,0.0,0.0,0.0,0.0,0.0,0.0,0.0,0.0,0.0,0.0,0.0,0.0,0.0,0.0,0.0,0.0,0.0,0.0,0.0,0.0,0.0,0.0,0.0,0.0,0.0,0.0,0.0,0.0,0.0,0.0,0.0,0.0,0.0,0.0,0.0,0.0,0.0,0.0,0.0,0.0,0.0,0.0,0.0,0.0,0.0,0.0,0.0,0.0,0.0,0.0,0.0,0.0,0.0,0.0,0.0,0.0,0.0,0.0,0.0,0.0,0.0,0.0,0.0,0.0,0.0,0.0,0.0,0.0,0.0,0.0,-2.4918,-2.4825,-2.3587,-2.289,-2.2781,0.0,0.0,0.0,0.0,0.0,0.0,0.0,0.0,0.0,0.0,0.0,0.0,0.0,0.0,0.0,0.0,0.0,0.0,0.0,0.0,0.0,0.0,0.0,0.0,0.0,0.0,0.0,0.0,0.0,0.0,0.0,0.0,0.0,0.0,0.0,0.0,0.0,0.0,0.0,0.0,0.0,0.0,0.0,0.0,0.0,0.0,0.0,0.0,0.0,0.0,0.0,0.0,0.0,0.0,0.0,0.0,0.0,0.0,0.0,0.0,0.0,0.0,0.0,0.0,0.0,0.0,0.0,0.0,0.0,0.0,0.0,0.0,0.0,0.0,0.0,0.0,0.0,0.0,0.0,0.0,0.0,0.0,0.0,0.0,0.0,0.0,0.0,0.0,0.0,0.0,0.0,0.0,0.0,0.0,0.0,0.0,0.0,0.0,0.0,0.0,0.0,0.0,0.0,0.0,0.0,0.0,0.0,0.0,0.0,0.0,0.0,0.0,-2.4471,-2.3784,-2.3301,0.0,0.0,0.0,0.0,0.0,0.0,0.0,0.0,0.0,0.0,0.0,0.0,0.0,0.0,0.0,0.0,0.0,0.0,0.0,0.0,0.0,0.0,0.0,0.0,0.0,0.0,0.0,0.0,0.0,0.0,0.0,0.0,0.0,0.0,0.0,0.0,0.0,0.0,0.0,0.0,0.0,0.0,0.0,0.0,0.0,0.0,0.0,0.0,0.0,0.0,0.0,0.0,0.0,0.0,0.0,0.0,0.0,0.0,0.0,0.0,0.0,0.0,0.0,0.0,0.0,0.0,0.0,0.0,0.0,0.0,0.0,0.0,0.0,0.0,0.0,0.0,0.0,0.0,0.0,0.0,0.0,0.0,0.0,0.0,0.0,0.0,0.0,0.0,0.0,0.0,0.0,0.0,0.0,0.0,0.0,0.0,0.0,0.0,0.0,0.0,0.0,0.0,0.0,0.0,0.0,0.0,0.0,0.0,0.0,0.0,-2.5373,-2.5313,-2.4485,0.0,-2.1742,0.0,0.0,0.0,0.0,0.0,0.0,0.0,0.0,0.0,0.0,0.0,0.0,0.0,0.0,0.0,0.0,0.0,0.0,0.0,0.0,0.0,0.0,0.0,0.0,0.0,0.0,0.0,0.0,0.0,0.0,0.0,0.0,0.0,0.0,0.0,0.0,0.0,0.0,0.0,0.0,0.0,0.0,0.0,0.0,0.0,0.0,0.0,0.0,0.0,0.0,0.0,0.0,0.0,0.0,0.0,0.0,0.0,0.0,0.0,0.0,0.0,0.0,0.0,0.0,0.0,0.0,0.0,0.0,0.0,0.0,0.0,0.0,0.0,0.0,0.0,0.0,0.0,0.0,0.0,0.0,0.0,0.0,0.0,0.0,0.0,0.0,0.0,0.0,0.0,0.0,0.0,0.0,0.0,0.0,0.0,0.0,0.0,0.0,0.0,0.0,0.0,0.0,0.0,0.0,0.0,0.0,0.0,0.0,0.0,0.0,-2.6083,-2.6006,-2.5631,-2.4386,0.0,0.0,0.0,0.0,0.0,0.0,0.0,0.0,0.0,0.0,0.0,0.0,0.0,0.0,0.0,0.0,0.0,0.0,0.0,0.0,0.0,0.0,0.0,0.0,0.0,0.0,0.0,0.0,0.0,0.0,0.0,0.0,0.0,0.0,0.0,0.0,0.0,0.0,0.0,0.0,0.0,0.0,0.0,0.0,0.0,0.0,0.0,0.0,0.0,0.0,0.0,0.0,0.0,0.0,0.0,0.0,0.0,0.0,0.0,0.0,0.0,0.0,0.0,0.0,0.0,0.0,0.0,0.0,0.0,0.0,0.0,0.0,0.0,0.0,0.0,0.0,0.0,0.0,0.0,0.0,0.0,0.0,0.0,0.0,0.0,0.0,0.0,0.0,0.0,0.0,0.0,0.0,0.0,0.0,0.0,0.0,0.0,0.0,0.0,0.0,0.0,0.0,0.0,0.0,0.0,0.0,0.0,0.0,0.0,0.0,-2.5307,-2.6526,-2.6487,-2.6427,-2.5205,-2.2696,0.0,0.0,0.0,0.0,0.0,0.0,0.0,0.0,0.0,0.0,0.0,0.0,0.0,0.0,0.0,0.0,0.0,0.0,0.0,0.0,0.0,0.0,0.0,0.0,0.0,0.0,0.0,0.0,0.0,0.0,0.0,0.0,0.0,0.0,0.0,0.0,0.0,0.0,0.0,0.0,0.0,0.0,0.0,0.0,0.0,0.0,0.0,0.0,0.0,0.0,0.0,0.0,0.0,0.0,0.0,0.0,0.0,0.0,0.0,0.0,0.0,0.0,0.0,0.0,0.0,0.0,0.0,0.0,0.0,0.0,0.0,0.0,0.0,0.0,0.0,0.0,0.0,0.0,0.0,0.0,0.0,0.0,0.0,0.0,0.0,0.0,0.0,0.0,0.0,0.0,0.0,0.0,0.0,0.0,0.0,0.0,0.0,0.0,0.0,0.0,0.0,0.0,0.0,0.0,0.0,0.0,0.0,0.0,0.0,-2.5248,-2.6487,-2.6427,-2.6408,-2.5199,0.0,0.0,0.0,0.0,0.0,0.0,0.0,0.0,0.0,0.0,0.0,0.0,0.0,0.0,0.0,0.0,0.0,0.0,0.0,0.0,0.0,0.0,0.0,0.0,0.0,0.0,0.0,0.0,0.0,0.0,0.0,0.0,0.0,0.0,0.0,0.0,0.0,0.0,0.0,0.0,0.0,0.0,0.0,0.0,0.0,0.0,0.0,0.0,0.0,0.0,0.0,0.0,0.0,0.0,0.0,0.0,0.0,0.0,0.0,0.0,0.0,0.0,0.0,0.0,0.0,0.0,0.0,0.0,0.0,0.0,0.0,0.0,0.0,0.0,0.0,0.0,0.0,0.0,0.0,0.0,0.0,0.0,0.0,0.0,0.0,0.0,0.0,0.0,0.0,0.0,0.0,0.0,0.0,0.0,0.0,0.0,0.0,0.0,0.0,0.0,0.0,0.0,0.0,0.0,0.0,0.0,0.0,0.0,0.0,-2.2932,-2.5721,-2.7261,-2.7249,-2.7243,-2.5772,0.0,0.0,0.0,0.0,0.0,0.0,0.0,0.0,0.0,0.0,0.0,0.0,0.0,0.0,0.0,0.0,0.0,0.0,0.0,0.0,0.0,0.0,0.0,0.0,0.0,0.0,0.0,0.0,0.0,0.0,0.0,0.0,0.0,0.0,0.0,0.0,0.0,0.0,0.0,0.0,0.0,0.0,0.0,0.0,0.0,0.0,0.0,0.0,0.0,0.0,0.0,0.0,0.0,0.0,0.0,0.0,0.0,0.0,0.0,0.0,0.0,0.0,0.0,0.0,0.0,0.0,0.0,0.0,0.0,0.0,0.0,0.0,0.0,0.0,0.0,0.0,0.0,0.0,0.0,0.0,0.0,0.0,0.0,0.0,0.0,0.0,0.0,0.0,0.0,0.0,0.0,0.0,0.0,0.0,0.0,0.0,0.0,0.0,0.0,0.0,0.0,0.0,0.0,0.0,0.0,0.0,0.0,0.0,0.0,-2.4456,0.0,-2.8077,0.0,-2.7848,-2.623,0.0,0.0,0.0,0.0,0.0,0.0,0.0,0.0,0.0,0.0,0.0,0.0,0.0,0.0,0.0,0.0,0.0,0.0,0.0,0.0,0.0,0.0,0.0,0.0,0.0,0.0,0.0,0.0,0.0,0.0,0.0,0.0,0.0,0.0,0.0,0.0,0.0,0.0,0.0,0.0,0.0,0.0,0.0,0.0,0.0,0.0,0.0,0.0,0.0,0.0,0.0,0.0,0.0,0.0,0.0,0.0,0.0,0.0,0.0,0.0,0.0,0.0,0.0,0.0,0.0,0.0,0.0,0.0,0.0,0.0,0.0,0.0,0.0,0.0,0.0,0.0,0.0,0.0,0.0,0.0,0.0,0.0,0.0,0.0,0.0,0.0,0.0,0.0,0.0,0.0,0.0,0.0,0.0,0.0,0.0,0.0,0.0,0.0,0.0,0.0,0.0,0.0,0.0,0.0,0.0,0.0,0.0,0.0,-2.5346,-2.7691,-2.8517,-2.8956,-2.8911,-2.8172,-2.653,0.0,0.0,0.0,0.0,0.0,0.0,0.0,0.0,0.0,0.0,0.0,0.0,0.0,0.0,0.0,0.0,0.0,0.0,0.0,0.0,0.0,0.0,0.0,0.0,0.0,0.0,0.0,0.0,0.0,0.0,0.0,0.0,0.0,0.0,0.0,0.0,0.0,0.0,0.0,0.0,0.0,0.0,0.0,0.0,0.0,0.0,0.0,0.0,0.0,0.0,0.0,0.0,0.0,0.0,0.0,0.0,0.0,0.0,0.0,0.0,0.0,0.0,0.0,0.0,0.0,0.0,0.0,0.0,0.0,0.0,0.0,0.0,0.0,0.0,0.0,0.0,0.0,0.0,0.0,0.0,0.0,0.0,0.0,0.0,0.0,0.0,0.0,0.0,0.0,0.0,0.0,0.0,0.0,0.0,0.0,0.0,0.0,0.0,0.0,0.0,0.0,0.0,0.0,0.0,0.0,0.0,0.0,0.0,0.0,-2.9487,-3.0258,-3.0357,-2.9803,-2.8975,-2.7351,0.0,0.0,0.0,0.0,0.0,0.0,0.0,0.0,0.0,0.0,0.0,0.0,0.0,0.0,0.0,0.0,0.0,0.0,0.0,0.0,0.0,0.0,0.0,0.0,0.0,0.0,0.0,0.0,0.0,0.0,0.0,0.0,0.0,0.0,0.0,0.0,0.0,0.0,0.0,0.0,0.0,0.0,0.0,0.0,0.0,0.0,0.0,0.0,0.0,0.0,0.0,0.0,0.0,0.0,0.0,0.0,0.0,0.0,0.0,0.0,0.0,0.0,0.0,0.0,0.0,0.0,0.0,0.0,0.0,0.0,0.0,0.0,0.0,0.0,0.0,0.0,0.0,0.0,0.0,0.0,0.0,0.0,0.0,0.0,0.0,0.0,0.0,0.0,0.0,0.0,0.0,0.0,0.0,0.0,0.0,0.0,0.0,0.0,0.0,0.0,0.0,0.0,0.0,0.0,0.0,0.0,0.0,0.0,0.0,-3.2527,-3.245,-3.2134,-3.1618,-3.0491,-2.8695,-2.6236,0.0,0.0,0.0,0.0,0.0,0.0,0.0,0.0,0.0,0.0,0.0,0.0,0.0,0.0,0.0,0.0,0.0,0.0,0.0,0.0,0.0,0.0,0.0,0.0,0.0,0.0,0.0,0.0,0.0,0.0,0.0,0.0,0.0,0.0,0.0,0.0,0.0,0.0,0.0,0.0,0.0,0.0,0.0,0.0,0.0,0.0,0.0,0.0,0.0,0.0,0.0,0.0,0.0,0.0,0.0,0.0,0.0,0.0,0.0,0.0,0.0,0.0,0.0,0.0,0.0,0.0,0.0,0.0,0.0,0.0,0.0,0.0,0.0,0.0,0.0,0.0,0.0,0.0,0.0,0.0,0.0,0.0,0.0,0.0,0.0,0.0,0.0,0.0,0.0,0.0,0.0,0.0,0.0,0.0,0.0,0.0,0.0,0.0,0.0,0.0,0.0,0.0,0.0,0.0,0.0,0.0,0.0,0.0,-3.652,-3.5111,-3.4339,-3.4186,-3.2477,-3.0369,0.0,0.0,0.0,0.0,0.0,0.0,0.0,0.0,0.0,0.0,0.0,0.0,0.0,0.0,0.0,0.0,0.0,0.0,0.0,0.0,0.0,0.0,0.0,0.0,0.0,0.0,0.0,0.0,0.0,0.0,0.0,0.0,0.0,0.0,0.0,0.0,0.0,0.0,0.0,0.0,0.0,0.0,0.0,0.0,0.0,0.0,0.0,0.0,0.0,0.0,0.0,0.0,0.0,0.0,0.0,0.0,0.0,0.0,0.0,0.0,0.0,0.0,0.0,0.0,0.0,0.0,0.0,0.0,0.0,0.0,0.0,0.0,0.0,0.0,0.0,0.0,0.0,0.0,0.0,0.0,0.0,0.0,0.0,0.0,0.0,0.0,0.0,0.0,0.0,0.0,0.0,0.0,0.0,0.0,0.0,0.0,0.0,0.0,0.0,0.0,0.0,0.0,0.0,0.0,0.0,0.0,0.0,0.0,0.0,-3.7305,-3.8246,-3.8037,-3.6719,-3.391,-3.1496,0.0,0.0,0.0,0.0,0.0,0.0,0.0,0.0,0.0,0.0,0.0,0.0,0.0,0.0,0.0,0.0,0.0,0.0,0.0,0.0,0.0,0.0,0.0,0.0,0.0,0.0,0.0,0.0,0.0,0.0,0.0,0.0,0.0,0.0,0.0,0.0,0.0,0.0,0.0,0.0,0.0,0.0,0.0,0.0,0.0,0.0,0.0,0.0,0.0,0.0,0.0,0.0,0.0,0.0,0.0,0.0,0.0,0.0,0.0,0.0,0.0,0.0,0.0,0.0,0.0,0.0,0.0,0.0,0.0,0.0,0.0,0.0,0.0,0.0,0.0,0.0,0.0,0.0,0.0,0.0,0.0,0.0,0.0,0.0,0.0,0.0,0.0,0.0,0.0,0.0,0.0,0.0,0.0,0.0,0.0,0.0,0.0,0.0,0.0,0.0,0.0,0.0,0.0,0.0,0.0,0.0,0.0,0.0,-3.5632,-3.9268,-4.0664,-4.0883,-3.9871,-3.6585,-3.3692,0.0,0.0,0.0,0.0,0.0,0.0,0.0,0.0,0.0,0.0,0.0,0.0,0.0,0.0,0.0,0.0,0.0,0.0,0.0,0.0,0.0,0.0,0.0,0.0,0.0,0.0,0.0,0.0,0.0,0.0,0.0,0.0,0.0,0.0,0.0,0.0,0.0,0.0,0.0,0.0,0.0,0.0,0.0,0.0,0.0,0.0,0.0,0.0,0.0,0.0,0.0,0.0,0.0,0.0,0.0,0.0,0.0,0.0,0.0,0.0,0.0,0.0,0.0,0.0,0.0,0.0,0.0,0.0,0.0,0.0,0.0,0.0,0.0,0.0,0.0,0.0,0.0,0.0,0.0,0.0,0.0,0.0,0.0,0.0,0.0,0.0,0.0,0.0,0.0,0.0,0.0,0.0,0.0,0.0,0.0,0.0,0.0,0.0,0.0,0.0,0.0,0.0,0.0,0.0,0.0,0.0,0.0,0.0,-3.749,-4.1409,-4.2431,-4.2928,-4.2832,-3.9527,-3.6165,0.0,0.0,0.0,0.0,0.0,0.0,0.0,0.0,0.0,0.0,0.0,0.0,0.0,0.0,0.0,0.0,0.0,0.0,0.0,0.0,0.0,0.0,0.0,0.0,0.0,0.0,0.0,0.0,0.0,0.0,0.0,0.0,0.0,0.0,0.0,0.0,0.0,0.0,0.0,0.0,0.0,0.0,0.0,0.0,0.0,0.0,0.0,0.0,0.0,0.0,0.0,0.0,0.0,0.0,0.0,0.0,0.0,0.0,0.0,0.0,0.0,0.0,0.0,0.0,0.0,0.0,0.0,0.0,0.0,0.0,0.0,0.0,0.0,0.0,0.0,0.0,0.0,0.0,0.0,0.0,0.0,0.0,0.0,0.0,0.0,0.0,0.0,0.0,0.0,0.0,0.0,0.0,0.0,0.0,0.0,0.0,0.0,0.0,0.0,0.0,0.0,0.0,0.0,0.0,0.0,0.0,0.0,0.0,-3.8581,-4.1418,-4.2966,-4.3739,-4.372,-3.9833,-3.6451,0.0,0.0,0.0,0.0,0.0,0.0,0.0,0.0,0.0,0.0,0.0,0.0,0.0,0.0,0.0,0.0,0.0,0.0,0.0,0.0,0.0,0.0,0.0,0.0,0.0,0.0,0.0,0.0,0.0,0.0,0.0,0.0,0.0,0.0,0.0,0.0,0.0,0.0,0.0,0.0,0.0,0.0,0.0,0.0,0.0,0.0,0.0,0.0,-2.4806,0.0,0.0,0.0,0.0,0.0,0.0,0.0,0.0,0.0,0.0,0.0,0.0,0.0,0.0,0.0,0.0,0.0,0.0,0.0,0.0,0.0,0.0,0.0,0.0,0.0,0.0,0.0,0.0,0.0,0.0,0.0,0.0,0.0,0.0,0.0,0.0,0.0,0.0,0.0,0.0,0.0,0.0,0.0,0.0,0.0,0.0,0.0,0.0,0.0,0.0,0.0,0.0,0.0,0.0,0.0,0.0,0.0,0.0,0.0,-3.9546,-4.2049,-4.3749,-4.4407,-4.3892,-4.0692,-3.775,0.0,0.0,0.0,0.0,0.0,0.0,0.0,0.0,0.0,0.0,0.0,0.0,0.0,0.0,0.0,0.0,0.0,0.0,0.0,0.0,0.0,0.0,0.0,0.0,0.0,0.0,0.0,0.0,0.0,0.0,0.0,0.0,0.0,0.0,0.0,0.0,0.0,0.0,0.0,0.0,0.0,0.0,0.0,0.0,0.0,0.0,0.0,0.0,0.0,0.0,0.0,0.0,0.0,0.0,0.0,0.0,0.0,0.0,0.0,0.0,0.0,0.0,0.0,0.0,0.0,0.0,0.0,0.0,0.0,0.0,0.0,0.0,0.0,0.0,0.0,0.0,0.0,0.0,0.0,0.0,0.0,0.0,0.0,0.0,0.0,0.0,0.0,0.0,0.0,0.0,0.0,0.0,0.0,0.0,0.0,0.0,0.0,0.0,0.0,0.0,0.0,0.0,0.0,0.0,0.0,0.0,0.0,-3.7063,-4.0368,-4.2737,-4.4437,-4.4895,-4.4006,-4.1695,-3.9212,-3.6576,0.0,0.0,0.0,0.0,0.0,0.0,0.0,0.0,0.0,0.0,0.0,0.0,0.0,0.0,0.0,0.0,0.0,0.0,0.0,0.0,0.0,0.0,0.0,0.0,0.0,0.0,0.0,0.0,0.0,0.0,0.0,0.0,0.0,0.0,0.0,0.0,0.0,0.0,-2.544,-2.6389,0.0,0.0,0.0,0.0,0.0,0.0,0.0,0.0,-2.7456,0.0,0.0,0.0,0.0,0.0,0.0,0.0,0.0,0.0,0.0,0.0,0.0,0.0,0.0,0.0,0.0,0.0,0.0,0.0,0.0,0.0,0.0,0.0,0.0,0.0,0.0,0.0,0.0,0.0,0.0,0.0,0.0,0.0,0.0,0.0,0.0,0.0,0.0,0.0,0.0,0.0,0.0,0.0,0.0,0.0,0.0,0.0,0.0,0.0,0.0,0.0,0.0,0.0,0.0,0.0,0.0,-3.3777,-3.7941,-4.096,-4.2775,-4.4447,-4.4895,-4.3987,-4.224,-3.9794,-3.6557,0.0,0.0,0.0,0.0,0.0,0.0,0.0,0.0,0.0,0.0,0.0,0.0,0.0,0.0,0.0,0.0,0.0,0.0,0.0,0.0,0.0,0.0,0.0,0.0,0.0,0.0,0.0,0.0,0.0,0.0,0.0,0.0,0.0,0.0,0.0,0.0,0.0,0.0,0.0,-2.8618,-2.902,0.0,0.0,0.0,0.0,0.0,0.0,0.0,0.0,-3.0394,0.0,0.0,0.0,0.0,0.0,0.0,0.0,0.0,0.0,0.0,0.0,0.0,0.0,0.0,0.0,0.0,0.0,0.0,0.0,0.0,0.0,0.0,0.0,0.0,0.0,0.0,0.0,0.0,0.0,0.0,0.0,0.0,0.0,0.0,0.0,0.0,0.0,0.0,0.0,0.0,0.0,0.0,0.0,0.0,0.0,0.0,0.0,0.0,0.0,0.0,0.0,0.0,0.0,0.0,0.0,-3.4052,-3.8171,-4.1103,-4.2775,-4.4437,-4.4895,-4.3987,-4.1963,-3.9298,0.0,0.0,0.0,0.0,0.0,0.0,0.0,0.0,0.0,0.0,0.0,0.0,0.0,0.0,0.0,0.0,0.0,0.0,0.0,0.0,0.0,0.0,0.0,0.0,0.0,0.0,0.0,0.0,0.0,0.0,0.0,0.0,0.0,0.0,0.0,0.0,0.0,0.0,0.0,0.0,-2.9784,-3.0686,-3.0302,0.0,0.0,0.0,0.0,0.0,0.0,-3.1538,-3.1831,0.0,0.0,0.0,0.0,0.0,0.0,0.0,0.0,0.0,0.0,0.0,0.0,0.0,0.0,0.0,0.0,0.0,0.0,0.0,0.0,0.0,0.0,0.0,0.0,0.0,0.0,0.0,0.0,0.0,0.0,0.0,0.0,0.0,0.0,0.0,0.0,0.0,0.0,0.0,0.0,0.0,0.0,0.0,0.0,0.0,0.0,0.0,0.0,0.0,0.0,0.0,0.0,0.0,0.0,0.0,-3.4281,-3.8247,-4.1113,-4.2775,-4.4437,-4.48,-4.3758,-4.1504,-3.8629,0.0,0.0,0.0,0.0,0.0,0.0,0.0,0.0,0.0,0.0,0.0,0.0,0.0,0.0,0.0,0.0,0.0,0.0,0.0,0.0,0.0,0.0,0.0,0.0,0.0,0.0,0.0,0.0,0.0,0.0,0.0,0.0,0.0,0.0,0.0,0.0,0.0,0.0,0.0,0.0,0.0,-3.2134,-3.277,-3.3061,0.0,0.0,0.0,0.0,-3.342,-3.3475,0.0,0.0,0.0,0.0,0.0,0.0,0.0,0.0,0.0,0.0,0.0,0.0,0.0,0.0,0.0,0.0,0.0,0.0,0.0,0.0,0.0,0.0,0.0,0.0,0.0,0.0,0.0,0.0,0.0,0.0,0.0,0.0,0.0,0.0,0.0,0.0,0.0,0.0,0.0,0.0,0.0,0.0,0.0,0.0,0.0,0.0,0.0,0.0,0.0,0.0,0.0,0.0,0.0,0.0,0.0,0.0,-3.5037,-3.8534,-4.1113,-4.2775,-4.4437,-4.4532,-4.2966,-4.1227,-3.8362,0.0,0.0,0.0,0.0,0.0,0.0,0.0,0.0,0.0,0.0,0.0,0.0,0.0,0.0,0.0,0.0,0.0,0.0,0.0,0.0,0.0,0.0,0.0,0.0,0.0,0.0,0.0,0.0,0.0,0.0,0.0,0.0,0.0,0.0,0.0,0.0,0.0,0.0,0.0,0.0,0.0,-3.3647,-3.3753,-3.486,-3.5376,0.0,0.0,-3.5206,-3.504,-3.5569,0.0,0.0,0.0,0.0,0.0,0.0,0.0,0.0,0.0,0.0,0.0,0.0,0.0,0.0,0.0,0.0,0.0,0.0,0.0,0.0,0.0,0.0,0.0,0.0,0.0,0.0,0.0,0.0,0.0,0.0,0.0,0.0,0.0,0.0,0.0,0.0,0.0,0.0,0.0,0.0,0.0,0.0,0.0,0.0,0.0,0.0,0.0,0.0,0.0,0.0,0.0,0.0,0.0,0.0,0.0,-3.1857,-3.5152,-3.8075,-4.0616,-4.2717,-4.3501,-4.3539,-4.2813,-4.0692,-3.7578,0.0,0.0,0.0,0.0,0.0,0.0,0.0,0.0,0.0,0.0,0.0,0.0,0.0,0.0,0.0,0.0,0.0,0.0,0.0,0.0,0.0,0.0,0.0,0.0,0.0,0.0,0.0,0.0,0.0,0.0,0.0,0.0,0.0,0.0,0.0,0.0,0.0,0.0,0.0,0.0,0.0,0.0,-3.5012,-3.602,0.0,0.0,0.0,-3.7501,-3.7355,0.0,0.0,0.0,0.0,0.0,0.0,0.0,0.0,0.0,0.0,0.0,0.0,0.0,0.0,0.0,0.0,0.0,0.0,0.0,0.0,0.0,0.0,0.0,0.0,0.0,0.0,0.0,0.0,0.0,0.0,0.0,0.0,0.0,0.0,0.0,0.0,0.0,0.0,0.0,0.0,0.0,0.0,0.0,0.0,0.0,0.0,0.0,0.0,0.0,0.0,0.0,0.0,0.0,0.0,0.0,0.0,0.0,-3.5207,-3.7721,-4.0119,-4.2374,-4.2698,-4.2698,-4.245,-4.0215,0.0,0.0,0.0,0.0,0.0,0.0,0.0,0.0,0.0,0.0,0.0,0.0,0.0,0.0,0.0,0.0,0.0,0.0,0.0,0.0,0.0,0.0,0.0,0.0,0.0,0.0,0.0,-1.5531,0.0,0.0,0.0,0.0,0.0,0.0,0.0,0.0,0.0,0.0,0.0,0.0,0.0,0.0,-3.5182,-3.6785,-3.7713,-3.8215,0.0,0.0,-3.9608,-3.9486,-3.9245,-3.8508,0.0,0.0,0.0,0.0,0.0,0.0,0.0,0.0,0.0,0.0,0.0,0.0,0.0,0.0,0.0,0.0,0.0,0.0,0.0,0.0,0.0,0.0,0.0,0.0,0.0,0.0,0.0,0.0,0.0,0.0,0.0,0.0,0.0,0.0,0.0,0.0,0.0,0.0,0.0,0.0,0.0,0.0,0.0,0.0,0.0,0.0,0.0,0.0,0.0,0.0,0.0,0.0,0.0,0.0,0.0,-3.5246,-3.7729,-3.9833,-4.1533,-4.2374,-4.2412,-4.16,-3.9909,-3.7406,0.0,0.0,0.0,0.0,0.0,0.0,0.0,0.0,0.0,0.0,0.0,0.0,0.0,0.0,0.0,0.0,0.0,0.0,0.0,0.0,0.0,0.0,0.0,0.0,0.0,0.0,0.0,0.0,0.0,0.0,0.0,0.0,0.0,0.0,0.0,0.0,0.0,0.0,0.0,0.0,0.0,-3.7632,-3.9236,-4.0562,-4.1371,0.0,0.0,-4.1072,-4.1038,-4.0368,-3.9273,-3.7694,0.0,0.0,0.0,0.0,0.0,0.0,0.0,0.0,0.0,0.0,0.0,0.0,0.0,0.0,0.0,0.0,0.0,0.0,0.0,0.0,0.0,0.0,0.0,0.0,0.0,0.0,0.0,0.0,0.0,0.0,0.0,0.0,0.0,0.0,0.0,0.0,0.0,0.0,0.0,0.0,0.0,0.0,0.0,0.0,0.0,0.0,0.0,0.0,0.0,0.0,0.0,0.0,0.0,-3.1955,-3.5254,-3.7222,-3.926,-4.139,-4.1342,-4.1342,-4.1504,-3.9355,-3.6871,0.0,0.0,0.0,0.0,0.0,0.0,0.0,0.0,0.0,0.0,0.0,0.0,0.0,0.0,0.0,0.0,0.0,0.0,0.0,0.0,0.0,0.0,0.0,0.0,0.0,0.0,0.0,0.0,-2.1259,-2.2399,-2.3681,0.0,0.0,0.0,0.0,0.0,0.0,0.0,0.0,0.0,0.0,-3.759,-3.9176,-4.0593,0.0,0.0,-4.1741,-4.1942,-4.1961,-4.1215,-4.0249,-3.9163,-3.7202,0.0,0.0,0.0,0.0,0.0,0.0,0.0,0.0,0.0,0.0,0.0,0.0,0.0,0.0,0.0,0.0,0.0,0.0,0.0,0.0,0.0,0.0,0.0,0.0,0.0,0.0,0.0,0.0,0.0,0.0,0.0,0.0,0.0,0.0,0.0,0.0,0.0,0.0,0.0,0.0,0.0,0.0,0.0,0.0,0.0,0.0,0.0,0.0,0.0,0.0,0.0,0.0,-3.1962,-3.5262,-3.6878,-3.8801,-4.1094,-4.0587,-4.0559,-4.1036,-3.8916,-3.6757,0.0,0.0,0.0,0.0,0.0,0.0,0.0,0.0,0.0,0.0,0.0,0.0,0.0,0.0,0.0,0.0,0.0,0.0,0.0,0.0,0.0,0.0,0.0,0.0,0.0,0.0,0.0,0.0,-2.2588,-2.3599,-2.4718,0.0,0.0,0.0,0.0,0.0,0.0,0.0,0.0,0.0,0.0,-3.8465,-4.0039,-4.1285,-4.2047,-4.2002,-4.24,-4.2737,-4.272,-4.2026,-4.1168,-4.0377,0.0,0.0,0.0,0.0,0.0,0.0,0.0,0.0,0.0,0.0,0.0,0.0,0.0,0.0,0.0,0.0,0.0,0.0,0.0,0.0,0.0,0.0,0.0,0.0,0.0,0.0,0.0,0.0,0.0,0.0,-2.2031,0.0,0.0,0.0,0.0,0.0,0.0,0.0,0.0,0.0,0.0,0.0,0.0,0.0,0.0,0.0,0.0,0.0,0.0,0.0,0.0,0.0,0.0,-3.2026,-3.5247,-3.6886,-3.8553,-4.0291,-4.032,-4.032,-4.032,-3.8629,-3.7292,-3.6385,0.0,0.0,0.0,0.0,0.0,0.0,0.0,0.0,0.0,0.0,0.0,0.0,0.0,0.0,0.0,0.0,0.0,0.0,0.0,0.0,0.0,0.0,0.0,0.0,0.0,0.0,-2.2634,-2.4004,-2.491,0.0,0.0,0.0,0.0,0.0,0.0,0.0,0.0,0.0,0.0,-3.8782,-4.0861,-4.2375,-4.3144,-4.347,-4.3507,-4.3475,-4.346,-4.3441,-4.2782,-4.2011,0.0,0.0,0.0,0.0,0.0,0.0,0.0,0.0,0.0,0.0,0.0,0.0,0.0,0.0,0.0,0.0,0.0,0.0,0.0,0.0,0.0,0.0,0.0,0.0,0.0,0.0,0.0,-2.8335,-2.7046,0.0,0.0,0.0,0.0,0.0,0.0,0.0,0.0,0.0,0.0,0.0,-3.4153,-3.4111,0.0,0.0,0.0,0.0,0.0,0.0,0.0,0.0,0.0,0.0,0.0,0.0,-3.2026,-3.5197,-3.6867,-3.8553,-4.0244,-4.032,-4.032,-4.0282,-3.9155,-3.7387,-3.4904,0.0,0.0,0.0,0.0,0.0,0.0,0.0,0.0,0.0,0.0,0.0,0.0,0.0,0.0,0.0,0.0,0.0,0.0,0.0,0.0,0.0,0.0,0.0,0.0,0.0,-2.4532,0.0,0.0,0.0,0.0,0.0,0.0,0.0,0.0,0.0,0.0,0.0,-3.5051,-3.7129,-3.9445,-4.1314,-4.2352,-4.3102,-4.3531,0.0,0.0,0.0,0.0,0.0,0.0,0.0,0.0,0.0,0.0,0.0,0.0,0.0,0.0,-3.5909,-3.3498,-3.3057,-3.3038,-3.3057,0.0,0.0,0.0,0.0,0.0,0.0,0.0,0.0,0.0,0.0,0.0,0.0,0.0,0.0,-3.1867,0.0,-3.0206,0.0,0.0,0.0,0.0,0.0,0.0,0.0,0.0,-3.4907,-3.5894,-3.7219,-3.7474,-3.6705,0.0,-3.4978,-3.2951,0.0,0.0,0.0,0.0,0.0,0.0,0.0,0.0,-3.275,-3.5676,-3.7326,-3.8858,-4.0225,-4.032,-4.032,-4.0301,-3.947,-3.754,-3.4511,-3.2026,-2.9619,0.0,0.0,0.0,0.0,0.0,0.0,0.0,0.0,0.0,0.0,0.0,0.0,0.0,0.0,0.0,0.0,0.0,0.0,0.0,0.0,0.0,0.0,0.0,-2.6262,0.0,0.0,0.0,0.0,0.0,0.0,0.0,0.0,0.0,-3.2262,-3.4587,-3.6901,-3.8707,-4.0464,-4.1908,-4.2682,0.0,0.0,0.0,0.0,0.0,0.0,0.0,-4.3531,-4.3255,-4.3015,-4.2607,-4.1813,-4.1022,-4.073,-4.1519,0.0,0.0,-3.7312,-3.6692,-3.671,-3.6692,-3.6692,-3.6967,-3.7808,-3.8193,-3.8524,0.0,0.0,0.0,0.0,0.0,0.0,0.0,0.0,-3.5731,-3.5591,0.0,-3.3853,0.0,0.0,0.0,0.0,0.0,-3.2794,0.0,0.0,-3.7845,-3.9051,-3.9851,-4.0652,-4.0128,-3.8485,-3.8399,-3.7467,-3.5546,-3.165,0.0,0.0,0.0,0.0,0.0,0.0,-3.415,-3.6538,-3.8148,-3.9412,-4.0263,-4.032,-4.032,-4.0301,-3.9451,-3.7846,-3.542,-3.4426,-3.2447,-2.9141,-2.7364,0.0,0.0,0.0,0.0,0.0,0.0,0.0,0.0,0.0,0.0,0.0,0.0,0.0,0.0,0.0,0.0,0.0,0.0,0.0,0.0,-2.6765,0.0,0.0,0.0,0.0,0.0,0.0,0.0,0.0,0.0,0.0,-3.5621,-3.6997,-3.8732,-4.0912,0.0,0.0,0.0,0.0,-4.3828,-4.4635,-4.4728,-4.4728,-4.4745,-4.5496,-4.5788,-4.5033,0.0,0.0,-4.5114,-4.4356,-4.4079,-4.4892,-4.4984,-4.4028,-4.0793,-4.0134,-4.0079,-4.006,-4.0079,-4.0338,-4.1093,-4.1791,-4.2304,-4.0331,0.0,0.0,0.0,0.0,-3.6758,-3.7575,-3.8367,-3.8615,-3.8241,-3.7441,-3.6562,0.0,0.0,0.0,0.0,0.0,0.0,-3.8039,-3.9669,-4.0779,-4.1703,-4.2473,-4.274,-4.2253,-4.1167,-4.1143,-4.0546,-3.9291,-3.6924,-3.4357,-3.1613,0.0,0.0,0.0,0.0,-3.4671,-3.6487,-3.8159,-3.9412,-4.0282,-4.032,-4.032,-4.0301,-3.9461,-3.8362,-3.7024,-3.5611,-3.3586,-3.0873,-2.9108,0.0,0.0,0.0,0.0,0.0,0.0,0.0,0.0,0.0,0.0,0.0,0.0,0.0,0.0,0.0,0.0,0.0,0.0,0.0,-2.758,-2.7752,-2.8179,0.0,0.0,0.0,0.0,0.0,0.0,0.0,0.0,0.0,-4.0421,-4.0583,-4.0878,0.0,0.0,-4.3528,-4.425,-4.436,-4.4654,-4.5443,-4.5553,0.0,0.0,-4.5917,-4.6044,-4.5857,-4.604,-4.6112,-4.589,-4.5686,-4.5779,-4.6573,-4.6721,-4.6352,-4.5488,-4.4289,-4.3588,-4.3533,-4.352,-4.3729,-4.4483,-4.4798,-4.4856,-4.4758,-4.1896,-3.9725,-3.8995,-3.9373,-3.9882,-4.0581,-4.1336,-4.1346,-4.1049,-4.0563,-3.9702,-3.8726,-3.7731,-3.74,0.0,0.0,0.0,-4.0636,-4.1665,-4.2857,-4.3687,-4.4155,-4.4509,-4.4203,-4.3358,-4.333,-4.2848,-4.1892,-4.0505,-3.875,-3.6563,0.0,0.0,-3.3736,-3.4978,-3.6247,-3.7529,-3.8828,-3.9766,-4.0282,-4.032,-4.032,-4.0282,-3.947,-3.8591,-3.7712,-3.6432,-3.4721,-3.2584,-3.0856,-2.8811,0.0,0.0,0.0,0.0,0.0,0.0,0.0,0.0,0.0,0.0,0.0,-1.8956,-2.0919,0.0,0.0,0.0,-2.5682,-2.7937,-2.9777,-3.0102,0.0,0.0,0.0,0.0,0.0,0.0,0.0,-3.8411,-3.9727,-4.1337,-4.3741,-4.3914,-4.3811,-4.3898,-4.4295,-4.4741,-4.5112,0.0,-4.5461,-4.6269,-4.6416,-4.647,-4.6561,-4.6928,-4.7201,-4.727,-4.7269,-4.7269,-4.7288,-4.7269,-4.7454,-4.7862,-4.801,-4.801,-4.7991,-4.7177,-4.6382,-4.6036,-4.5912,-4.6154,-4.6911,-4.6967,-4.693,-4.8413,-4.7338,-4.3377,-4.2161,-4.2792,-4.2734,-4.3239,-4.4073,-4.3965,-4.3901,-4.3842,-4.3001,-4.2552,-4.2454,-4.1674,0.0,-4.019,-4.1849,-4.2591,-4.2669,-4.4327,-4.5104,-4.5152,-4.5915,-4.5845,-4.5,-4.5007,-4.4546,-4.3687,-4.2787,-4.2308,-4.2216,-3.8251,-3.6484,-3.7025,-3.7663,-3.8372,-3.9092,-3.9868,-4.031,-4.032,-4.032,-4.0263,-4.0167,-3.9431,-3.8572,-3.7644,-3.6891,-3.5684,-3.3979,-3.2429,-3.0464,-2.804,0.0,0.0,0.0,0.0,0.0,0.0,0.0,0.0,0.0,0.0,0.0,0.0,0.0,0.0,0.0,-2.8912,0.0,-3.1721,-3.3249,0.0,0.0,0.0,-3.5844,-3.6705,-3.7414,-3.8736,-4.1143,0.0,0.0,-4.5906,-4.6751,-4.7038,-4.6525,-4.6261,-4.6101,-4.603,-4.603,-4.6305,-4.7113,-4.7335,-4.7408,-4.7444,-4.8124,-4.8655,-4.8707,-4.889,-4.8799,-4.878,-4.878,-4.8872,-4.8817,-4.889,-4.8854,-4.889,-4.8761,-4.8597,-4.7642,-4.7496,-4.7701,-4.8255,-4.8384,-4.831,-4.9551,-4.9271,-4.765,-4.6719,-4.6327,-4.5664,-4.6247,-4.7524,-4.6272,-4.5682,-4.5617,-4.4758,-4.4016,-4.3372,-4.3159,-4.2964,-4.2825,-4.3899,-4.4387,-4.4444,-4.548,-4.5987,-4.6003,-4.62,-4.6177,-4.5978,-4.5963,-4.583,-4.5517,-4.4665,-4.4207,-4.4066,-4.2446,-4.0676,-3.8852,-3.8905,-3.9031,-3.9169,-3.9921,-4.0309,-4.032,-4.032,-3.9957,-3.9336,-3.9126,-3.8303,-3.6845,-3.6597,-3.5446,-3.3224,-3.2706,-3.1347,-2.8916,-2.7163,0.0,0.0,0.0,0.0,0.0,0.0,0.0,0.0,0.0,-2.3231,-2.4478,0.0,-2.7657,0.0,-3.0617,-3.2722,-3.4251,-3.5342,0.0,0.0,-3.7753,-3.8784,-4.0119,-4.0978,-4.2115,-4.3866,-4.5052,-4.6307,-4.7793,-4.8107,-4.8376,-4.8614,-4.7385,-4.6547,-4.6945,-4.7056,-4.7333,-4.8034,-4.8237,-4.8328,-4.8401,-4.8655,-4.8892,-4.889,-4.889,-4.889,-4.889,-4.889,-4.889,-4.889,-4.889,-4.889,-4.889,-4.889,-4.8836,-4.8597,-4.8489,-4.851,-4.8715,-4.8642,-4.855,-5.0461,-5.0486,-5.0056,-4.963,-4.9161,-4.7926,-4.7969,-4.8804,-4.7865,-4.7253,-4.6834,-4.638,-4.589,-4.546,-4.5812,-4.5968,-4.6007,-4.6475,-4.669,-4.669,-4.6827,-4.6885,-4.6866,-4.6475,-4.6302,-4.63,-4.629,-4.6282,-4.6216,-4.5721,-4.5449,-4.54,-4.4553,-4.3339,-4.184,-4.1313,-4.1059,-4.0981,-4.0924,-4.0753,-4.0355,-4.0346,-3.9906,-3.9073,-3.8682,-3.7895,-3.6588,-3.5822,-3.4802,-3.3458,-3.2671,-3.1476,-2.9765,-2.8401,-2.7119,0.0,0.0,0.0,0.0,0.0,0.0,0.0,0.0,0.0,0.0,0.0,-3.1491,-3.2278,-3.3976,-3.5557,-3.6864,-3.8137,-3.921,-4.004,-4.0912,-4.2045,-4.3647,-4.4191,-4.5065,-4.6641,-4.7285,-4.8067,-4.9231,-4.9359,-4.939,-4.9674,-4.8687,-4.7932,-4.8024,-4.8048,-4.8161,-4.8531,-4.866,-4.8732,-4.884,-4.8874,-4.889,-4.889,-4.889,-4.889,-4.889,-4.889,-4.889,-4.889,-4.889,-4.889,-4.889,-4.889,-4.889,-4.8891,-4.8892,-4.884,-4.8804,-4.8732,-4.866,-5.1122,-5.1176,-5.1186,-5.1215,-5.119,-4.9724,-4.9157,-4.9219,-4.9101,-4.8628,-4.7913,-4.7808,-4.7764,-4.7801,-4.8388,-4.8642,-4.8642,-4.8525,-4.8486,-4.8447,-4.7764,-4.7489,-4.7567,-4.6729,-4.6358,-4.6456,-4.637,-4.6306,-4.6306,-4.6245,-4.6212,-4.6176,-4.5439,-4.5046,-4.4966,-4.4112,-4.3522,-4.3194,-4.2218,-4.1355,-4.0605,-4.0462,-3.9925,-3.8986,-3.8257,-3.7452,-3.6454,-3.5035,-3.4213,-3.4075,-3.273,-3.1546,-3.075,-2.989,-2.88,0.0,-2.7135,0.0,0.0,0.0,0.0,0.0,0.0,0.0,0.0,-3.2978,-3.5231,-3.6936,-3.7877,-3.8725,-3.952,-4.117,-4.2455,-4.3184,-4.4105,-4.5275,-4.6685,-4.6895,-4.7496,-4.895,-4.922,-4.9603,-5.0248,-5.0314,-5.0175,-5.0038,-4.98,-4.9405,-4.9108,-4.8889,-4.8784,-4.8696,-4.875,-4.8821,-4.8874,-4.889,-4.889,-4.889,-4.889,-4.889,-4.889,-4.889,-4.889,-4.889,-4.889,-4.889,-4.889,-4.889,-4.889,-4.889,-4.889,-4.8874,-4.884,-4.8822,-4.8768,-5.1063,-5.1126,-5.1117,-5.1166,-5.1204,-5.0926,-5.0852,-5.0874,-5.0175,-4.9782,-4.9594,-4.8947,-4.863,-4.8525,-4.8055,-4.782,-4.7801,-4.7081,-4.6768,-4.6749,-4.6612,-4.6924,-4.7508,-4.671,-4.6671,-4.7274,-4.6649,-4.6298,-4.6298,-4.6294,-4.6292,-4.6273,-4.6115,-4.605,-4.6014,0.0,0.0,0.0,-4.2331,-4.1763,-4.1511,-4.0857,-3.9746,-3.8209,-3.7978,0.0,-3.5705,-3.5321,-3.4843,-3.4212,-3.3865,0.0,0.0,0.0,0.0,0.0,0.0,0.0,0.0,0.0,0.0,0.0,-3.4023,-3.4251,-3.2586,-3.5289,-3.7857,-3.9514,-4.0462,-4.1332,-4.2192,-4.3785,-4.487,-4.5117,-4.6443,-4.7482,-4.7838,-4.8384,-4.892,-4.9139,-4.9841,-5.034,-5.0432,-5.0448,-5.0401,-5.0255,-5.007,-4.9871,-4.964,-4.9324,-4.9098,-4.9015,-4.8909,-4.8891,-4.889,-4.889,-4.889,-4.889,-4.889,-4.889,-4.889,-4.889,-4.889,-4.889,-4.889,-4.889,-4.889,-4.889,-4.889,-4.889,-4.889,-4.8891,-4.8891,-4.8874,-4.8875,-5.0993,0.0,-5.1043,-5.1088,0.0,-5.123,-5.1261,-5.1255,-5.09,-5.0488,-5.007,-4.9673,-4.9471,-4.9442,-4.9462,-4.9481,-4.9442,-4.8584,-4.8174,-4.8135,-4.7315,-4.7176,-4.7586,-4.669,-4.6534,-4.6944,-4.6963,-4.671,-4.6339,-4.6749,-4.671,-4.6302,-4.6302,-4.6296,-4.6303,-4.6228,-4.5449,-4.3961,-4.3499,-4.2826,-4.1923,-4.1473,-4.0403,-3.8669,0.0,0.0,0.0,0.0,0.0,0.0,0.0,0.0,0.0,0.0,0.0,-3.2929,-3.2923,-3.3096,-3.35,-3.4295,-3.4962,-3.5429,-3.737,-3.7993,-3.6654,-3.855,-4.0304,-4.1552,-4.248,-4.3323,-4.4233,-4.5435,-4.652,-4.7375,-4.8221,-4.8885,-4.9346,-4.974,-4.998,-4.9989,-5.0364,-5.0633,-5.0613,-5.0582,-5.053,-5.0404,-5.0255,-5.0076,-4.9898,-4.9551,-4.9279,-4.9116,-4.8979,-4.889,-4.889,-4.889,-4.889,-4.889,-4.889,-4.889,-4.889,-4.889,-4.889,-4.889,-4.889,-4.889,-4.889,-4.889,-4.889,-4.889,-4.889,-4.889,-4.889,-4.889,-4.8891,-5.0941,-5.0978,-5.0998,-5.1015,-5.1082,-5.115,-5.1201,-5.123,0.0,0.0,0.0,-5.0324,-5.0333,-5.0362,-5.0926,-5.118,-5.1102,-5.028,-4.9811,-4.9597,-4.823,-4.7606,-4.7547,-4.671,-4.6378,-4.6554,-4.71,-4.7002,-4.6339,-4.7178,-4.7159,-4.6378,-4.6456,-4.6452,-4.6308,-4.6245,-4.5809,-4.5001,-4.4821,-4.3986,-4.2531,-4.2183,-4.1248,-3.9602,-3.9403,-3.8919,-3.8022,-3.6706,-3.5949,-3.5904,-3.4558,-3.3795,-3.3814,-3.4487,-3.4879,-3.4898,-3.5545,-3.6238,-3.6873,-3.7084,-3.7623,-3.8584,-4.0219,-4.1022,-4.0679,-4.1577,-4.2458,-4.3178,-4.4145,-4.5047,-4.5759,-4.6759,-4.7894,-4.926,-4.9529,-4.9913,-5.0567,-5.0683,-5.0644,-5.0683,-5.0683,-5.0683,-5.0683,-5.0643,-5.0593,-5.0521,-5.0404,-5.0255,-4.9999,-4.9636,-4.9305,-4.9148,-4.903,-4.8926,-4.8909,-4.889,-4.889,-4.889,-4.889,-4.889,-4.889,-4.889,-4.889,-4.889,-4.889,-4.889,-4.889,-4.889,-4.889,-4.889,-4.889,-4.889,-4.889,-4.889,-4.889,-5.0906,-5.0906,-5.0914,-5.0937,-5.1027,-5.1082,-5.1185,-5.1287,-5.1357,-5.1316,-5.123,-5.1229,-5.1223,-5.1172,-5.0559,-5.028,-5.0221,-4.9384,-4.8623,0.0,-4.7703,-4.7606,-4.7547,-4.671,-4.669,-4.7334,-4.6788,-4.6417,-4.6397,-4.7176,-4.7159,-4.6495,-4.7042,-4.704,-4.6357,-4.6306,-4.6192,-4.5975,-4.5188,-4.4637,-4.4325,-4.2928,-4.1673,-4.0616,-3.9869,-3.9052,-3.811,-3.7852,-3.7704,-3.7642,-3.7411,-3.7276,-3.7276,-3.7353,-3.7469,-3.7469,-3.7584,-3.7719,-3.7834,-3.8507,-3.9604,-4.1162,-4.2797,-4.3154,-4.178,-4.303,-4.3981,-4.4154,-4.5538,-4.6586,-4.6817,-4.8086,-4.9067,-4.9413,-5.0067,-5.0577,-5.0683,-5.0683,-5.0683,-5.0683,-5.0683,-5.0683,-5.0683,-5.0702,-5.0653,-5.0593,-5.05,-5.0359,-5.0038,-4.965,-4.9368,-4.923,-4.9116,-4.9013,-4.896,-4.8909,-4.8907,-4.889,-4.8909,-4.8909,-4.889,-4.889,-4.889,-4.889,-4.889,-4.889,-4.889,-4.889,-4.889,-4.889,-4.889,-4.889,-4.889,-4.889,-4.889,-5.0898,-5.0898,-5.0898,-5.0914,-5.0944,-5.1076,-5.1166,-5.1296,-5.1361,-5.1384,-5.1386,-5.1387,-5.1402,-5.137,-5.0995,-5.0814,-5.0768,-4.9889,-4.9323,-4.8894,-4.8035,-4.7606,-4.7528,-4.671,-4.6515,-4.6885,-4.7002,-4.6768,-4.6436,-4.7178,-4.7393,-4.7061,-4.7412,-4.7157,-4.6358,-4.6296,-4.6288,-4.6238,-4.5787,-4.5301,-4.4744,-4.3539,-4.2451,-4.154,-4.0659,-4.0011,-3.9521,-3.9017,-3.8731,-3.871,-3.8245,-3.8007,-3.8007,-3.845,-3.87,-3.87,-3.9111,-3.9565,-4.0027,-4.0873,-4.1873,-4.3066,-4.3835,-4.4201,-4.3912,-4.4575,-4.4998,-4.5056,-4.6182,-4.7077,-4.7509,-4.8663,-4.9586,-5.0067,-5.0481,-5.0693,-5.0683,-5.0683,-5.0683,-5.0683,-5.0683,-5.0683,-5.0683,-5.0683,-5.0702,-5.0643,-5.0563,-5.0404,-5.0207,-4.9959,-4.9665,-4.9483,-4.9343,-4.9228,-4.9146,-4.911,-4.9061,-4.9032,-4.9015,-4.8979,-4.8926,-4.889,-4.889,-4.889,-4.889,-4.889,-4.889,-4.889,-4.889,-4.889,-4.889,-4.889,-4.889,-4.889,-4.889,-5.0898,-5.0898,-5.0898,-5.0914,-5.0937,-5.105,-5.1171,-5.13,-5.1359,-5.1392,-5.1384,-5.1386,-5.1386,-5.1395,-5.1391,-5.1385,-5.1301,-5.0711,-5.028,-4.9967,-4.8757,-4.7957,-4.7567,-4.6905,-4.6495,-4.6397,-4.7002,-4.6963,-4.6456,-4.7178,-4.7606,-4.7586,-4.7411,-4.6963,-4.6321,-4.6302,-4.6296,-4.6288,-4.625,-4.5845,-4.513,-4.4269,-4.3352,-4.2451,-4.1579,-4.098,-4.0707,-4.0003,-3.9615,-3.9555,-3.8948,-3.858,-3.8618,-3.9207,-3.9573,-3.9631,-4.0342,-4.1162,-4.2047,-4.2893,-4.3624,-4.4239,-4.447,-4.4883,-4.5479,-4.5594,-4.5691,-4.5932,-4.6682,-4.7509,-4.8336,-4.9202,-4.9971,-5.0616,-5.0683,-5.0683,-5.0683,-5.0683,-5.0683,-5.0683,-5.0683,-5.0683,-5.0683,-5.0683,-5.0683,-5.0673,-5.0603,-5.0478,-5.0359,-5.0243,-5.0057,-4.983,-4.9615,-4.9449,-4.9355,-4.9324,-4.926,-4.9166,-4.9116,-4.9064,-4.8978,-4.8926,-4.889,-4.889,-4.889,-4.889,-4.889,-4.889,-4.889,-4.889,-4.889,-4.889,-4.889,-4.889,-4.889,-5.0898,-5.0898,-5.0898,-5.0983,-5.1067,-5.1088,-5.1171,-5.1281,-5.1379,-5.1386,-5.1398,-5.1384,-5.1387,-5.1384,-5.1395,-5.139,-5.1389,-5.132,-5.0848,-5.0182,-4.9948,-4.9089,-4.7762,-4.7528,-4.7061,-4.6456,-4.6515,-4.6612,-4.6515,-4.7237,-4.7606,-4.7508,-4.6827,-4.6417,-4.6302,-4.6302,-4.63,-4.63,-4.6298,-4.6204,-4.6024,-4.5225,-4.4341,-4.34,-4.2523,-4.1665,-4.0878,-4.0642,-4.052,-4.0472,-4.0379,-4.0349,-4.0323,-4.0377,-4.0381,-4.0419,-4.1219,-4.2066,-4.2931,-4.3739,-4.4239,-4.4335,-4.5037,-4.546,-4.5594,-4.5614,-4.5932,-4.6682,-4.7509,-4.8279,-4.9202,-5.0029,-5.0539,-5.0635,-5.0683,-5.0683,-5.0683,-5.0683,-5.0683,-5.0683,-5.0683,-5.0683,-5.0683,-5.0683,-5.0683,-5.0683,-5.0643,-5.0553,-5.0489,-5.0424,-5.0344,-5.0182,-4.992,-4.9644,-4.9476,-4.9399,-4.9399,-4.9308,-4.9228,-4.9164,-4.9081,-4.8979,-4.889,-4.8909,-4.889,-4.889,-4.889,-4.889,-4.889,-4.889,-4.889,-4.889,-4.889,-4.889,-4.889,-5.0898,-5.0898,-5.0898,-5.0956,-5.1034,-5.1069,-5.1159,-5.1243,-5.13,-5.1372,-5.1385,-5.1398,-5.1386,-5.1385,-5.1402,-5.1398,-5.1395,-5.1387,-5.1228,-5.0816,-5.0362,-4.9714,-4.9089,-4.8525,-4.8115,-4.7803,-4.7783,-4.7783,-4.7842,-4.8154,-4.7822,-4.6963,-4.6963,-4.6827,-4.6341,-4.6302,-4.6302,-4.6302,-4.6302,-4.6275,-4.6165,-4.5416,-4.4755,-4.4247,-4.2988,-4.2112,-4.167,-4.1108,-4.075,-4.072,-4.0687,-4.0651,-4.0607,-4.1054,-4.1328,-4.1354,-4.2527,-4.3431,-4.3797,-4.4586,-4.5075,-4.5056,-4.5393,-4.5594,-4.5633,-4.6067,-4.6721,-4.749,-4.7913,-4.8452,-4.9336,-5.0192,-5.0683,-5.0683,-5.0683,-5.0683,-5.0683,-5.0683,-5.0683,-5.0683,-5.0683,-5.0683,-5.0683,-5.0683,-5.0683,-5.0683,-5.0663,-5.0633,-5.0582,-5.0551,-5.0468,-5.0359,-5.0207,-5.0057,-4.9866,-4.9783,-4.9698,-4.957,-4.9418,-4.9292,-4.9181,-4.9083,-4.9015,-4.8945,-4.8909,-4.8909,-4.889,-4.889,-4.889,-4.889,-4.889,-4.889,-4.889,-4.889,-4.889,-5.1273,-5.1207,-5.1014,-5.0948,-5.1012,-5.1056,-5.1119,-5.1201,-5.1253,-5.133,-5.139,-5.1389,-5.1402,-5.1387,-5.1386,-5.1384,-5.14,-5.1395,-5.1393,-5.1313,-5.0718,-5.0344,-5.0051,-4.9462,-4.9032,-4.8818,-4.8759,-4.8779,-4.8779,-4.8545,-4.7822,-4.6885,-4.7061,-4.6944,-4.6397,-4.6515,-4.6515,-4.6339,-4.6515,-4.6554,-4.6261,-4.5689,-4.5228,-4.4852,-4.3698,-4.2912,-4.2634,-4.1917,-4.1537,-4.1557,-4.1448,-4.1383,-4.1379,-4.1901,-4.2306,-4.2547,-4.3605,-4.4412,-4.4624,-4.5248,-4.5594,-4.5594,-4.5594,-4.5701,-4.6009,-4.6547,-4.7346,-4.8336,-4.8471,-4.8836,-4.9663,-5.0327,-5.0673,-5.0683,-5.0683,-5.0683,-5.0683,-5.0683,-5.0683,-5.0683,-5.0683,-5.0683,-5.0683,-5.0683,-5.0683,-5.0683,-5.0683,-5.0683,-5.0653,-5.0623,-5.0593,-5.0489,-5.0478,-5.0371,-5.0207,-5.0082,-4.9978,-4.9816,-4.9644,-4.948,-4.9324,-4.9249,-4.915,-4.9096,-4.9012,-4.8962,-4.8962,-4.8943,-4.8853,-4.889,-4.8834,-4.8797,-4.889,-4.889,-4.889,-5.2152,-5.1989,-5.1227,-5.0941,-5.0986,-5.1009,-5.1082,-5.1194,-5.1195,-5.128,-5.1374,-5.139,-5.1387,-5.14,-5.1387,-5.1385,-5.1385,-5.14,-5.1398,-5.1397,-5.1315,-5.0881,-5.0137,-5.0032,-4.9638,-4.9075,-4.9054,-4.8954,-4.8818,-4.8133,-4.7625,-4.7508,-4.6846,-4.6397,-4.6397,-4.7022,-4.712,-4.6534,-4.7042,-4.712,-4.6436,-4.6261,-4.5787,-4.5113,-4.4829,-4.4301,-4.3647,-4.3432,-4.3333,-4.334,-4.3144,-4.3098,-4.3131,-4.3084,-4.3384,-4.4055,-4.4267,-4.469,-4.5364,-4.5556,-4.5633,-4.5652,-4.571,-4.5979,-4.674,-4.7028,-4.7759,-4.9163,-4.9298,-4.9702,-5.0375,-5.0606,-5.0683,-5.0683,-5.0683,-5.0683,-5.0683,-5.0683,-5.0683,-5.0683,-5.0683,-5.0683,-5.0683,-5.0683,-5.0683,-5.0683,-5.0683,-5.0683,-5.0683,-5.0683,-5.0692,-5.0682,-5.0643,-5.0584,-5.0329,-5.0236,-5.0158,-5.0018,-4.9871,-4.9736,-4.9589,-4.9434,-4.9355,-4.926,-4.9164,-4.91,-4.9066,-4.8959,-4.8815,-4.8704,-4.8556,-4.8556,-4.8537,-4.8797,-4.8853,-5.1854,-5.1351,-5.1033,-5.0906,-5.0948,-5.0966,-5.1042,-5.1088,-5.1169,-5.121,-5.1285,-5.1364,-5.139,-5.1398,-5.1383,-5.1386,-5.1387,-5.1385,-5.1384,-5.1402,-5.1398,-5.1219,-5.0965,-5.0924,-5.0806,-5.0513,-5.0469,-5.0172,-4.9638,-4.9343,-4.8621,-4.7684,-4.7293,-4.6866,-4.6456,-4.6612,-4.6846,-4.7081,-4.6963,-4.6885,-4.7022,-4.6593,-4.6142,-4.5828,-4.5252,-4.4833,-4.4512,-4.3919,-4.3571,-4.3568,-4.3476,-4.3386,-4.3356,-4.3745,-4.4349,-4.5087,-4.5214,-4.5312,-4.5565,-4.5594,-4.5864,-4.6374,-4.6432,-4.6759,-4.7567,-4.8182,-4.8779,-4.9356,-4.9962,-5.0404,-5.0577,-5.0683,-5.0683,-5.0683,-5.0683,-5.0683,-5.0683,-5.0683,-5.0683,-5.0683,-5.0683,-5.0683,-5.0683,-5.0683,-5.0683,-5.0683,-5.0683,-5.0683,-5.0683,-5.0683,-5.0683,-5.0683,-5.0683,-5.0663,-5.0603,-5.0448,-5.0329,-5.0219,-5.0082,-4.9912,-4.9759,-4.9659,-4.957,-4.9446,-4.9324,-4.9155,-4.9083,-4.8576,-4.8472,-4.8108,-4.7978,-4.7941,-4.8017,-4.811,-4.8389,-5.1854,-5.1331,-5.0995,-5.0898,-5.0906,-5.0948,-5.0986,-5.1009,-5.1094,-5.1147,-5.1181,-5.1289,-5.1346,-5.1366,-5.1385,-5.1398,-5.14,-5.1386,-5.1386,-5.1386,-5.1402,-5.1401,-5.14,-5.1399,-5.1398,-5.1379,-5.1395,-5.1076,-5.0521,-5.0246,-4.9503,-4.8484,-4.8152,-4.7569,-4.6885,-4.6963,-4.7237,-4.7178,-4.71,-4.7198,-4.7178,-4.6885,-4.6554,-4.6261,-4.5728,-4.5414,-4.5412,-4.4809,-4.4454,-4.4446,-4.4363,-4.4268,-4.4226,-4.4646,-4.5174,-4.5653,-4.5722,-4.5698,-4.5648,-4.5631,-4.6007,-4.6797,-4.6923,-4.7308,-4.8394,-4.9067,-4.9471,-4.9856,-5.0279,-5.0683,-5.0683,-5.0683,-5.0683,-5.0683,-5.0683,-5.0683,-5.0683,-5.0683,-5.0683,-5.0683,-5.0683,-5.0683,-5.0683,-5.0683,-5.0683,-5.0683,-5.0683,-5.0683,-5.0683,-5.0683,-5.0683,-5.0683,-5.0683,-5.0683,-5.0653,-5.0573,-5.05,-5.0371,-5.0278,-5.012,-4.9978,-4.9885,-4.9774,-4.964,-4.9465,-4.9265,-4.8877,-4.8333,-4.7847,-4.7432,-4.7213,-4.7155,-4.7233,-4.7311,-4.7553,-5.221,-5.1978,-5.1293,-5.0956,-5.0917,-5.0906,-5.0929,-5.0993,-5.1009,-5.1043,-5.1105,-5.1171,-5.1248,-5.1308,-5.1386,-5.1388,-5.1403,-5.1384,-5.1387,-5.1387,-5.1386,-5.1385,-5.1385,-5.1402,-5.1399,-5.1399,-5.1398,-5.1376,-5.1253,-5.0588,-5.0095,-4.9874,-4.9132,-4.8411,-4.7608,-4.8119,-4.7844,-4.7141,-4.7785,-4.7766,-4.6651,-4.7063,-4.7063,-4.6477,-4.6321,-4.6302,-4.6302,-4.6193,-4.6043,-4.6028,-4.5985,-4.6002,-4.5739,-4.5776,-4.5829,-4.5798,-4.5807,-4.577,-4.5717,-4.5759,-4.6187,-4.6922,-4.7,-4.7817,-4.9125,-4.949,-4.9817,-5.0404,-5.0616,-5.0683,-5.0683,-5.0683,-5.0683,-5.0683,-5.0683,-5.0683,-5.0683,-5.0683,-5.0683,-5.0683,-5.0683,-5.0683,-5.0683,-5.0693,-5.0702,-5.0702,-5.0702,-5.0712,-5.0712,-5.0712,-5.0693,-5.0693,-5.0693,-5.0683,-5.0683,-5.0683,-5.0613,-5.054,-5.0446,-5.0325,-5.0219,-5.0133,-5.007,-4.9946,-4.9797,-4.9556,-4.8623,-4.8062,-4.7373,-4.6959,-4.6706,-4.6366,-4.6466,-4.6545,-4.664,-5.2395,-5.1409,-5.1679,-5.1447,-5.0937,-5.0898,-5.0914,-5.0948,-5.0986,-5.1022,-5.1037,-5.1142,-5.1215,-5.1258,-5.1343,-5.1399,-5.1388,-5.1399,-5.1386,-5.1386,-5.1387,-5.1387,-5.1387,-5.1387,-5.1385,-5.1384,-5.1384,-5.1401,-5.1339,-5.1123,-5.073,-5.0143,-4.9849,-4.9284,-4.8503,-4.819,-4.7858,-4.8052,-4.7385,-4.7053,-4.7096,-4.6857,-4.6838,-4.7175,-4.7196,-4.7176,-4.7155,-4.6617,-4.6312,-4.6279,-4.6201,-4.6118,-4.6054,-4.6042,-4.5991,-4.5892,-4.5874,-4.5807,-4.5804,-4.6257,-4.6851,-4.7634,-4.824,-4.9106,-5.0087,-5.0289,-5.0385,-5.0673,-5.0683,-5.0683,-5.0683,-5.0683,-5.0693,-5.0693,-5.0683,-5.0693,-5.0702,-5.0693,-5.0683,-5.0683,-5.0683,-5.0683,-5.0693,-5.0693,-5.0702,-5.0702,-5.073,-5.0767,-5.0767,-5.072,-5.0702,-5.0692,-5.0693,-5.0702,-5.0712,-5.0712,-5.0683,-5.0614,-5.0553,-5.05,-5.0424,-5.0337,-5.029,-5.0149,-5.0031,-4.9443,-4.8541,-4.772,-4.7007,-4.6181,-4.5619,-4.5547,-4.5696,-4.5794,-4.5869,-5.2569,-5.1912,-5.2105,-5.1892,-5.1351,-5.1053,-5.0898,-5.0906,-5.0948,-5.0963,-5.0986,-5.1076,-5.1132,-5.1147,-5.1261,-5.1314,-5.1333,-5.138,-5.1396,-5.14,-5.1386,-5.1387,-5.1387,-5.1387,-5.1387,-5.1386,-5.1386,-5.1385,-5.1402,-5.1381,-5.1107,-5.0676,-5.0578,-5.0168,-4.9387,-4.8821,-4.8742,-4.8742,-4.786,-4.7391,-4.7452,-4.7079,-4.6884,-4.7083,-4.7103,-4.7122,-4.7063,-4.6569,-4.6287,-4.6302,-4.6253,-4.6194,-4.6157,-4.6141,-4.6068,-4.5988,-4.5982,-4.6038,-4.6259,-4.673,-4.7529,-4.8493,-4.9169,-4.9815,-5.0519,-5.073,-5.075,-5.073,-5.073,-5.073,-5.073,-5.073,-5.075,-5.075,-5.0712,-5.0712,-5.0721,-5.073,-5.073,-5.073,-5.075,-5.073,-5.074,-5.073,-5.0748,-5.0738,-5.0775,-5.0821,-5.0793,-5.0747,-5.0738,-5.0748,-5.0758,-5.0749,-5.075,-5.075,-5.0721,-5.0683,-5.0644,-5.0594,-5.0542,-5.0489,-5.0446,-5.0145,-4.9952,-4.9073,-4.8175,-4.7275,-4.6496,-4.5579,-4.4829,-4.4893,-4.5096,-4.5039,-4.5065,-5.2674,-5.3285,-5.2531,-5.2171,-5.2008,-5.1273,-5.0898,-5.0898,-5.0898,-5.0906,-5.0914,-5.0986,-5.1015,-5.1043,-5.1159,-5.122,-5.1222,-5.1316,-5.1388,-5.1384,-5.1401,-5.1387,-5.1387,-5.1387,-5.1387,-5.1387,-5.1387,-5.1386,-5.1385,-5.1385,-5.1384,-5.1284,-5.1225,-5.0989,-5.0267,-5.011,-4.9623,-4.9136,-4.8861,-4.8352,-4.767,-4.7571,-4.7258,-4.6576,-4.6576,-4.6597,-4.6616,-4.644,-4.6301,-4.6301,-4.6294,-4.6246,-4.6214,-4.621,-4.617,-4.6125,-4.6123,-4.6547,-4.7023,-4.7462,-4.8081,-4.9293,-4.9655,-4.9956,-5.0666,-5.0784,-5.0803,-5.0784,-5.0803,-5.0793,-5.0793,-5.0793,-5.0793,-5.0812,-5.0757,-5.0729,-5.0793,-5.0793,-5.0784,-5.0803,-5.0821,-5.0821,-5.0784,-5.0793,-5.0801,-5.0801,-5.081,-5.0819,-5.0819,-5.0819,-5.0801,-5.0812,-5.0803,-5.0794,-5.0776,-5.0776,-5.0767,-5.073,-5.0692,-5.0673,-5.0653,-5.0613,-5.0553,-5.0257,-4.9674,-4.8754,-4.7899,-4.7089,-4.6158,-4.5268,-4.4799,-4.4584,-4.4557,-4.4636,-4.4643,-5.2345,-5.2492,-5.2287,-5.219,-5.2074,-5.1273,-5.0917,-5.0898,-5.0898,-5.0898,-5.0925,-5.0963,-5.0993,-5.1015,-5.1138,-5.12,-5.122,-5.1284,-5.1369,-5.1386,-5.1389,-5.1384,-5.1387,-5.1387,-5.1387,-5.1387,-5.1387,-5.1387,-5.1386,-5.1387,-5.1387,-5.1386,-5.1387,-5.1308,-5.1016,-5.0469,-5.0097,-4.9784,-4.9197,-4.8514,-4.7773,-4.7615,-4.7518,-4.7324,-4.7187,-4.7207,-4.7168,-4.664,-4.6307,-4.6302,-4.6301,-4.6299,-4.6276,-4.6276,-4.6266,-4.6316,-4.678,-4.7147,-4.7485,-4.8405,-4.9252,-4.9635,-5.0205,-5.0653,-5.0814,-5.0819,-5.0801,-5.0821,-5.0821,-5.0801,-5.0821,-5.0801,-5.0838,-5.0855,-5.081,-5.0764,-5.0801,-5.0821,-5.0821,-5.0821,-5.0821,-5.081,-5.081,-5.0827,-5.0883,-5.0872,-5.088,-5.0877,-5.0869,-5.0852,-5.0863,-5.0855,-5.0846,-5.0829,-5.0812,-5.0812,-5.0793,-5.0784,-5.0757,-5.073,-5.0702,-5.0673,-5.0633,-5.0495,-4.9602,-4.8677,-4.7903,-4.7109,-4.6089,-4.5048,-4.4889,-4.4757,-4.4646,-4.4659,-4.458,-5.2403,-5.2743,-5.2743,-5.2743,-5.2627,-5.1815,-5.1254,-5.0956,-5.0898,-5.0898,-5.0906,-5.0929,-5.0956,-5.0971,-5.1069,-5.112,-5.113,-5.1215,-5.1292,-5.1307,-5.1369,-5.1396,-5.1387,-5.1387,-5.1387,-5.1387,-5.1387,-5.1387,-5.1387,-5.1387,-5.1387,-5.1387,-5.1387,-5.1387,-5.1328,-5.0996,-5.0703,-5.0566,-4.9882,-4.9043,-4.8223,-4.7773,-4.7324,-4.7168,-4.7051,-4.7051,-4.6953,-4.6543,-4.6289,-4.6306,-4.6305,-4.6306,-4.6306,-4.6306,-4.644,-4.6739,-4.7278,-4.7757,-4.8518,-4.9409,-4.9974,-5.0324,-5.0804,-5.093,-5.0971,-5.0917,-5.0885,-5.0885,-5.0869,-5.0833,-5.0833,-5.0852,-5.0861,-5.0897,-5.0869,-5.0852,-5.0852,-5.0833,-5.0833,-5.0852,-5.0852,-5.0833,-5.0852,-5.0869,-5.0885,-5.0913,-5.0901,-5.0909,-5.089,-5.0913,-5.0905,-5.0888,-5.0888,-5.0861,-5.0852,-5.0852,-5.0855,-5.0827,-5.0791,-5.0784,-5.0776,-5.073,-5.051,-5.0231,-4.9413,-4.8625,-4.7818,-4.6951,-4.5959,-4.5241,-4.5091,-4.4986,-4.487,-4.4783,-4.468,-5.2724,-5.3498,-5.3498,-5.3556,-5.3459,-5.2589,-5.1738,-5.1138,-5.0956,-5.0898,-5.0898,-5.0898,-5.0925,-5.0906,-5.0993,-5.1015,-5.1023,-5.1136,-5.1186,-5.1238,-5.1325,-5.1387,-5.1402,-5.1386,-5.1387,-5.1387,-5.1387,-5.1387,-5.1387,-5.1387,-5.1387,-5.1387,-5.1387,-5.1387,-5.1387,-5.1328,-5.1387,-5.1191,-5.0664,-4.9902,-4.9101,-4.8457,-4.7851,-4.7168,-4.7031,-4.6992,-4.6914,-4.6738,-4.6718,-4.662,-4.6426,-4.6308,-4.6308,-4.6328,-4.6777,-4.7478,-4.7884,-4.8675,-4.9723,-5.0062,-5.0458,-5.0977,-5.1072,-5.1105,-5.1088,-5.1049,-5.0988,-5.0988,-5.0944,-5.0921,-5.0906,-5.0925,-5.0898,-5.0898,-5.0909,-5.0898,-5.0898,-5.0898,-5.0898,-5.0898,-5.0898,-5.0898,-5.0898,-5.0898,-5.0898,-5.0901,-5.0917,-5.0898,-5.0898,-5.0909,-5.0901,-5.0909,-5.0909,-5.089,-5.089,-5.089,-5.0893,-5.0888,-5.0852,-5.0827,-5.0819,-5.0696,-5.0359,-4.9918,-4.9285,-4.8498,-4.7624,-4.6723,-4.5765,-4.5448,-4.531,-4.5227,-4.5151,-4.5053,-4.4941,-5.2652,-5.3498,-5.3498,-5.3904,-5.4194,-5.2906,-5.2105,-5.1834,-5.1177,-5.0956,-5.0898,-5.0898,-5.0898,-5.0906,-5.0963,-5.0993,-5.1007,-5.1089,-5.1139,-5.1198,-5.1336,-5.1388,-5.1389,-5.14,-5.1386,-5.1387,-5.1387,-5.1387,-5.1387,-5.1387,-5.1387,-5.1387,-5.1387,-5.1387,-5.1387,-5.1387,-5.1387,-5.1367,-5.1172,-5.0664,-5.0,-4.9629,-4.9062,-4.8301,-4.8203,-4.8262,-4.832,-4.8359,-4.834,-4.8027,-4.7148,-4.6523,-4.6601,-4.7012,-4.7461,-4.7948,-4.8943,-4.9739,-5.0155,-5.0707,-5.1118,-5.1216,-5.1222,-5.1176,-5.1166,-5.1105,-5.1075,-5.1063,-5.1063,-5.1016,-5.0993,-5.0998,-5.0963,-5.0921,-5.0906,-5.0906,-5.0898,-5.0898,-5.0898,-5.0898,-5.0898,-5.0898,-5.0898,-5.0898,-5.0898,-5.0898,-5.0898,-5.0898,-5.0898,-5.0898,-5.0898,-5.0898,-5.0898,-5.0898,-5.0898,-5.0898,-5.0909,-5.0901,-5.0885,-5.085,-5.0861,-5.0601,-5.0229,-4.9768,-4.9249,-4.8375,-4.7336,-4.6512,-4.5566,-4.554,-4.5504,-4.5438,-4.5341,-4.5262,-4.5199,-5.2798,-5.3935,-5.4001,-5.4297,-5.4566,-5.3774,-5.294,-5.2221,-5.1738,-5.1254,-5.0956,-5.0898,-5.0898,-5.0898,-5.0941,-5.0956,-5.0978,-5.1016,-5.1099,-5.1191,-5.1281,-5.1304,-5.136,-5.1384,-5.1397,-5.1386,-5.1387,-5.1386,-5.1387,-5.1387,-5.1387,-5.1387,-5.1387,-5.1387,-5.1387,-5.1387,-5.1387,-5.1387,-5.1387,-5.0996,-5.0332,-5.0195,-4.9785,-4.9082,-4.8887,-4.8887,-4.8848,-4.8867,-4.8867,-4.8672,-4.8027,-4.7519,-4.7558,-4.7969,-4.8359,-4.8984,-4.955,-5.0409,-5.0735,-5.11,-5.1363,-5.1347,-5.1288,-5.1257,-5.1222,-5.1196,-5.115,-5.1134,-5.1125,-5.1082,-5.105,-5.1049,-5.1009,-5.0988,-5.0971,-5.0937,-5.0948,-5.0914,-5.0898,-5.0898,-5.0898,-5.0898,-5.0898,-5.0898,-5.0898,-5.0898,-5.0898,-5.0898,-5.0898,-5.0898,-5.0898,-5.0898,-5.0898,-5.0898,-5.0898,-5.0898,-5.0898,-5.0909,-5.089,-5.0882,-5.0882,-5.0499,-5.0058,-4.9501,-4.8894,-4.7882,-4.6893,-4.6116,-4.5657,-4.5643,-4.561,-4.5556,-4.5521,-4.5457,-4.54,-5.3176,-5.4525,-5.4689,-5.4814,-5.4861,-5.4696,-5.3864,-5.2738,-5.2418,-5.1899,-5.1211,-5.1087,-5.1125,-5.0929,-5.0909,-5.0909,-5.0921,-5.0954,-5.1056,-5.1147,-5.1171,-5.1213,-5.1271,-5.1322,-5.1371,-5.138,-5.1385,-5.1386,-5.1386,-5.1387,-5.1387,-5.1387,-5.1387,-5.1387,-5.1387,-5.1387,-5.1387,-5.1387,-5.1387,-5.1172,-5.0605,-5.0469,-5.0078,-4.9668,-4.9512,-4.9531,-4.9551,-4.9492,-4.9375,-4.9277,-4.9277,-4.9277,-4.9258,-4.916,-4.9355,-5.0117,-5.0312,-5.0722,-5.1112,-5.1343,-5.1397,-5.1393,-5.1349,-5.133,-5.1313,-5.128,-5.1249,-5.1219,-5.1176,-5.1131,-5.1103,-5.1099,-5.1114,-5.1095,-5.1042,-5.1007,-5.0993,-5.0944,-5.0941,-5.0898,-5.0898,-5.0898,-5.0898,-5.0898,-5.0898,-5.0898,-5.0898,-5.0898,-5.0898,-5.0898,-5.0898,-5.0898,-5.0898,-5.0898,-5.0898,-5.0898,-5.0898,-5.0898,-5.0898,-5.0859,-5.0801,-5.0329,-4.9792,-4.9104,-4.8361,-4.7426,-4.6715,-4.614,-4.5835,-4.5762,-4.5715,-4.5673,-4.564,-4.5635,-4.5575,-5.4111,-5.4563,-5.5277,-5.5634,-5.5577,-5.494,-5.4467,-5.411,-5.3386,-5.2663,-5.1968,-5.1891,-5.1531,-5.1093,-5.0927,-5.0913,-5.0956,-5.0952,-5.1015,-5.1056,-5.1081,-5.1136,-5.1205,-5.1222,-5.1268,-5.1321,-5.1351,-5.1383,-5.1386,-5.1387,-5.1387,-5.1387,-5.1387,-5.1387,-5.1387,-5.1387,-5.1387,-5.1387,-5.1387,-5.125,-5.1133,-5.1055,-5.1016,-5.0723,-5.0664,-5.0742,-5.084,-5.0918,-5.0976,-5.0976,-5.0976,-5.0937,-5.0723,-5.0273,-5.0137,-5.0332,-5.0801,-5.1172,-5.1348,-5.1386,-5.1384,-5.1402,-5.1373,-5.1384,-5.1379,-5.1367,-5.1344,-5.1339,-5.1297,-5.1242,-5.1186,-5.1181,-5.1145,-5.1111,-5.1094,-5.1082,-5.1063,-5.1022,-5.0963,-5.0914,-5.0906,-5.0898,-5.0898,-5.0898,-5.0898,-5.0898,-5.0898,-5.0898,-5.0898,-5.0898,-5.0898,-5.0898,-5.0898,-5.0898,-5.0898,-5.0898,-5.0898,-5.0898,-5.0879,-5.0782,-5.0589,-5.0113,-4.9513,-4.8674,-4.7978,-4.7255,-4.6629,-4.6088,-4.5907,-4.5776,-4.5783,-4.5771,-4.5754,-4.5708,-4.5692,-5.4386,-5.4963,-5.5454,-5.5703,-5.5719,-5.5353,-5.493,-5.4583,-5.414,-5.3503,-5.2925,-5.2693,-5.2287,-5.1687,-5.1522,-5.1318,-5.0966,-5.0921,-5.0952,-5.0944,-5.0969,-5.1043,-5.1101,-5.1089,-5.1137,-5.1202,-5.1255,-5.1343,-5.1398,-5.1402,-5.1384,-5.1387,-5.1385,-5.1385,-5.1387,-5.1387,-5.1385,-5.1385,-5.1385,-5.1385,-5.1385,-5.1385,-5.1385,-5.1385,-5.1385,-5.1385,-5.1385,-5.1386,-5.1387,-5.1367,-5.1367,-5.1387,-5.1269,-5.1074,-5.0801,-5.0859,-5.1172,-5.1387,-5.1387,-5.1386,-5.1386,-5.1386,-5.1402,-5.14,-5.1397,-5.139,-5.1402,-5.1394,-5.1388,-5.1347,-5.1297,-5.1257,-5.123,-5.1215,-5.1185,-5.1142,-5.1101,-5.1043,-5.0988,-5.0944,-5.0921,-5.0906,-5.0898,-5.0898,-5.0898,-5.0898,-5.0898,-5.0898,-5.0898,-5.0898,-5.0898,-5.0898,-5.0898,-5.0898,-5.0898,-5.0898,-5.0898,-5.0898,-5.084,-5.0743,-5.0221,-4.9668,-4.8875,-4.8024,-4.7424,-4.6883,-4.6438,-4.587,-4.5838,-4.5807,-4.5793,-4.5786,-4.5805,-4.5783,-4.5761,-5.452,-5.5268,-5.5395,-5.5516,-5.5649,-5.5662,-5.535,-5.4882,-5.4844,-5.4343,-5.361,-5.3494,-5.3089,-5.2472,-5.2057,-5.1641,-5.0859,-5.0863,-5.0872,-5.088,-5.0866,-5.0925,-5.0978,-5.0983,-5.1024,-5.1105,-5.1128,-5.1225,-5.1351,-5.1369,-5.1393,-5.1395,-5.1395,-5.1397,-5.1397,-5.1399,-5.1398,-5.1398,-5.1398,-5.1398,-5.1398,-5.1398,-5.1398,-5.1398,-5.1398,-5.1399,-5.14,-5.1402,-5.1384,-5.1385,-5.1386,-5.1387,-5.1387,-5.1387,-5.1387,-5.1386,-5.1387,-5.1387,-5.1387,-5.1387,-5.1387,-5.1387,-5.1387,-5.1386,-5.1385,-5.1401,-5.1394,-5.1385,-5.1384,-5.14,-5.1371,-5.136,-5.1341,-5.1317,-5.1249,-5.1196,-5.1164,-5.1113,-5.1043,-5.0995,-5.0952,-5.0941,-5.0921,-5.0898,-5.0898,-5.0898,-5.0898,-5.0898,-5.0898,-5.0898,-5.0898,-5.0898,-5.0898,-5.0898,-5.0898,-5.0898,-5.0898,-5.0898,-5.0801,-5.0685,-4.9912,-4.9107,-4.8333,-4.7618,-4.6929,-4.6426,-4.602,-4.5807,-4.5807,-4.5807,-4.5807,-4.58,-4.5812,-4.5812,-4.5778,-5.475,-5.5135,-5.5197,-5.5301,-5.5444,-5.5551,-5.5569,-5.5487,-5.5472,-5.5109,-5.4358,-5.432,-5.3908,-5.3177,-5.2405,-5.1652,-5.1063,-5.0936,-5.0917,-5.084,-5.081,-5.0836,-5.0888,-5.0916,-5.0941,-5.0988,-5.1011,-5.1147,-5.1241,-5.1286,-5.1349,-5.1375,-5.138,-5.139,-5.1366,-5.1369,-5.1398,-5.1398,-5.1398,-5.1397,-5.1397,-5.1397,-5.1397,-5.1397,-5.1397,-5.1397,-5.1396,-5.1398,-5.1399,-5.1399,-5.14,-5.14,-5.14,-5.14,-5.14,-5.1402,-5.1387,-5.1387,-5.1387,-5.1387,-5.1387,-5.1387,-5.1387,-5.1387,-5.1387,-5.1387,-5.1385,-5.1384,-5.1402,-5.1399,-5.1393,-5.1387,-5.1396,-5.1377,-5.1327,-5.1292,-5.1252,-5.1155,-5.1099,-5.1089,-5.103,-5.0974,-5.0963,-5.0921,-5.0898,-5.0898,-5.0898,-5.0906,-5.0906,-5.0906,-5.0914,-5.0921,-5.0948,-5.0948,-5.0941,-5.0933,-5.0906,-5.0906,-5.0821,-5.0627,-4.9815,-4.8972,-4.8121,-4.7405,-4.6689,-4.6174,-4.5923,-4.5807,-4.5807,-4.5807,-4.5807,-4.5807,-4.58,-4.5807,-4.5807,-5.4486,-5.4829,-5.4966,-5.5135,-5.5275,-5.5376,-5.548,-5.5551,-5.5607,-5.5467,-5.5179,-5.5173,-5.4743,-5.3897,-5.3109,-5.2242,-5.1587,-5.1433,-5.1163,-5.0826,-5.0777,-5.0748,-5.0767,-5.0794,-5.0819,-5.0841,-5.0914,-5.0949,-5.1084,-5.1194,-5.1271,-5.1278,-5.1333,-5.1325,-5.1335,-5.134,-5.1349,-5.1377,-5.1384,-5.1387,-5.1387,-5.1387,-5.1387,-5.1387,-5.1387,-5.1387,-5.1389,-5.1393,-5.1394,-5.1394,-5.1396,-5.1398,-5.1398,-5.1398,-5.1398,-5.1399,-5.1402,-5.1387,-5.1387,-5.1386,-5.1387,-5.1387,-5.1387,-5.1387,-5.1387,-5.1387,-5.1387,-5.1386,-5.1386,-5.1387,-5.1387,-5.1401,-5.1394,-5.138,-5.1381,-5.1349,-5.1296,-5.1228,-5.1152,-5.1147,-5.112,-5.1063,-5.103,-5.1016,-5.0988,-5.0959,-5.0952,-5.0963,-5.0956,-5.0948,-5.0956,-5.0963,-5.0978,-5.1012,-5.0998,-5.0963,-5.0948,-5.0941,-5.0914,-5.0577,-4.9823,-4.8991,-4.8205,-4.7316,-4.6523,-4.6116,-4.5884,-4.5807,-4.5807,-4.5807,-4.5807,-4.5807,-4.5807,-4.5807,-4.5807,-5.4145,-5.4451,-5.4695,-5.4893,-5.5061,-5.5183,-5.532,-5.5413,-5.5516,-5.5562,-5.5607,-5.5605,-5.5222,-5.4549,-5.379,-5.3078,-5.2241,-5.205,-5.1597,-5.1135,-5.0789,-5.0702,-5.0702,-5.0712,-5.0711,-5.0682,-5.0801,-5.0841,-5.091,-5.1024,-5.1116,-5.1176,-5.1256,-5.1273,-5.1269,-5.1287,-5.1327,-5.1361,-5.1369,-5.1374,-5.1374,-5.1374,-5.136,-5.1362,-5.1362,-5.1384,-5.139,-5.1398,-5.1402,-5.1387,-5.139,-5.1393,-5.1393,-5.1391,-5.1391,-5.1393,-5.1395,-5.1398,-5.1402,-5.1384,-5.1386,-5.1386,-5.1386,-5.1387,-5.1387,-5.1387,-5.1387,-5.1387,-5.1387,-5.1387,-5.1387,-5.1387,-5.1384,-5.1396,-5.1387,-5.136,-5.1323,-5.1273,-5.1213,-5.1172,-5.1161,-5.1169,-5.1142,-5.1138,-5.1108,-5.1049,-5.1022,-5.1007,-5.1007,-5.0988,-5.1002,-5.1023,-5.103,-5.1063,-5.1049,-5.1029,-5.1,-5.0978,-5.0944,-5.0581,-4.9872,-4.9207,-4.8491,-4.7536,-4.6646,-4.6155,-4.5962,-4.5884,-4.5807,-4.5807,-4.5807,-4.5807,-4.5807,-4.5807,-4.5807,-5.3888,-5.4074,-5.4388,-5.4584,-5.4692,-5.4976,-5.5149,-5.5242,-5.5358,-5.548,-5.5585,-5.5632,-5.525,-5.4684,-5.4442,-5.3923,-5.3068,-5.226,-5.2029,-5.1664,-5.1135,-5.0885,-5.0827,-5.0789,-5.0683,-5.0683,-5.074,-5.0739,-5.0747,-5.0858,-5.0995,-5.1101,-5.1147,-5.1196,-5.121,-5.1237,-5.1277,-5.1316,-5.1323,-5.1323,-5.1319,-5.1323,-5.1307,-5.1317,-5.1304,-5.1333,-5.1377,-5.1379,-5.1388,-5.1394,-5.1398,-5.14,-5.1402,-5.1402,-5.1402,-5.1402,-5.1387,-5.139,-5.1394,-5.1398,-5.14,-5.1401,-5.1384,-5.1386,-5.1387,-5.1387,-5.1387,-5.1387,-5.1387,-5.1387,-5.1387,-5.1387,-5.1386,-5.1384,-5.1397,-5.1385,-5.1364,-5.1327,-5.1275,-5.123,-5.1213,-5.1237,-5.1237,-5.1248,-5.1175,-5.1125,-5.105,-5.1037,-5.1076,-5.1063,-5.1075,-5.1093,-5.1099,-5.1099,-5.1119,-5.1101,-5.1076,-5.105,-5.1017,-5.0602,-5.0019,-4.9373,-4.8863,-4.8183,-4.737,-4.6691,-4.6155,-4.6232,-4.6194,-4.5923,-4.5807,-4.5807,-4.5807,-4.5807,-4.5807,-5.3832,-5.3888,-5.4091,-5.4285,-5.4413,-5.4673,-5.4893,-5.5023,-5.5183,-5.5383,-5.5539,-5.5543,-5.5442,-5.5215,-5.5141,-5.4748,-5.403,-5.3703,-5.3203,-5.2558,-5.1933,-5.151,-5.1337,-5.0991,-5.0693,-5.0712,-5.0712,-5.0693,-5.0712,-5.0776,-5.0793,-5.089,-5.0976,-5.1037,-5.1093,-5.1166,-5.1205,-5.1243,-5.128,-5.1296,-5.13,-5.13,-5.1304,-5.1312,-5.1292,-5.1307,-5.1346,-5.133,-5.1366,-5.1399,-5.1384,-5.1386,-5.139,-5.1392,-5.1392,-5.1394,-5.14,-5.1402,-5.1384,-5.1393,-5.1398,-5.1399,-5.1383,-5.1385,-5.1386,-5.1386,-5.1387,-5.1387,-5.1387,-5.1387,-5.1387,-5.1387,-5.1386,-5.1386,-5.1402,-5.1397,-5.139,-5.1357,-5.1342,-5.1291,-5.1313,-5.1341,-5.1341,-5.1339,-5.1277,-5.1186,-5.1139,-5.1092,-5.1125,-5.1161,-5.1176,-5.1191,-5.1201,-5.1191,-5.1186,-5.1166,-5.1164,-5.1122,-5.1105,-5.0771,-5.0358,-4.9886,-4.9337,-4.8703,-4.825,-4.7759,-4.7312,-4.6904,-4.6561,-4.6194,-4.5962,-4.5807,-4.5807,-4.5807,-4.5807,-5.3813,-5.3813,-5.3888,-5.4055,-5.4213,-5.4382,-5.46,-5.4773,-5.4952,-5.5151,-5.5364,-5.5432,-5.5492,-5.5539,-5.5524,-5.5338,-5.4795,-5.446,-5.4077,-5.3442,-5.2779,-5.2375,-5.201,-5.1606,-5.1183,-5.101,-5.075,-5.0693,-5.0693,-5.0683,-5.0711,-5.0748,-5.0793,-5.0874,-5.0981,-5.1056,-5.1092,-5.1122,-5.1145,-5.1196,-5.1166,-5.1166,-5.1201,-5.1181,-5.1186,-5.1239,-5.1269,-5.1265,-5.1303,-5.1346,-5.1361,-5.1369,-5.1377,-5.1386,-5.1388,-5.139,-5.1392,-5.1394,-5.1398,-5.1385,-5.1394,-5.1396,-5.1398,-5.1402,-5.1384,-5.1386,-5.1387,-5.1387,-5.1387,-5.1387,-5.1387,-5.1387,-5.1387,-5.1386,-5.1386,-5.1384,-5.1401,-5.1374,-5.1387,-5.1375,-5.1398,-5.1398,-5.1394,-5.1371,-5.1352,-5.1291,-5.1277,-5.1238,-5.1238,-5.1269,-5.1273,-5.128,-5.1287,-5.1277,-5.1261,-5.1265,-5.1261,-5.1217,-5.1195,-5.1152,-5.08,-5.0351,-4.9928,-4.9413,-4.9033,-4.8813,-4.8354,-4.7766,-4.7094,-4.6413,-4.6174,-4.5923,-4.5807,-4.5807,-4.5807,-5.3775,-5.3813,-5.3794,-5.3888,-5.4019,-5.4126,-5.4318,-5.4522,-5.4613,-5.481,-5.5102,-5.5281,-5.5371,-5.5408,-5.5425,-5.5401,-5.5297,-5.4789,-5.4477,-5.4259,-5.3587,-5.3241,-5.2876,-5.2414,-5.1788,-5.1645,-5.126,-5.0894,-5.0683,-5.0693,-5.0702,-5.0693,-5.0721,-5.0776,-5.088,-5.0909,-5.0914,-5.0914,-5.0925,-5.094,-5.0954,-5.0981,-5.0997,-5.103,-5.1043,-5.1099,-5.1166,-5.1181,-5.1215,-5.1281,-5.1303,-5.1314,-5.132,-5.1366,-5.1374,-5.1396,-5.1388,-5.1392,-5.1394,-5.1396,-5.1402,-5.1389,-5.1393,-5.1395,-5.1399,-5.1402,-5.1385,-5.1385,-5.1387,-5.1387,-5.1387,-5.1387,-5.1387,-5.1387,-5.1387,-5.1386,-5.1385,-5.1384,-5.1399,-5.1396,-5.1396,-5.1396,-5.1393,-5.139,-5.1385,-5.1377,-5.1394,-5.1367,-5.1355,-5.1352,-5.135,-5.1352,-5.1355,-5.1352,-5.1327,-5.1362,-5.136,-5.1302,-5.1278,-5.125,-5.1217,-5.0942,-5.052,-5.009,-4.9901,-4.9747,-4.9147,-4.8534,-4.7915,-4.7295,-4.6401,-4.6039,-4.5904,-4.5845,-4.5904,-5.3014,-5.307,-5.359,-5.3832,-5.3888,-5.4,-5.4127,-5.4268,-5.4453,-5.4645,-5.4814,-5.4914,-5.5042,-5.517,-5.5281,-5.5371,-5.5373,-5.545,-5.5215,-5.5111,-5.4393,-5.4164,-5.3799,-5.3203,-5.25,-5.1962,-5.1529,-5.1125,-5.0683,-5.0683,-5.0683,-5.0683,-5.0693,-5.0712,-5.0794,-5.0836,-5.0905,-5.0905,-5.0909,-5.0906,-5.0898,-5.0898,-5.0906,-5.0917,-5.0917,-5.0976,-5.1063,-5.1075,-5.1122,-5.1191,-5.1219,-5.1237,-5.1281,-5.1314,-5.1327,-5.1355,-5.135,-5.1388,-5.1392,-5.1394,-5.1394,-5.14,-5.1387,-5.139,-5.1394,-5.1398,-5.14,-5.1401,-5.1402,-5.1385,-5.1387,-5.1387,-5.1387,-5.1387,-5.1387,-5.1387,-5.1386,-5.1386,-5.1386,-5.1386,-5.1386,-5.1387,-5.1387,-5.1387,-5.1387,-5.1387,-5.1393,-5.1384,-5.1373,-5.1377,-5.1379,-5.1382,-5.1384,-5.1385,-5.1387,-5.1389,-5.1385,-5.1351,-5.1342,-5.1355,-5.1313,-5.1268,-5.114,-5.0708,-5.0704,-5.0636,-5.0105,-4.9545,-4.8963,-4.8262,-4.745,-4.6603,-4.6286,-4.6195,-4.6116,-5.2345,-5.2661,-5.3162,-5.3571,-5.3775,-5.3907,-5.4,-5.411,-5.4284,-5.4434,-5.4533,-5.4597,-5.4738,-5.4903,-5.5052,-5.5203,-5.5314,-5.5425,-5.5531,-5.5504,-5.5149,-5.491,-5.4594,-5.4058,-5.351,-5.275,-5.2058,-5.1558,-5.1164,-5.0818,-5.0712,-5.0683,-5.0693,-5.0693,-5.073,-5.0776,-5.0822,-5.0822,-5.0821,-5.0819,-5.0819,-5.0827,-5.0816,-5.0825,-5.0841,-5.0855,-5.0937,-5.0981,-5.0997,-5.1081,-5.1128,-5.115,-5.1191,-5.1233,-5.1253,-5.1292,-5.1323,-5.1344,-5.1352,-5.1386,-5.1386,-5.1388,-5.14,-5.1384,-5.1387,-5.1391,-5.1395,-5.1396,-5.1397,-5.1399,-5.1402,-5.1384,-5.1387,-5.1387,-5.1387,-5.1387,-5.1386,-5.1386,-5.1387,-5.1387,-5.1387,-5.1387,-5.1387,-5.1387,-5.1387,-5.1387,-5.1402,-5.1397,-5.1391,-5.1394,-5.1387,-5.1387,-5.1387,-5.1387,-5.1387,-5.1401,-5.1397,-5.1391,-5.1389,-5.1387,-5.1377,-5.134,-5.1338,-5.1333,-5.1167,-5.1035,-5.1018,-5.0607,-4.9907,-4.9315,-4.8701,-4.7824,-4.692,-4.6739,-4.6803,-5.1806,-5.2475,-5.2568,-5.3014,-5.3664,-5.3757,-5.387,-5.4,-5.4108,-5.4197,-5.4233,-5.4405,-5.4519,-5.4632,-5.4791,-5.4966,-5.5143,-5.5255,-5.5371,-5.5468,-5.5366,-5.5408,-5.5261,-5.4814,-5.4306,-5.3788,-5.3135,-5.2385,-5.1885,-5.1279,-5.0914,-5.0702,-5.0683,-5.0693,-5.0712,-5.0721,-5.0731,-5.074,-5.074,-5.073,-5.073,-5.0731,-5.074,-5.073,-5.0729,-5.0793,-5.0844,-5.0877,-5.0882,-5.0937,-5.0981,-5.1009,-5.1043,-5.1122,-5.1166,-5.123,-5.1265,-5.128,-5.1301,-5.1361,-5.1372,-5.1374,-5.1384,-5.139,-5.1398,-5.1384,-5.1387,-5.139,-5.1391,-5.1395,-5.1398,-5.1398,-5.1387,-5.1387,-5.1387,-5.1402,-5.1385,-5.1385,-5.1386,-5.1386,-5.1387,-5.1387,-5.1387,-5.1387,-5.1387,-5.1387,-5.1387,-5.1387,-5.1386,-5.1385,-5.1387,-5.1387,-5.1387,-5.1387,-5.1387,-5.1387,-5.1385,-5.1401,-5.1402,-5.1401,-5.1396,-5.1391,-5.1387,-5.1363,-5.1377,-5.1321,-5.1229,-5.1074,-5.08,-5.0242,-4.9751,-4.8921,-4.7986,-4.7913,-4.7972,-5.0636,-5.0878,-5.1491,-5.2215,-5.2977,-5.3553,-5.3813,-5.387,-5.3907,-5.3982,-5.4055,-5.411,-5.4216,-5.4335,-5.4519,-5.4661,-5.4844,-5.5019,-5.5189,-5.5288,-5.5376,-5.5468,-5.5431,-5.5247,-5.4916,-5.4457,-5.3864,-5.3259,-5.2731,-5.1972,-5.1173,-5.0779,-5.0827,-5.0788,-5.0808,-5.0721,-5.0779,-5.0818,-5.0875,-5.0875,-5.0885,-5.0923,-5.0875,-5.0827,-5.0808,-5.0836,-5.0767,-5.0766,-5.0801,-5.0888,-5.0913,-5.0945,-5.0944,-5.1017,-5.1081,-5.1201,-5.1239,-5.1256,-5.1285,-5.1319,-5.1333,-5.1343,-5.1333,-5.1374,-5.1386,-5.1394,-5.1398,-5.1402,-5.1385,-5.1389,-5.1391,-5.1393,-5.1394,-5.1395,-5.1395,-5.1397,-5.14,-5.1401,-5.1384,-5.1385,-5.1386,-5.1386,-5.1386,-5.1387,-5.1387,-5.1387,-5.1402,-5.1384,-5.1384,-5.1386,-5.1387,-5.1387,-5.1387,-5.1387,-5.1387,-5.1387,-5.1387,-5.1386,-5.1386,-5.1386,-5.1386,-5.1384,-5.1402,-5.1398,-5.1393,-5.1384,-5.1367,-5.1224,-5.1083,-5.118,-5.0767,-4.9905,-4.9216,-4.9119,-4.9093,-4.9712,-5.0083,-5.0565,-5.1287,-5.2122,-5.2958,-5.333,-5.3385,-5.3664,-5.3851,-5.3926,-5.3907,-5.3982,-5.4127,-5.4267,-5.442,-5.4514,-5.4769,-5.4933,-5.5019,-5.5183,-5.5281,-5.5371,-5.543,-5.524,-5.4871,-5.4521,-5.4013,-5.3496,-5.2794,-5.1996,-5.1708,-5.1373,-5.1373,-5.1478,-5.1458,-5.1421,-5.148,-5.149,-5.1433,-5.151,-5.1597,-5.151,-5.1221,-5.1183,-5.1049,-5.076,-5.0731,-5.0768,-5.0822,-5.0831,-5.0819,-5.0841,-5.0914,-5.0981,-5.1088,-5.1105,-5.1128,-5.1141,-5.1215,-5.1256,-5.1277,-5.1289,-5.1314,-5.1358,-5.1374,-5.1386,-5.1394,-5.1396,-5.1396,-5.1402,-5.1385,-5.1387,-5.139,-5.1391,-5.1391,-5.1394,-5.1395,-5.1398,-5.1402,-5.1384,-5.1384,-5.1384,-5.1384,-5.1402,-5.1401,-5.14,-5.14,-5.1401,-5.1402,-5.1384,-5.1387,-5.1387,-5.1387,-5.1386,-5.1386,-5.1386,-5.1386,-5.1385,-5.1385,-5.1386,-5.1386,-5.1386,-5.1385,-5.1402,-5.1396,-5.139,-5.1402,-5.1334,-5.1402,-5.14,-5.0781,-5.0251,-5.0209,-5.0248,-4.9067,-4.9788,-4.9861,-5.0417,-5.1157,-5.2066,-5.2531,-5.2661,-5.3329,-5.3738,-5.3775,-5.3813,-5.387,-5.3982,-5.411,-5.4179,-5.43,-5.45,-5.4629,-5.4673,-5.4903,-5.5038,-5.5116,-5.5249,-5.5243,-5.5126,-5.4879,-5.445,-5.415,-5.3536,-5.3034,-5.2973,-5.2237,-5.2094,-5.245,-5.2094,-5.2193,-5.2762,-5.2459,-5.224,-5.2769,-5.2972,-5.2827,-5.2154,-5.1885,-5.1702,-5.1097,-5.0827,-5.075,-5.0721,-5.0692,-5.072,-5.0747,-5.081,-5.0877,-5.0933,-5.0988,-5.0997,-5.1043,-5.1099,-5.1131,-5.1181,-5.1239,-5.1261,-5.1285,-5.1349,-5.1372,-5.1379,-5.1381,-5.1388,-5.1392,-5.1398,-5.1402,-5.1402,-5.1403,-5.1385,-5.1387,-5.139,-5.1394,-5.1398,-5.14,-5.14,-5.1399,-5.1398,-5.1396,-5.1396,-5.1395,-5.1395,-5.1396,-5.1396,-5.1398,-5.1399,-5.1401,-5.1402,-5.1402,-5.1402,-5.1401,-5.14,-5.1399,-5.14,-5.1402,-5.1385,-5.1386,-5.1387,-5.1386,-5.1386,-5.1384,-5.1399,-5.1395,-5.1395,-5.1393,-5.1385,-5.1234,-5.1021,-5.0985,-4.8735,-4.8975,-4.9621,-5.0028,-5.0305,-5.1101,-5.1842,-5.2437,-5.2697,-5.3217,-5.3719,-5.3813,-5.3813,-5.387,-5.3982,-5.4055,-5.411,-5.4249,-5.4334,-5.4418,-5.4581,-5.4707,-5.4795,-5.4962,-5.5121,-5.5178,-5.5008,-5.472,-5.4343,-5.3989,-5.3614,-5.3096,-5.2702,-5.2901,-5.3161,-5.2767,-5.3077,-5.3732,-5.3297,-5.2871,-5.3086,-5.3192,-5.301,-5.2808,-5.2692,-5.2231,-5.1741,-5.151,-5.1164,-5.0866,-5.0741,-5.0683,-5.0701,-5.0739,-5.0793,-5.088,-5.0913,-5.0898,-5.091,-5.0961,-5.101,-5.1043,-5.1087,-5.1159,-5.122,-5.1292,-5.1327,-5.1355,-5.1366,-5.1374,-5.1384,-5.1388,-5.1392,-5.1392,-5.1394,-5.1396,-5.1398,-5.1385,-5.139,-5.1393,-5.1395,-5.1395,-5.1393,-5.1391,-5.1389,-5.1385,-5.1402,-5.1402,-5.1402,-5.1385,-5.1393,-5.1394,-5.1398,-5.1398,-5.1397,-5.1396,-5.1395,-5.1395,-5.1396,-5.1397,-5.1398,-5.1401,-5.1384,-5.1386,-5.1386,-5.1387,-5.1386,-5.1386,-5.1386,-5.1387,-5.1387,-5.1387,-5.1387,-5.1219,-5.1288,-4.8458,-4.8531,-4.9048,-4.927,-4.9436,-5.0194,-5.1063,-5.1804,-5.2269,-5.2937,-5.3699,-5.3774,-5.3813,-5.3813,-5.387,-5.3907,-5.3944,-5.4055,-5.4072,-5.4126,-5.4231,-5.4352,-5.4503,-5.4629,-5.4784,-5.4918,-5.5061,-5.489,-5.4535,-5.4542,-5.4257,-5.3817,-5.367,-5.3604,-5.3776,-5.375,-5.369,-5.4192,-5.3702,-5.3363,-5.3159,-5.3142,-5.2904,-5.2827,-5.2519,-5.2173,-5.1683,-5.1375,-5.1125,-5.0827,-5.0712,-5.0693,-5.0702,-5.0712,-5.074,-5.0776,-5.0812,-5.081,-5.0816,-5.085,-5.0909,-5.0929,-5.0947,-5.1024,-5.1037,-5.1114,-5.1233,-5.1249,-5.1307,-5.1343,-5.1336,-5.1341,-5.1377,-5.1401,-5.1386,-5.1388,-5.1394,-5.14,-5.1402,-5.1384,-5.1385,-5.1385,-5.1384,-5.1384,-5.14,-5.14,-5.1394,-5.1394,-5.1394,-5.1394,-5.1402,-5.1387,-5.1391,-5.1391,-5.1387,-5.1387,-5.1387,-5.1389,-5.1391,-5.1391,-5.1393,-5.1396,-5.14,-5.1402,-5.1385,-5.1386,-5.1386,-5.1386,-5.1387,-5.1387,-5.1387,-5.1387,-5.1387,-5.1387,-5.1387,-4.8306,-4.8324,-4.8438,-4.8512,-4.8568,-4.9325,-5.0249,-5.1135,-5.1878,-5.2749,-5.3601,-5.3716,-5.3774,-5.3793,-5.3774,-5.3774,-5.3793,-5.3851,-5.3832,-5.3832,-5.3944,-5.4018,-5.4072,-5.4196,-5.4399,-5.4629,-5.4829,-5.4878,-5.4745,-5.4814,-5.4829,-5.4838,-5.4713,-5.4484,-5.4771,-5.4537,-5.4122,-5.4018,-5.3671,-5.3311,-5.3168,-5.3061,-5.2747,-5.2364,-5.199,-5.1635,-5.1135,-5.0875,-5.0894,-5.0712,-5.0683,-5.0693,-5.0693,-5.0702,-5.0702,-5.0731,-5.073,-5.072,-5.0739,-5.0803,-5.0838,-5.0852,-5.0866,-5.089,-5.0914,-5.0976,-5.1099,-5.1166,-5.123,-5.1277,-5.1273,-5.1291,-5.1349,-5.1383,-5.1389,-5.1374,-5.1381,-5.1388,-5.1388,-5.1388,-5.139,-5.139,-5.1392,-5.1392,-5.139,-5.139,-5.1392,-5.1392,-5.1392,-5.1394,-5.1398,-5.14,-5.1402,-5.14,-5.1396,-5.1398,-5.14,-5.14,-5.1384,-5.1384,-5.1385,-5.1391,-5.1395,-5.1397,-5.1401,-5.1384,-5.1385,-5.1385,-5.1387,-5.1387,-5.1387,-5.1387,-5.1387,-5.1387,-5.1387,-4.8324,-4.8324,-4.8325,-4.8343,-4.8399,-4.8565,-4.9487,-5.0835,-5.1131,-5.2038,-5.3242,-5.3559,-5.3599,-5.3696,-5.3599,-5.3561,-5.3619,-5.3658,-5.3619,-5.358,-5.3639,-5.366,-5.3756,-5.3889,-5.4072,-5.4282,-5.4498,-5.4629,-5.46,-5.4776,-5.4927,-5.488,-5.4943,-5.4849,-5.4878,-5.4479,-5.3856,-5.3588,-5.2841,-5.2226,-5.2319,-5.2433,-5.2938,-5.2837,-5.282,-5.2303,-5.1863,-5.1682,-5.1269,-5.0914,-5.0683,-5.0683,-5.0683,-5.0683,-5.0683,-5.0693,-5.0693,-5.0693,-5.0712,-5.075,-5.0758,-5.0757,-5.0773,-5.0791,-5.0836,-5.0897,-5.0966,-5.099,-5.1049,-5.1171,-5.1205,-5.1241,-5.1281,-5.1316,-5.1323,-5.1336,-5.1327,-5.1333,-5.1358,-5.1364,-5.1389,-5.1391,-5.1396,-5.1394,-5.1389,-5.1391,-5.1374,-5.1377,-5.1381,-5.1386,-5.139,-5.1388,-5.1386,-5.1394,-5.1394,-5.1394,-5.1396,-5.1394,-5.1394,-5.1398,-5.1402,-5.1387,-5.139,-5.1391,-5.1395,-5.1399,-5.1401,-5.1402,-5.1387,-5.1387,-5.1387,-5.1387,-5.1386,-5.1387,-5.1387]},{"header":{"parameterUnit":"m.s-1","parameterCategory":1,"la1":31.0,"la2":29.5877,"lo1":-88.7671,"lo2":-86.6584,"dy":0.0162,"dx":0.0185,"nx":115,"ny":88,"refTime":"2024-06-07T12:00:00:Z","depth":0,"parameterNumber":3,"parameterNumberName":"V-component_of_WINDS"},"data":[0.0,0.0,0.0,0.0,0.0,0.0,0.0,0.0,0.0,0.0,0.0,0.0,0.0,0.0,0.0,0.0,0.0,0.0,0.0,0.0,0.0,0.0,0.0,0.0,0.0,0.0,0.0,0.0,0.0,0.0,0.0,0.0,0.0,0.0,0.0,0.0,0.0,0.0,0.0,0.0,0.0,0.0,0.0,0.0,0.0,0.0,0.0,0.0,0.0,0.0,0.0,0.0,0.0,0.0,0.0,0.0,0.0,0.0,0.0,0.0,0.0,0.0,0.0,0.0,0.0,0.0,0.0,0.0,0.0,0.0,0.0,0.0,0.0,0.0,0.0,0.0,0.0,0.0,0.0,0.0,0.0,0.0,0.0,0.0,0.0,0.0,0.0,0.0,0.0,0.0,0.0,0.0,0.0,0.0,0.0,0.0,0.0,0.0,0.0,0.0,0.0,0.0,0.0,0.0,0.0,0.0,0.0,0.0,0.0,0.0,0.0,0.0,0.0,0.0,0.0,0.0,0.0,0.0,0.0,0.0,0.0,0.0,0.0,0.0,0.0,0.0,0.0,0.0,0.0,0.0,0.0,0.0,0.0,0.0,0.0,0.0,0.0,0.0,0.0,0.0,0.0,0.0,0.0,0.0,0.0,0.0,0.0,0.0,0.0,0.0,0.0,0.0,0.0,0.0,0.0,0.0,0.0,0.0,0.0,0.0,0.0,0.0,0.0,0.0,0.0,0.0,0.0,0.0,0.0,0.0,0.0,0.0,0.0,0.0,0.0,0.0,0.0,0.0,0.0,0.0,0.0,0.0,0.0,0.0,0.0,0.0,0.0,0.0,0.0,0.0,0.0,0.0,0.0,0.0,0.0,0.0,0.0,0.0,0.0,0.0,0.0,0.0,0.0,0.0,0.0,0.0,0.0,0.0,0.0,0.0,0.0,0.0,0.0,0.0,0.0,0.0,0.0,0.0,0.0,0.0,0.0,0.0,0.0,0.0,0.0,0.0,0.0,0.0,0.0,0.0,0.0,0.0,0.0,0.0,0.0,0.0,0.0,0.0,0.0,0.0,0.0,0.0,0.0,0.0,0.0,0.0,0.0,0.0,0.0,0.0,0.0,0.0,0.0,0.0,0.0,0.0,0.0,0.0,0.0,0.0,0.0,0.0,0.0,0.0,0.0,0.0,0.0,0.0,0.0,0.0,0.0,0.0,0.0,0.0,0.0,0.0,0.0,0.0,0.0,0.0,0.0,0.0,0.0,0.0,0.0,0.0,0.0,0.0,0.0,0.0,0.0,0.0,0.0,0.0,0.0,0.0,0.0,0.0,0.0,0.0,0.0,0.0,0.0,0.0,0.0,0.0,0.0,0.0,0.0,0.0,0.0,0.0,0.0,0.0,0.0,0.0,0.0,0.0,0.0,0.0,0.0,0.0,0.0,0.0,0.0,0.0,0.0,0.0,0.0,0.0,0.0,0.0,0.0,0.0,0.0,0.0,0.0,0.0,0.0,0.0,0.0,0.0,0.0,0.0,0.0,0.0,0.0,0.0,0.0,0.0,0.0,0.0,0.0,0.0,0.0,0.0,0.0,0.0,0.0,0.0,0.0,0.0,0.0,0.0,0.0,0.0,0.0,0.0,0.0,0.0,0.0,0.0,0.0,0.0,0.0,0.0,0.0,0.0,0.0,0.0,0.0,0.0,0.0,0.0,0.0,0.0,0.0,0.0,0.0,0.0,0.0,0.0,0.0,0.0,0.0,0.0,0.0,0.0,0.0,0.0,0.0,0.0,0.0,0.0,0.0,0.0,0.0,0.0,0.0,0.0,0.0,0.0,0.0,0.0,0.0,0.0,0.0,0.0,0.0,0.0,0.0,0.0,0.0,0.0,0.0,0.0,0.0,0.0,0.0,0.0,0.0,0.0,0.0,0.0,0.0,0.0,0.0,0.0,0.0,0.0,0.0,0.0,0.0,0.0,0.0,0.0,0.0,0.0,0.0,0.0,0.0,0.0,0.0,0.0,0.0,0.0,0.0,0.0,0.0,0.0,0.0,0.0,0.0,0.0,0.0,0.0,0.0,0.0,0.0,0.0,0.0,0.0,0.0,0.0,0.0,0.0,0.0,0.0,0.0,0.0,0.0,0.0,0.0,0.0,0.0,0.0,0.0,0.0,0.0,0.0,0.0,0.0,0.0,0.0,0.0,0.0,0.0,0.0,0.0,0.0,0.0,0.0,0.0,0.0,0.0,0.0,0.0,0.0,0.0,0.0,0.0,0.0,0.0,0.0,0.0,0.0,0.0,0.0,0.0,0.0,0.0,0.0,0.0,0.0,0.0,0.0,0.0,0.0,0.0,0.0,0.0,0.0,0.0,0.0,0.0,0.0,0.0,0.0,0.0,0.0,0.0,0.0,0.0,0.0,0.0,0.0,0.0,0.0,0.0,0.0,0.0,0.0,0.0,0.0,0.0,0.0,0.0,0.0,0.0,0.0,0.0,0.0,0.0,0.0,0.0,0.0,0.0,0.0,0.0,0.0,0.0,0.0,0.0,0.0,0.0,0.0,0.0,0.0,0.0,0.0,0.0,0.0,0.0,0.0,0.0,0.0,0.0,0.0,0.0,0.0,0.0,0.0,0.0,0.0,0.0,0.0,0.0,0.0,0.0,0.0,0.0,0.0,0.0,0.0,0.0,0.0,0.0,0.0,0.0,0.0,0.0,0.0,0.0,0.0,0.0,0.0,0.0,0.0,0.0,0.0,0.0,0.0,0.0,0.0,0.0,0.0,0.0,0.0,0.0,0.0,0.0,0.0,0.0,0.0,0.0,0.0,0.0,0.0,0.0,0.0,0.0,0.0,0.0,0.0,0.0,0.0,0.0,0.0,0.0,0.0,0.0,0.0,0.0,0.0,0.0,0.0,0.0,0.0,0.0,0.0,0.0,0.0,0.0,0.0,0.0,0.0,0.0,0.0,0.0,0.0,0.0,0.0,0.0,0.0,0.0,0.0,0.0,0.0,0.0,0.0,0.0,0.0,0.0,0.0,0.0,0.0,0.0,0.0,0.0,0.0,0.0,0.0,0.0,0.0,0.0,0.0,0.0,0.0,0.0,0.0,0.0,0.0,0.0,0.0,0.0,0.0,0.0,0.0,0.0,0.0,0.0,0.0,0.0,0.0,0.0,0.0,0.0,0.0,0.0,0.0,0.0,0.0,0.0,0.0,0.0,0.0,0.0,0.0,0.0,0.0,0.0,0.0,0.0,0.0,0.0,0.0,0.0,0.0,0.0,0.0,0.0,0.0,0.0,0.0,0.0,0.0,0.0,0.0,0.0,0.0,0.0,0.0,0.0,0.0,0.0,0.0,0.0,0.0,0.0,0.0,0.0,0.0,0.0,0.0,0.0,0.0,0.0,0.0,0.0,0.0,0.0,0.0,0.0,0.0,0.0,0.0,0.0,0.0,0.0,0.0,0.0,0.0,0.0,0.0,0.0,0.0,0.0,0.0,0.0,0.0,0.0,0.0,0.0,0.0,0.0,0.0,0.0,0.0,0.0,0.0,0.0,0.0,0.0,0.0,0.0,0.0,0.0,0.0,0.0,0.0,0.0,0.0,0.0,0.0,0.0,0.0,0.0,0.0,0.0,0.0,0.0,0.0,0.0,0.0,0.0,0.0,0.0,0.0,0.0,0.0,0.0,0.0,0.0,0.0,0.0,0.0,0.0,0.0,0.0,0.0,0.0,0.0,0.0,0.0,0.0,0.0,0.0,0.0,0.0,0.0,0.0,0.0,0.0,0.0,0.0,0.0,0.0,0.0,0.0,0.0,0.0,0.0,0.0,0.0,0.0,0.0,0.0,0.0,0.0,0.0,0.0,0.0,0.0,0.0,0.0,0.0,0.0,0.0,0.0,0.0,0.0,0.0,0.0,0.0,0.0,0.0,0.0,0.0,0.0,0.0,0.0,0.0,0.0,0.0,0.0,0.0,0.0,0.0,0.0,0.0,0.0,0.0,0.0,0.0,0.0,0.0,0.0,0.0,0.0,0.0,0.0,0.0,0.0,0.0,0.0,0.0,0.0,0.0,0.0,0.0,0.0,0.0,0.0,0.0,0.0,0.0,0.0,0.0,0.0,0.0,0.0,0.0,0.0,0.0,0.0,0.0,0.0,0.0,0.0,0.0,0.0,0.0,0.0,0.0,0.0,0.0,0.0,0.0,0.0,0.0,0.0,0.0,0.0,0.0,0.0,0.0,0.0,0.0,0.0,0.0,0.0,0.0,0.0,0.0,0.0,0.0,-0.4057,0.0,0.0,0.0,0.0,0.0,0.0,0.0,0.0,0.0,0.0,0.0,0.0,0.0,0.0,0.0,0.0,0.0,0.0,0.0,0.0,0.0,0.0,0.0,0.0,0.0,0.0,0.0,0.0,0.0,0.0,0.0,0.0,0.0,0.0,0.0,0.0,0.0,0.0,0.0,0.0,0.0,0.0,0.0,0.0,0.0,0.0,0.0,0.0,0.0,0.0,0.0,0.0,0.0,0.0,0.0,0.0,0.0,0.0,0.0,0.0,0.0,0.0,0.0,0.0,0.0,0.0,0.0,0.0,0.0,0.0,0.0,0.0,0.0,0.0,0.0,0.0,0.0,0.0,0.0,0.0,0.0,0.0,0.0,0.0,0.0,0.0,0.0,0.0,0.0,0.0,0.0,0.0,0.0,0.0,0.0,0.0,0.0,0.0,0.0,0.0,0.0,0.0,0.0,0.0,0.0,0.0,0.0,0.0,0.0,0.0,-0.3308,-0.3821,-0.3894,-0.4139,-0.4506,0.0,0.0,0.0,0.0,0.0,0.0,0.0,0.0,0.0,0.0,0.0,0.0,0.0,0.0,0.0,0.0,0.0,0.0,0.0,0.0,0.0,0.0,0.0,0.0,0.0,0.0,0.0,0.0,0.0,0.0,0.0,0.0,0.0,0.0,0.0,0.0,0.0,0.0,0.0,0.0,0.0,0.0,0.0,0.0,0.0,0.0,0.0,0.0,0.0,0.0,0.0,0.0,0.0,0.0,0.0,0.0,0.0,0.0,0.0,0.0,0.0,0.0,0.0,0.0,0.0,0.0,0.0,0.0,0.0,0.0,0.0,0.0,0.0,0.0,0.0,0.0,0.0,0.0,0.0,0.0,0.0,0.0,0.0,0.0,0.0,0.0,0.0,0.0,0.0,0.0,0.0,0.0,0.0,0.0,0.0,0.0,0.0,0.0,0.0,0.0,0.0,0.0,0.0,0.0,0.0,0.0,0.0,0.0,0.0,0.0,0.0,0.0,-0.4398,-0.4569,-0.4794,0.0,0.0,0.0,0.0,0.0,0.0,0.0,0.0,0.0,0.0,0.0,0.0,0.0,0.0,0.0,0.0,0.0,0.0,0.0,0.0,0.0,0.0,0.0,0.0,0.0,0.0,0.0,0.0,0.0,0.0,0.0,0.0,0.0,0.0,0.0,0.0,0.0,0.0,0.0,0.0,0.0,0.0,0.0,0.0,0.0,0.0,0.0,0.0,0.0,0.0,0.0,0.0,0.0,0.0,0.0,0.0,0.0,0.0,0.0,0.0,0.0,0.0,0.0,0.0,0.0,0.0,0.0,0.0,0.0,0.0,0.0,0.0,0.0,0.0,0.0,0.0,0.0,0.0,0.0,0.0,0.0,0.0,0.0,0.0,0.0,0.0,0.0,0.0,0.0,0.0,0.0,0.0,0.0,0.0,0.0,0.0,0.0,0.0,0.0,0.0,0.0,0.0,0.0,0.0,0.0,0.0,0.0,0.0,0.0,0.0,-0.4104,-0.4463,-0.4538,0.0,-0.4522,0.0,0.0,0.0,0.0,0.0,0.0,0.0,0.0,0.0,0.0,0.0,0.0,0.0,0.0,0.0,0.0,0.0,0.0,0.0,0.0,0.0,0.0,0.0,0.0,0.0,0.0,0.0,0.0,0.0,0.0,0.0,0.0,0.0,0.0,0.0,0.0,0.0,0.0,0.0,0.0,0.0,0.0,0.0,0.0,0.0,0.0,0.0,0.0,0.0,0.0,0.0,0.0,0.0,0.0,0.0,0.0,0.0,0.0,0.0,0.0,0.0,0.0,0.0,0.0,0.0,0.0,0.0,0.0,0.0,0.0,0.0,0.0,0.0,0.0,0.0,0.0,0.0,0.0,0.0,0.0,0.0,0.0,0.0,0.0,0.0,0.0,0.0,0.0,0.0,0.0,0.0,0.0,0.0,0.0,0.0,0.0,0.0,0.0,0.0,0.0,0.0,0.0,0.0,0.0,0.0,0.0,0.0,0.0,0.0,0.0,-0.4482,-0.4908,-0.5098,-0.5045,0.0,0.0,0.0,0.0,0.0,0.0,0.0,0.0,0.0,0.0,0.0,0.0,0.0,0.0,0.0,0.0,0.0,0.0,0.0,0.0,0.0,0.0,0.0,0.0,0.0,0.0,0.0,0.0,0.0,0.0,0.0,0.0,0.0,0.0,0.0,0.0,0.0,0.0,0.0,0.0,0.0,0.0,0.0,0.0,0.0,0.0,0.0,0.0,0.0,0.0,0.0,0.0,0.0,0.0,0.0,0.0,0.0,0.0,0.0,0.0,0.0,0.0,0.0,0.0,0.0,0.0,0.0,0.0,0.0,0.0,0.0,0.0,0.0,0.0,0.0,0.0,0.0,0.0,0.0,0.0,0.0,0.0,0.0,0.0,0.0,0.0,0.0,0.0,0.0,0.0,0.0,0.0,0.0,0.0,0.0,0.0,0.0,0.0,0.0,0.0,0.0,0.0,0.0,0.0,0.0,0.0,0.0,0.0,0.0,0.0,-0.4263,-0.4886,-0.5299,-0.5497,-0.5329,-0.4824,0.0,0.0,0.0,0.0,0.0,0.0,0.0,0.0,0.0,0.0,0.0,0.0,0.0,0.0,0.0,0.0,0.0,0.0,0.0,0.0,0.0,0.0,0.0,0.0,0.0,0.0,0.0,0.0,0.0,0.0,0.0,0.0,0.0,0.0,0.0,0.0,0.0,0.0,0.0,0.0,0.0,0.0,0.0,0.0,0.0,0.0,0.0,0.0,0.0,0.0,0.0,0.0,0.0,0.0,0.0,0.0,0.0,0.0,0.0,0.0,0.0,0.0,0.0,0.0,0.0,0.0,0.0,0.0,0.0,0.0,0.0,0.0,0.0,0.0,0.0,0.0,0.0,0.0,0.0,0.0,0.0,0.0,0.0,0.0,0.0,0.0,0.0,0.0,0.0,0.0,0.0,0.0,0.0,0.0,0.0,0.0,0.0,0.0,0.0,0.0,0.0,0.0,0.0,0.0,0.0,0.0,0.0,0.0,0.0,-0.4708,-0.5299,-0.5587,-0.5583,-0.5356,0.0,0.0,0.0,0.0,0.0,0.0,0.0,0.0,0.0,0.0,0.0,0.0,0.0,0.0,0.0,0.0,0.0,0.0,0.0,0.0,0.0,0.0,0.0,0.0,0.0,0.0,0.0,0.0,0.0,0.0,0.0,0.0,0.0,0.0,0.0,0.0,0.0,0.0,0.0,0.0,0.0,0.0,0.0,0.0,0.0,0.0,0.0,0.0,0.0,0.0,0.0,0.0,0.0,0.0,0.0,0.0,0.0,0.0,0.0,0.0,0.0,0.0,0.0,0.0,0.0,0.0,0.0,0.0,0.0,0.0,0.0,0.0,0.0,0.0,0.0,0.0,0.0,0.0,0.0,0.0,0.0,0.0,0.0,0.0,0.0,0.0,0.0,0.0,0.0,0.0,0.0,0.0,0.0,0.0,0.0,0.0,0.0,0.0,0.0,0.0,0.0,0.0,0.0,0.0,0.0,0.0,0.0,0.0,0.0,-0.3786,-0.4941,-0.5608,-0.5761,-0.5791,-0.5478,0.0,0.0,0.0,0.0,0.0,0.0,0.0,0.0,0.0,0.0,0.0,0.0,0.0,0.0,0.0,0.0,0.0,0.0,0.0,0.0,0.0,0.0,0.0,0.0,0.0,0.0,0.0,0.0,0.0,0.0,0.0,0.0,0.0,0.0,0.0,0.0,0.0,0.0,0.0,0.0,0.0,0.0,0.0,0.0,0.0,0.0,0.0,0.0,0.0,0.0,0.0,0.0,0.0,0.0,0.0,0.0,0.0,0.0,0.0,0.0,0.0,0.0,0.0,0.0,0.0,0.0,0.0,0.0,0.0,0.0,0.0,0.0,0.0,0.0,0.0,0.0,0.0,0.0,0.0,0.0,0.0,0.0,0.0,0.0,0.0,0.0,0.0,0.0,0.0,0.0,0.0,0.0,0.0,0.0,0.0,0.0,0.0,0.0,0.0,0.0,0.0,0.0,0.0,0.0,0.0,0.0,0.0,0.0,0.0,-0.4257,0.0,-0.5904,0.0,-0.5951,-0.5575,0.0,0.0,0.0,0.0,0.0,0.0,0.0,0.0,0.0,0.0,0.0,0.0,0.0,0.0,0.0,0.0,0.0,0.0,0.0,0.0,0.0,0.0,0.0,0.0,0.0,0.0,0.0,0.0,0.0,0.0,0.0,0.0,0.0,0.0,0.0,0.0,0.0,0.0,0.0,0.0,0.0,0.0,0.0,0.0,0.0,0.0,0.0,0.0,0.0,0.0,0.0,0.0,0.0,0.0,0.0,0.0,0.0,0.0,0.0,0.0,0.0,0.0,0.0,0.0,0.0,0.0,0.0,0.0,0.0,0.0,0.0,0.0,0.0,0.0,0.0,0.0,0.0,0.0,0.0,0.0,0.0,0.0,0.0,0.0,0.0,0.0,0.0,0.0,0.0,0.0,0.0,0.0,0.0,0.0,0.0,0.0,0.0,0.0,0.0,0.0,0.0,0.0,0.0,0.0,0.0,0.0,0.0,0.0,-0.427,-0.5351,-0.5899,-0.6188,-0.6211,-0.602,-0.5669,0.0,0.0,0.0,0.0,0.0,0.0,0.0,0.0,0.0,0.0,0.0,0.0,0.0,0.0,0.0,0.0,0.0,0.0,0.0,0.0,0.0,0.0,0.0,0.0,0.0,0.0,0.0,0.0,0.0,0.0,0.0,0.0,0.0,0.0,0.0,0.0,0.0,0.0,0.0,0.0,0.0,0.0,0.0,0.0,0.0,0.0,0.0,0.0,0.0,0.0,0.0,0.0,0.0,0.0,0.0,0.0,0.0,0.0,0.0,0.0,0.0,0.0,0.0,0.0,0.0,0.0,0.0,0.0,0.0,0.0,0.0,0.0,0.0,0.0,0.0,0.0,0.0,0.0,0.0,0.0,0.0,0.0,0.0,0.0,0.0,0.0,0.0,0.0,0.0,0.0,0.0,0.0,0.0,0.0,0.0,0.0,0.0,0.0,0.0,0.0,0.0,0.0,0.0,0.0,0.0,0.0,0.0,0.0,0.0,-0.5732,-0.6259,-0.6453,-0.6335,-0.6192,-0.5845,0.0,0.0,0.0,0.0,0.0,0.0,0.0,0.0,0.0,0.0,0.0,0.0,0.0,0.0,0.0,0.0,0.0,0.0,0.0,0.0,0.0,0.0,0.0,0.0,0.0,0.0,0.0,0.0,0.0,0.0,0.0,0.0,0.0,0.0,0.0,0.0,0.0,0.0,0.0,0.0,0.0,0.0,0.0,0.0,0.0,0.0,0.0,0.0,0.0,0.0,0.0,0.0,0.0,0.0,0.0,0.0,0.0,0.0,0.0,0.0,0.0,0.0,0.0,0.0,0.0,0.0,0.0,0.0,0.0,0.0,0.0,0.0,0.0,0.0,0.0,0.0,0.0,0.0,0.0,0.0,0.0,0.0,0.0,0.0,0.0,0.0,0.0,0.0,0.0,0.0,0.0,0.0,0.0,0.0,0.0,0.0,0.0,0.0,0.0,0.0,0.0,0.0,0.0,0.0,0.0,0.0,0.0,0.0,0.0,-0.647,-0.675,-0.683,-0.6721,-0.6481,-0.6099,-0.5547,0.0,0.0,0.0,0.0,0.0,0.0,0.0,0.0,0.0,0.0,0.0,0.0,0.0,0.0,0.0,0.0,0.0,0.0,0.0,0.0,0.0,0.0,0.0,0.0,0.0,0.0,0.0,0.0,0.0,0.0,0.0,0.0,0.0,0.0,0.0,0.0,0.0,0.0,0.0,0.0,0.0,0.0,0.0,0.0,0.0,0.0,0.0,0.0,0.0,0.0,0.0,0.0,0.0,0.0,0.0,0.0,0.0,0.0,0.0,0.0,0.0,0.0,0.0,0.0,0.0,0.0,0.0,0.0,0.0,0.0,0.0,0.0,0.0,0.0,0.0,0.0,0.0,0.0,0.0,0.0,0.0,0.0,0.0,0.0,0.0,0.0,0.0,0.0,0.0,0.0,0.0,0.0,0.0,0.0,0.0,0.0,0.0,0.0,0.0,0.0,0.0,0.0,0.0,0.0,0.0,0.0,0.0,0.0,-0.7513,-0.7383,-0.726,-0.7227,-0.6903,-0.649,0.0,0.0,0.0,0.0,0.0,0.0,0.0,0.0,0.0,0.0,0.0,0.0,0.0,0.0,0.0,0.0,0.0,0.0,0.0,0.0,0.0,0.0,0.0,0.0,0.0,0.0,0.0,0.0,0.0,0.0,0.0,0.0,0.0,0.0,0.0,0.0,0.0,0.0,0.0,0.0,0.0,0.0,0.0,0.0,0.0,0.0,0.0,0.0,0.0,0.0,0.0,0.0,0.0,0.0,0.0,0.0,0.0,0.0,0.0,0.0,0.0,0.0,0.0,0.0,0.0,0.0,0.0,0.0,0.0,0.0,0.0,0.0,0.0,0.0,0.0,0.0,0.0,0.0,0.0,0.0,0.0,0.0,0.0,0.0,0.0,0.0,0.0,0.0,0.0,0.0,0.0,0.0,0.0,0.0,0.0,0.0,0.0,0.0,0.0,0.0,0.0,0.0,0.0,0.0,0.0,0.0,0.0,0.0,0.0,-0.7675,-0.8042,-0.8085,-0.7805,-0.7208,-0.6731,0.0,0.0,0.0,0.0,0.0,0.0,0.0,0.0,0.0,0.0,0.0,0.0,0.0,0.0,0.0,0.0,0.0,0.0,0.0,0.0,0.0,0.0,0.0,0.0,0.0,0.0,0.0,0.0,0.0,0.0,0.0,0.0,0.0,0.0,0.0,0.0,0.0,0.0,0.0,0.0,0.0,0.0,0.0,0.0,0.0,0.0,0.0,0.0,0.0,0.0,0.0,0.0,0.0,0.0,0.0,0.0,0.0,0.0,0.0,0.0,0.0,0.0,0.0,0.0,0.0,0.0,0.0,0.0,0.0,0.0,0.0,0.0,0.0,0.0,0.0,0.0,0.0,0.0,0.0,0.0,0.0,0.0,0.0,0.0,0.0,0.0,0.0,0.0,0.0,0.0,0.0,0.0,0.0,0.0,0.0,0.0,0.0,0.0,0.0,0.0,0.0,0.0,0.0,0.0,0.0,0.0,0.0,0.0,-0.7371,-0.8212,-0.8597,-0.869,-0.8475,-0.7776,-0.72,0.0,0.0,0.0,0.0,0.0,0.0,0.0,0.0,0.0,0.0,0.0,0.0,0.0,0.0,0.0,0.0,0.0,0.0,0.0,0.0,0.0,0.0,0.0,0.0,0.0,0.0,0.0,0.0,0.0,0.0,0.0,0.0,0.0,0.0,0.0,0.0,0.0,0.0,0.0,0.0,0.0,0.0,0.0,0.0,0.0,0.0,0.0,0.0,0.0,0.0,0.0,0.0,0.0,0.0,0.0,0.0,0.0,0.0,0.0,0.0,0.0,0.0,0.0,0.0,0.0,0.0,0.0,0.0,0.0,0.0,0.0,0.0,0.0,0.0,0.0,0.0,0.0,0.0,0.0,0.0,0.0,0.0,0.0,0.0,0.0,0.0,0.0,0.0,0.0,0.0,0.0,0.0,0.0,0.0,0.0,0.0,0.0,0.0,0.0,0.0,0.0,0.0,0.0,0.0,0.0,0.0,0.0,0.0,-0.7841,-0.8755,-0.9019,-0.9125,-0.9104,-0.8402,-0.7687,0.0,0.0,0.0,0.0,0.0,0.0,0.0,0.0,0.0,0.0,0.0,0.0,0.0,0.0,0.0,0.0,0.0,0.0,0.0,0.0,0.0,0.0,0.0,0.0,0.0,0.0,0.0,0.0,0.0,0.0,0.0,0.0,0.0,0.0,0.0,0.0,0.0,0.0,0.0,0.0,0.0,0.0,0.0,0.0,0.0,0.0,0.0,0.0,0.0,0.0,0.0,0.0,0.0,0.0,0.0,0.0,0.0,0.0,0.0,0.0,0.0,0.0,0.0,0.0,0.0,0.0,0.0,0.0,0.0,0.0,0.0,0.0,0.0,0.0,0.0,0.0,0.0,0.0,0.0,0.0,0.0,0.0,0.0,0.0,0.0,0.0,0.0,0.0,0.0,0.0,0.0,0.0,0.0,0.0,0.0,0.0,0.0,0.0,0.0,0.0,0.0,0.0,0.0,0.0,0.0,0.0,0.0,0.0,-0.8157,-0.8804,-0.9133,-0.9347,-0.9343,-0.8467,-0.7748,0.0,0.0,0.0,0.0,0.0,0.0,0.0,0.0,0.0,0.0,0.0,0.0,0.0,0.0,0.0,0.0,0.0,0.0,0.0,0.0,0.0,0.0,0.0,0.0,0.0,0.0,0.0,0.0,0.0,0.0,0.0,0.0,0.0,0.0,0.0,0.0,0.0,0.0,0.0,0.0,0.0,0.0,0.0,0.0,0.0,0.0,0.0,0.0,-0.6879,0.0,0.0,0.0,0.0,0.0,0.0,0.0,0.0,0.0,0.0,0.0,0.0,0.0,0.0,0.0,0.0,0.0,0.0,0.0,0.0,0.0,0.0,0.0,0.0,0.0,0.0,0.0,0.0,0.0,0.0,0.0,0.0,0.0,0.0,0.0,0.0,0.0,0.0,0.0,0.0,0.0,0.0,0.0,0.0,0.0,0.0,0.0,0.0,0.0,0.0,0.0,0.0,0.0,0.0,0.0,0.0,0.0,0.0,0.0,-0.8406,-0.8938,-0.9299,-0.949,-0.938,-0.8649,-0.8024,0.0,0.0,0.0,0.0,0.0,0.0,0.0,0.0,0.0,0.0,0.0,0.0,0.0,0.0,0.0,0.0,0.0,0.0,0.0,0.0,0.0,0.0,0.0,0.0,0.0,0.0,0.0,0.0,0.0,0.0,0.0,0.0,0.0,0.0,0.0,0.0,0.0,0.0,0.0,0.0,0.0,0.0,0.0,0.0,0.0,0.0,0.0,0.0,0.0,0.0,0.0,0.0,0.0,0.0,0.0,0.0,0.0,0.0,0.0,0.0,0.0,0.0,0.0,0.0,0.0,0.0,0.0,0.0,0.0,0.0,0.0,0.0,0.0,0.0,0.0,0.0,0.0,0.0,0.0,0.0,0.0,0.0,0.0,0.0,0.0,0.0,0.0,0.0,0.0,0.0,0.0,0.0,0.0,0.0,0.0,0.0,0.0,0.0,0.0,0.0,0.0,0.0,0.0,0.0,0.0,0.0,0.0,-0.7878,-0.858,-0.9084,-0.9445,-0.9543,-0.9404,-0.891,-0.838,-0.7816,0.0,0.0,0.0,0.0,0.0,0.0,0.0,0.0,0.0,0.0,0.0,0.0,0.0,0.0,0.0,0.0,0.0,0.0,0.0,0.0,0.0,0.0,0.0,0.0,0.0,0.0,0.0,0.0,0.0,0.0,0.0,0.0,0.0,0.0,0.0,0.0,0.0,0.0,-0.5349,-0.5579,0.0,0.0,0.0,0.0,0.0,0.0,0.0,0.0,-0.8723,0.0,0.0,0.0,0.0,0.0,0.0,0.0,0.0,0.0,0.0,0.0,0.0,0.0,0.0,0.0,0.0,0.0,0.0,0.0,0.0,0.0,0.0,0.0,0.0,0.0,0.0,0.0,0.0,0.0,0.0,0.0,0.0,0.0,0.0,0.0,0.0,0.0,0.0,0.0,0.0,0.0,0.0,0.0,0.0,0.0,0.0,0.0,0.0,0.0,0.0,0.0,0.0,0.0,0.0,0.0,0.0,-0.7179,-0.8065,-0.8706,-0.9092,-0.9397,-0.9543,-0.94,-0.8978,-0.8459,-0.7812,0.0,0.0,0.0,0.0,0.0,0.0,0.0,0.0,0.0,0.0,0.0,0.0,0.0,0.0,0.0,0.0,0.0,0.0,0.0,0.0,0.0,0.0,0.0,0.0,0.0,0.0,0.0,0.0,0.0,0.0,0.0,0.0,0.0,0.0,0.0,0.0,0.0,0.0,0.0,-0.6083,-0.6168,0.0,0.0,0.0,0.0,0.0,0.0,0.0,0.0,-1.017,0.0,0.0,0.0,0.0,0.0,0.0,0.0,0.0,0.0,0.0,0.0,0.0,0.0,0.0,0.0,0.0,0.0,0.0,0.0,0.0,0.0,0.0,0.0,0.0,0.0,0.0,0.0,0.0,0.0,0.0,0.0,0.0,0.0,0.0,0.0,0.0,0.0,0.0,0.0,0.0,0.0,0.0,0.0,0.0,0.0,0.0,0.0,0.0,0.0,0.0,0.0,0.0,0.0,0.0,0.0,-0.7199,-0.8113,-0.8784,-0.9092,-0.9445,-0.9543,-0.94,-0.8967,-0.8353,0.0,0.0,0.0,0.0,0.0,0.0,0.0,0.0,0.0,0.0,0.0,0.0,0.0,0.0,0.0,0.0,0.0,0.0,0.0,0.0,0.0,0.0,0.0,0.0,0.0,0.0,0.0,0.0,0.0,0.0,0.0,0.0,0.0,0.0,0.0,0.0,0.0,0.0,0.0,0.0,-0.6331,-0.6593,-0.6614,0.0,0.0,0.0,0.0,0.0,0.0,-1.0629,-1.0921,0.0,0.0,0.0,0.0,0.0,0.0,0.0,0.0,0.0,0.0,0.0,0.0,0.0,0.0,0.0,0.0,0.0,0.0,0.0,0.0,0.0,0.0,0.0,0.0,0.0,0.0,0.0,0.0,0.0,0.0,0.0,0.0,0.0,0.0,0.0,0.0,0.0,0.0,0.0,0.0,0.0,0.0,0.0,0.0,0.0,0.0,0.0,0.0,0.0,0.0,0.0,0.0,0.0,0.0,0.0,-0.7248,-0.813,-0.8739,-0.9092,-0.9445,-0.9522,-0.9351,-0.8869,-0.8211,0.0,0.0,0.0,0.0,0.0,0.0,0.0,0.0,0.0,0.0,0.0,0.0,0.0,0.0,0.0,0.0,0.0,0.0,0.0,0.0,0.0,0.0,0.0,0.0,0.0,0.0,0.0,0.0,0.0,0.0,0.0,0.0,0.0,0.0,0.0,0.0,0.0,0.0,0.0,0.0,0.0,-0.7014,-0.7303,-0.7785,0.0,0.0,0.0,0.0,-1.1223,-1.1486,0.0,0.0,0.0,0.0,0.0,0.0,0.0,0.0,0.0,0.0,0.0,0.0,0.0,0.0,0.0,0.0,0.0,0.0,0.0,0.0,0.0,0.0,0.0,0.0,0.0,0.0,0.0,0.0,0.0,0.0,0.0,0.0,0.0,0.0,0.0,0.0,0.0,0.0,0.0,0.0,0.0,0.0,0.0,0.0,0.0,0.0,0.0,0.0,0.0,0.0,0.0,0.0,0.0,0.0,0.0,0.0,-0.7447,-0.8191,-0.8739,-0.9092,-0.9445,-0.9466,-0.9133,-0.8763,-0.8154,0.0,0.0,0.0,0.0,0.0,0.0,0.0,0.0,0.0,0.0,0.0,0.0,0.0,0.0,0.0,0.0,0.0,0.0,0.0,0.0,0.0,0.0,0.0,0.0,0.0,0.0,0.0,0.0,0.0,0.0,0.0,0.0,0.0,0.0,0.0,0.0,0.0,0.0,0.0,0.0,0.0,-0.7498,-0.756,-0.849,-0.9314,0.0,0.0,-1.1354,-1.198,-1.2421,0.0,0.0,0.0,0.0,0.0,0.0,0.0,0.0,0.0,0.0,0.0,0.0,0.0,0.0,0.0,0.0,0.0,0.0,0.0,0.0,0.0,0.0,0.0,0.0,0.0,0.0,0.0,0.0,0.0,0.0,0.0,0.0,0.0,0.0,0.0,0.0,0.0,0.0,0.0,0.0,0.0,0.0,0.0,0.0,0.0,0.0,0.0,0.0,0.0,0.0,0.0,0.0,0.0,0.0,0.0,-0.6626,-0.7472,-0.8093,-0.8633,-0.908,-0.9246,-0.9254,-0.91,-0.8649,-0.7988,0.0,0.0,0.0,0.0,0.0,0.0,0.0,0.0,0.0,0.0,0.0,0.0,0.0,0.0,0.0,0.0,0.0,0.0,0.0,0.0,0.0,0.0,0.0,0.0,0.0,0.0,0.0,0.0,0.0,0.0,0.0,0.0,0.0,0.0,0.0,0.0,0.0,0.0,0.0,0.0,0.0,0.0,-0.8527,-0.9399,0.0,0.0,0.0,-1.232,-1.2817,0.0,0.0,0.0,0.0,0.0,0.0,0.0,0.0,0.0,0.0,0.0,0.0,0.0,0.0,0.0,0.0,0.0,0.0,0.0,0.0,0.0,0.0,0.0,0.0,0.0,0.0,0.0,0.0,0.0,0.0,0.0,0.0,0.0,0.0,0.0,0.0,0.0,0.0,0.0,0.0,0.0,0.0,0.0,0.0,0.0,0.0,0.0,0.0,0.0,0.0,0.0,0.0,0.0,0.0,0.0,0.0,0.0,-0.7403,-0.7975,-0.8528,-0.9007,-0.9076,-0.9076,-0.9023,-0.8548,0.0,0.0,0.0,0.0,0.0,0.0,0.0,0.0,0.0,0.0,0.0,0.0,0.0,0.0,0.0,0.0,0.0,0.0,0.0,0.0,0.0,0.0,0.0,0.0,0.0,0.0,0.0,-0.3747,0.0,0.0,0.0,0.0,0.0,0.0,0.0,0.0,0.0,0.0,0.0,0.0,0.0,0.0,-0.8894,-0.9642,-1.0547,-1.1275,0.0,0.0,-1.3349,-1.3644,-1.3801,-1.3778,0.0,0.0,0.0,0.0,0.0,0.0,0.0,0.0,0.0,0.0,0.0,0.0,0.0,0.0,0.0,0.0,0.0,0.0,0.0,0.0,0.0,0.0,0.0,0.0,0.0,0.0,0.0,0.0,0.0,0.0,0.0,0.0,0.0,0.0,0.0,0.0,0.0,0.0,0.0,0.0,0.0,0.0,0.0,0.0,0.0,0.0,0.0,0.0,0.0,0.0,0.0,0.0,0.0,0.0,0.0,-0.7211,-0.7934,-0.8467,-0.8828,-0.9007,-0.9015,-0.8795,-0.8483,-0.7951,0.0,0.0,0.0,0.0,0.0,0.0,0.0,0.0,0.0,0.0,0.0,0.0,0.0,0.0,0.0,0.0,0.0,0.0,0.0,0.0,0.0,0.0,0.0,0.0,0.0,0.0,0.0,0.0,0.0,0.0,0.0,0.0,0.0,0.0,0.0,0.0,0.0,0.0,0.0,0.0,0.0,-0.9952,-1.0605,-1.2015,-1.3044,0.0,0.0,-1.4494,-1.4532,-1.4493,-1.4246,-1.3673,0.0,0.0,0.0,0.0,0.0,0.0,0.0,0.0,0.0,0.0,0.0,0.0,0.0,0.0,0.0,0.0,0.0,0.0,0.0,0.0,0.0,0.0,0.0,0.0,0.0,0.0,0.0,0.0,0.0,0.0,0.0,0.0,0.0,0.0,0.0,0.0,0.0,0.0,0.0,0.0,0.0,0.0,0.0,0.0,0.0,0.0,0.0,0.0,0.0,0.0,0.0,0.0,0.0,-0.6139,-0.7173,-0.7785,-0.8345,-0.875,-0.8787,-0.8787,-0.8775,-0.8365,-0.7837,0.0,0.0,0.0,0.0,0.0,0.0,0.0,0.0,0.0,0.0,0.0,0.0,0.0,0.0,0.0,0.0,0.0,0.0,0.0,0.0,0.0,0.0,0.0,0.0,0.0,0.0,0.0,0.0,-0.5399,-0.6054,-0.6623,0.0,0.0,0.0,0.0,0.0,0.0,0.0,0.0,0.0,0.0,-1.1046,-1.1744,-1.2848,0.0,0.0,-1.4475,-1.4904,-1.4911,-1.4849,-1.4649,-1.4206,-1.354,0.0,0.0,0.0,0.0,0.0,0.0,0.0,0.0,0.0,0.0,0.0,0.0,0.0,0.0,0.0,0.0,0.0,0.0,0.0,0.0,0.0,0.0,0.0,0.0,0.0,0.0,0.0,0.0,0.0,0.0,0.0,0.0,0.0,0.0,0.0,0.0,0.0,0.0,0.0,0.0,0.0,0.0,0.0,0.0,0.0,0.0,0.0,0.0,0.0,0.0,0.0,0.0,-0.5996,-0.7134,-0.7713,-0.8247,-0.8735,-0.8673,-0.8621,-0.8723,-0.8272,-0.7813,0.0,0.0,0.0,0.0,0.0,0.0,0.0,0.0,0.0,0.0,0.0,0.0,0.0,0.0,0.0,0.0,0.0,0.0,0.0,0.0,0.0,0.0,0.0,0.0,0.0,0.0,0.0,0.0,-0.5475,-0.6103,-0.6681,0.0,0.0,0.0,0.0,0.0,0.0,0.0,0.0,0.0,0.0,-1.2128,-1.2913,-1.3814,-1.4427,-1.4616,-1.5015,-1.5292,-1.5338,-1.5192,-1.5035,-1.4696,0.0,0.0,0.0,0.0,0.0,0.0,0.0,0.0,0.0,0.0,0.0,0.0,0.0,0.0,0.0,0.0,0.0,0.0,0.0,0.0,0.0,0.0,0.0,0.0,0.0,0.0,0.0,0.0,0.0,0.0,0.0,0.0,0.0,0.0,0.0,0.0,0.0,0.0,0.0,0.0,0.0,0.0,0.0,0.0,0.0,0.0,0.0,0.0,0.0,0.0,0.0,0.0,0.0,-0.5863,-0.7011,-0.7672,-0.8195,-0.8564,-0.8616,-0.8616,-0.8616,-0.8211,-0.7927,-0.7775,0.0,0.0,0.0,0.0,0.0,0.0,0.0,0.0,0.0,0.0,0.0,0.0,0.0,0.0,0.0,0.0,0.0,0.0,0.0,0.0,0.0,0.0,0.0,0.0,0.0,0.0,-0.5018,-0.5597,-0.6095,0.0,0.0,0.0,0.0,0.0,0.0,0.0,0.0,0.0,0.0,-1.2228,-1.3227,-1.4127,-1.4961,-1.5447,-1.546,-1.5663,-1.5764,-1.5758,-1.5571,-1.5291,0.0,0.0,0.0,0.0,0.0,0.0,0.0,0.0,0.0,0.0,0.0,0.0,0.0,0.0,0.0,0.0,0.0,0.0,0.0,0.0,0.0,0.0,0.0,0.0,0.0,0.0,0.0,-0.0495,-0.0502,0.0,0.0,0.0,0.0,0.0,0.0,0.0,0.0,0.0,0.0,0.0,-0.2913,-0.3172,0.0,0.0,0.0,0.0,0.0,0.0,0.0,0.0,0.0,0.0,0.0,0.0,-0.5863,-0.6961,-0.7668,-0.8195,-0.86,-0.8616,-0.8616,-0.8608,-0.8367,-0.7947,-0.7419,0.0,0.0,0.0,0.0,0.0,0.0,0.0,0.0,0.0,0.0,0.0,0.0,0.0,0.0,0.0,0.0,0.0,0.0,0.0,0.0,0.0,0.0,0.0,0.0,0.0,-0.5298,0.0,0.0,0.0,0.0,0.0,0.0,0.0,0.0,0.0,0.0,0.0,-1.1262,-1.2199,-1.3342,-1.4276,-1.4738,-1.5316,-1.5683,0.0,0.0,0.0,0.0,0.0,0.0,0.0,0.0,0.0,0.0,0.0,0.0,0.0,0.0,-1.2981,-1.2068,-1.1909,-1.1903,-1.1909,0.0,0.0,0.0,0.0,0.0,0.0,0.0,0.0,0.0,0.0,0.0,0.0,0.0,0.0,-0.073,0.0,-0.0725,0.0,0.0,0.0,0.0,0.0,0.0,0.0,0.0,-0.1944,-0.2431,-0.3052,-0.3279,-0.3534,0.0,-0.3908,-0.3754,0.0,0.0,0.0,0.0,0.0,0.0,0.0,0.0,-0.6033,-0.7056,-0.7764,-0.826,-0.8596,-0.8616,-0.8616,-0.8612,-0.839,-0.7979,-0.7296,-0.6771,-0.6262,0.0,0.0,0.0,0.0,0.0,0.0,0.0,0.0,0.0,0.0,0.0,0.0,0.0,0.0,0.0,0.0,0.0,0.0,0.0,0.0,0.0,0.0,0.0,-0.5612,0.0,0.0,0.0,0.0,0.0,0.0,0.0,0.0,0.0,-1.0366,-1.1363,-1.2392,-1.3328,-1.428,-1.4943,-1.5272,0.0,0.0,0.0,0.0,0.0,0.0,0.0,-1.5683,-1.5583,-1.5444,-1.5192,-1.4858,-1.4577,-1.4523,-1.4754,0.0,0.0,-1.3581,-1.34,-1.3407,-1.34,-1.34,-1.3501,-1.3761,-1.3901,-1.4021,0.0,0.0,0.0,0.0,0.0,0.0,0.0,0.0,-0.0897,-0.101,0.0,-0.096,0.0,0.0,0.0,0.0,0.0,-0.1109,0.0,0.0,-0.1859,-0.2346,-0.2961,-0.3244,-0.3643,-0.4172,-0.4417,-0.4642,-0.4877,-0.3781,0.0,0.0,0.0,0.0,0.0,0.0,-0.6406,-0.7226,-0.7935,-0.8377,-0.8604,-0.8616,-0.8616,-0.8612,-0.8385,-0.8044,-0.7529,-0.7317,-0.686,-0.6161,-0.5785,0.0,0.0,0.0,0.0,0.0,0.0,0.0,0.0,0.0,0.0,0.0,0.0,0.0,0.0,0.0,0.0,0.0,0.0,0.0,0.0,-0.5689,0.0,0.0,0.0,0.0,0.0,0.0,0.0,0.0,0.0,0.0,-1.1531,-1.2289,-1.3195,-1.4538,0.0,0.0,0.0,0.0,-1.5952,-1.6246,-1.6335,-1.6335,-1.6286,-1.6279,-1.6214,-1.5947,0.0,0.0,-1.5479,-1.5219,-1.5124,-1.5403,-1.5434,-1.5214,-1.4696,-1.4508,-1.4488,-1.4482,-1.4488,-1.4632,-1.4957,-1.5211,-1.5398,0.1805,0.0,0.0,0.0,0.0,0.0,-0.0492,-0.0963,-0.118,-0.1252,-0.1226,-0.1197,0.0,0.0,0.0,0.0,0.0,0.0,-0.1453,-0.1732,-0.1825,-0.214,-0.2691,-0.2801,-0.3047,-0.3421,-0.369,-0.3993,-0.4346,-0.4248,-0.4333,-0.4513,0.0,0.0,0.0,0.0,-0.67,-0.7382,-0.798,-0.8377,-0.8608,-0.8616,-0.8616,-0.8612,-0.8433,-0.8154,-0.787,-0.7569,-0.7139,-0.6562,-0.622,0.0,0.0,0.0,0.0,0.0,0.0,0.0,0.0,0.0,0.0,0.0,0.0,0.0,0.0,0.0,0.0,0.0,0.0,0.0,-0.5894,-0.5931,-0.599,0.0,0.0,0.0,0.0,0.0,0.0,0.0,0.0,0.0,-1.2745,-1.3137,-1.3678,0.0,0.0,-1.5575,-1.6106,-1.6146,-1.6253,-1.654,-1.658,0.0,0.0,-1.6317,-1.6192,-1.5958,-1.5909,-1.5878,-1.5745,-1.5675,-1.5707,-1.598,-1.603,-1.596,-1.583,-1.5412,-1.5168,-1.5149,-1.5305,-1.5593,-1.5862,-1.6139,-1.6326,0.2052,0.1783,0.13,0.0851,0.0387,-0.0174,-0.062,-0.0992,-0.1308,-0.1433,-0.1372,-0.1386,-0.1352,-0.1318,-0.1265,0.0,0.0,0.0,-0.1508,-0.1683,-0.1684,-0.1955,-0.2362,-0.2333,-0.2558,-0.2937,-0.3315,-0.3702,-0.408,-0.457,-0.493,-0.522,0.0,0.0,-0.5608,-0.6443,-0.7087,-0.755,-0.812,-0.8498,-0.8608,-0.8616,-0.8616,-0.8608,-0.839,-0.8203,-0.8016,-0.7744,-0.7341,-0.6777,-0.6453,-0.5927,0.0,0.0,0.0,0.0,0.0,0.0,0.0,0.0,0.0,0.0,0.0,-0.4008,-0.4447,0.0,0.0,0.0,-0.543,-0.5906,-0.6363,-0.6433,0.0,0.0,0.0,0.0,0.0,0.0,0.0,-1.0292,-1.0738,-1.1512,-1.2905,-1.3216,-1.3814,-1.5169,-1.5631,-1.5953,-1.642,0.0,-1.6547,-1.684,-1.6779,-1.6627,-1.6488,-1.6388,-1.6195,-1.5931,-1.5873,-1.5873,-1.588,-1.5873,-1.5936,-1.6072,-1.6122,-1.6122,-1.6116,-1.5842,-1.5632,-1.5739,-1.5921,-1.6174,-1.6554,-1.6805,-1.6907,0.2484,0.2067,0.1373,0.0782,0.028,-0.0186,-0.0519,-0.0865,-0.1295,-0.1485,-0.1483,-0.1502,-0.1486,-0.1483,-0.1455,0.0,-0.1403,-0.1461,-0.1487,-0.149,-0.1596,-0.1723,-0.1971,-0.1955,-0.2202,-0.2654,-0.3147,-0.3555,-0.3966,-0.4544,-0.4961,-0.523,-0.5418,-0.5615,-0.5947,-0.6853,-0.7415,-0.7599,-0.8202,-0.8568,-0.8616,-0.8616,-0.8604,-0.8584,-0.8381,-0.8199,-0.7959,-0.7841,-0.7504,-0.6875,-0.6561,-0.6025,-0.5292,0.0,0.0,0.0,0.0,0.0,0.0,0.0,0.0,0.0,0.0,0.0,0.0,0.0,0.0,0.0,-0.6112,0.0,-0.6706,-0.7029,0.0,0.0,0.0,-0.7783,-0.8053,-0.881,-0.9658,-1.0497,0.0,0.0,-1.2354,-1.2746,-1.3599,-1.5511,-1.5985,-1.6325,-1.664,-1.664,-1.6797,-1.709,-1.6878,-1.6672,-1.6626,-1.6394,-1.6162,-1.5943,-1.5885,-1.5914,-1.5908,-1.5908,-1.5879,-1.5921,-1.5885,-1.5933,-1.5885,-1.5902,-1.5966,-1.6172,-1.6238,-1.6483,-1.6911,-1.7074,-1.7167,0.3411,0.2528,0.208,0.1325,0.0354,0.005,-0.0504,-0.1193,-0.1262,-0.1396,-0.1593,-0.1563,-0.1537,-0.1515,-0.146,-0.1453,-0.1495,-0.1533,-0.155,-0.1601,-0.1588,-0.1606,-0.1707,-0.1664,-0.1764,-0.1857,-0.2208,-0.2502,-0.2834,-0.327,-0.3625,-0.3904,-0.4227,-0.4949,-0.6023,-0.6554,-0.697,-0.7304,-0.7941,-0.8384,-0.8616,-0.8616,-0.8539,-0.8361,-0.8316,-0.8054,-0.758,-0.7529,-0.7211,-0.6571,-0.6469,-0.6093,-0.5392,-0.5096,0.0,0.0,0.0,0.0,0.0,0.0,0.0,0.0,0.0,-0.4938,-0.5175,0.0,-0.591,0.0,-0.6543,-0.6881,-0.7007,-0.7231,0.0,0.0,-0.7424,-0.7847,-0.8528,-0.9085,-0.9723,-1.0633,-1.0712,-1.101,-1.2082,-1.2274,-1.2793,-1.4055,-1.4884,-1.5631,-1.6279,-1.6375,-1.6472,-1.6774,-1.6727,-1.6641,-1.643,-1.6162,-1.6004,-1.5885,-1.5885,-1.5885,-1.5885,-1.5885,-1.5885,-1.5885,-1.5885,-1.5885,-1.5885,-1.5885,-1.5927,-1.5966,-1.6166,-1.6349,-1.6477,-1.669,-1.6895,0.4304,0.3475,0.3171,0.2384,0.1341,0.0575,-0.0105,-0.0692,-0.0783,-0.1083,-0.1431,-0.1569,-0.1603,-0.1588,-0.16,-0.1605,-0.1607,-0.1623,-0.163,-0.163,-0.1635,-0.1637,-0.1637,-0.1623,-0.1566,-0.1617,-0.1869,-0.2071,-0.222,-0.2696,-0.2979,-0.3125,-0.3458,-0.4125,-0.5091,-0.5806,-0.632,-0.6812,-0.7585,-0.806,-0.8256,-0.83,-0.821,-0.7994,-0.7958,-0.771,-0.7278,-0.7125,-0.6844,-0.639,-0.624,-0.594,-0.5416,-0.5168,-0.4904,0.0,0.0,0.0,0.0,0.0,0.0,0.0,0.0,0.0,0.0,0.0,-0.6658,-0.6714,-0.699,-0.7153,-0.7291,-0.7499,-0.771,-0.7738,-0.786,-0.8173,-0.883,-0.9192,-0.9682,-1.034,-1.0321,-1.0491,-1.1196,-1.1509,-1.1972,-1.2847,-1.3731,-1.4769,-1.5894,-1.6193,-1.6407,-1.6651,-1.6577,-1.6424,-1.6164,-1.5998,-1.5885,-1.5885,-1.5885,-1.5885,-1.5885,-1.5885,-1.5885,-1.5885,-1.5885,-1.5885,-1.5885,-1.5885,-1.5885,-1.5945,-1.6004,-1.6164,-1.6271,-1.6424,-1.6636,0.5204,0.4646,0.4309,0.3694,0.2851,0.1465,0.059,0.0107,-0.0214,-0.069,-0.1255,-0.1513,-0.1668,-0.1721,-0.169,-0.1699,-0.1699,-0.1695,-0.1693,-0.1692,-0.1668,-0.171,-0.1713,-0.1632,-0.1619,-0.1622,-0.1822,-0.1971,-0.1971,-0.2424,-0.2675,-0.2622,-0.2829,-0.315,-0.3687,-0.4636,-0.5489,-0.6311,-0.7112,-0.7618,-0.7801,-0.7819,-0.7716,-0.7534,-0.7393,-0.7237,-0.7045,-0.6771,-0.6496,-0.6277,-0.6029,-0.5776,-0.5457,-0.527,-0.5046,0.0,-0.4815,0.0,0.0,0.0,0.0,0.0,0.0,0.0,0.0,-0.6897,-0.7288,-0.7431,-0.7405,-0.744,-0.7548,-0.7863,-0.8108,-0.8248,-0.8423,-0.8647,-0.8969,-0.9222,-0.9501,-0.9903,-0.9846,-0.9923,-1.028,-1.0637,-1.1181,-1.1782,-1.259,-1.3701,-1.5131,-1.5826,-1.6146,-1.6471,-1.6371,-1.6158,-1.5998,-1.5885,-1.5885,-1.5885,-1.5885,-1.5885,-1.5885,-1.5885,-1.5885,-1.5885,-1.5885,-1.5885,-1.5885,-1.5885,-1.5885,-1.5885,-1.5885,-1.5998,-1.6164,-1.6217,-1.6318,0.61,0.5543,0.526,0.4758,0.4086,0.3338,0.2165,0.0666,0.0164,-0.0543,-0.1245,-0.1335,-0.1486,-0.1695,-0.1731,-0.1722,-0.1721,-0.1644,-0.1633,-0.1633,-0.1628,-0.1639,-0.1711,-0.1631,-0.163,-0.1702,-0.168,-0.1667,-0.1667,-0.1768,-0.1819,-0.1818,-0.1862,-0.2011,-0.2361,0.0,0.0,0.0,-0.6657,-0.6989,-0.7413,-0.7296,-0.7187,-0.7125,-0.7082,0.0,-0.6698,-0.6626,-0.6419,-0.6071,-0.6009,0.0,0.0,0.0,0.0,0.0,0.0,0.0,0.0,0.0,0.0,0.0,-0.6344,-0.6503,-0.6371,-0.6899,-0.7402,-0.7681,-0.7819,-0.7847,-0.782,-0.8115,-0.8266,-0.8108,-0.8346,-0.864,-0.8866,-0.9131,-0.9343,-0.9552,-0.9519,-0.9614,-0.986,-0.9978,-1.0312,-1.0911,-1.1732,-1.255,-1.3359,-1.4552,-1.5363,-1.569,-1.5891,-1.5945,-1.5885,-1.5885,-1.5885,-1.5885,-1.5885,-1.5885,-1.5885,-1.5885,-1.5885,-1.5885,-1.5885,-1.5885,-1.5885,-1.5885,-1.5885,-1.5885,-1.5885,-1.5945,-1.5945,-1.5998,-1.6057,0.6657,0.0,0.6098,0.5708,0.0,0.4482,0.3585,0.235,0.1333,0.022,-0.0874,-0.1192,-0.1457,-0.1727,-0.1727,-0.1728,-0.1727,-0.1697,-0.1682,-0.1681,-0.1652,-0.1699,-0.1714,-0.163,-0.1625,-0.1639,-0.164,-0.1631,-0.1618,-0.1633,-0.1631,-0.1566,-0.1566,-0.1718,-0.2022,-0.2372,-0.3527,-0.5446,-0.5823,-0.6257,-0.6734,-0.6708,-0.6716,-0.6775,0.0,0.0,0.0,0.0,0.0,0.0,0.0,0.0,0.0,0.0,0.0,-0.5806,-0.5842,-0.5873,-0.5945,-0.6047,-0.6204,-0.6367,-0.6716,-0.6999,-0.7042,-0.7319,-0.7606,-0.7842,-0.7873,-0.7932,-0.7949,-0.8216,-0.836,-0.8353,-0.8503,-0.8675,-0.8868,-0.8994,-0.9094,-0.9152,-0.9164,-0.9213,-0.9323,-0.9489,-0.9765,-1.0198,-1.0911,-1.1618,-1.2441,-1.3684,-1.4773,-1.5369,-1.5737,-1.5885,-1.5885,-1.5885,-1.5885,-1.5885,-1.5885,-1.5885,-1.5885,-1.5885,-1.5885,-1.5885,-1.5885,-1.5885,-1.5885,-1.5885,-1.5885,-1.5885,-1.5885,-1.5885,-1.5885,-1.5885,-1.5945,0.7046,0.6768,0.6771,0.649,0.5933,0.532,0.4592,0.3751,0.0,0.0,0.0,-0.0878,-0.1373,-0.1704,-0.1778,-0.1787,-0.1785,-0.1811,-0.1794,-0.1786,-0.1737,-0.1714,-0.1712,-0.1631,-0.162,-0.1626,-0.1645,-0.1641,-0.1618,-0.1647,-0.1647,-0.162,-0.1622,-0.1724,-0.1921,-0.2424,-0.3153,-0.4185,-0.481,-0.5401,-0.5977,-0.5928,-0.6119,-0.6405,-0.6417,-0.6469,-0.6619,-0.6431,-0.6339,-0.6371,-0.6132,-0.5959,-0.5962,-0.6081,-0.6111,-0.6114,-0.6268,-0.639,-0.6502,-0.6539,-0.6634,-0.6803,-0.7092,-0.7372,-0.7723,-0.7706,-0.7773,-0.7856,-0.7883,-0.7943,-0.8069,-0.8245,-0.8445,-0.8686,-0.8733,-0.8801,-0.8916,-0.8937,-0.893,-0.8937,-0.8937,-0.8937,-0.8937,-0.9158,-0.9434,-0.9706,-1.0198,-1.0911,-1.1946,-1.33,-1.4546,-1.5202,-1.5577,-1.5838,-1.5891,-1.5885,-1.5885,-1.5885,-1.5885,-1.5885,-1.5885,-1.5885,-1.5885,-1.5885,-1.5885,-1.5885,-1.5885,-1.5885,-1.5885,-1.5885,-1.5885,-1.5885,-1.5885,-1.5885,-1.5885,0.7154,0.7154,0.7099,0.6932,0.6548,0.5933,0.476,0.3193,0.2242,0.112,-0.0056,-0.0391,-0.0838,-0.1396,-0.1655,-0.1811,-0.1809,-0.1725,-0.1698,0.0,-0.1718,-0.1714,-0.1712,-0.1631,-0.163,-0.1653,-0.1634,-0.1621,-0.162,-0.1699,-0.1647,-0.1624,-0.1643,-0.1694,-0.1669,-0.1971,-0.232,-0.2711,-0.3606,-0.4495,-0.5197,-0.5033,-0.5163,-0.5708,-0.5692,-0.588,-0.6335,-0.6334,-0.6394,-0.6637,-0.6597,-0.6573,-0.6573,-0.6586,-0.6607,-0.6607,-0.6627,-0.6651,-0.6671,-0.679,-0.6983,-0.7258,-0.7546,-0.7658,-0.7461,-0.7684,-0.7804,-0.7835,-0.8081,-0.8214,-0.8255,-0.8479,-0.8652,-0.8713,-0.8828,-0.8861,-0.8937,-0.8937,-0.8937,-0.8937,-0.8937,-0.8937,-0.8937,-0.894,-0.9103,-0.9434,-0.9816,-1.0417,-1.1782,-1.3246,-1.4331,-1.4934,-1.5369,-1.563,-1.5731,-1.5891,-1.5832,-1.5885,-1.5891,-1.5891,-1.5885,-1.5885,-1.5885,-1.5885,-1.5885,-1.5885,-1.5885,-1.5885,-1.5885,-1.5885,-1.5885,-1.5885,-1.5885,-1.5885,-1.5885,0.721,0.721,0.721,0.7099,0.6877,0.5989,0.4758,0.3362,0.2579,0.1514,0.0224,-0.0056,-0.0617,-0.1289,-0.1447,-0.1608,-0.1828,-0.1797,-0.1776,-0.1761,-0.173,-0.1714,-0.1712,-0.1631,-0.1624,-0.1637,-0.1641,-0.1633,-0.1622,-0.1647,-0.1655,-0.1643,-0.1656,-0.1698,-0.1619,-0.1718,-0.192,-0.217,-0.2901,-0.3665,-0.4407,-0.4288,-0.4555,-0.5285,-0.5398,-0.5668,-0.6171,-0.6354,-0.6525,-0.6652,-0.6701,-0.6702,-0.6702,-0.678,-0.6824,-0.6824,-0.6852,-0.6976,-0.7058,-0.7207,-0.7383,-0.7594,-0.7729,-0.7794,-0.7743,-0.781,-0.7884,-0.7894,-0.8143,-0.8354,-0.8377,-0.8581,-0.8743,-0.8828,-0.8844,-0.8881,-0.8937,-0.8937,-0.8937,-0.8937,-0.8937,-0.8937,-0.8937,-0.8937,-0.894,-0.9158,-0.9485,-1.0198,-1.1131,-1.211,-1.3192,-1.4072,-1.4557,-1.4874,-1.5143,-1.519,-1.5351,-1.5636,-1.569,-1.5737,-1.5838,-1.5885,-1.5885,-1.5885,-1.5885,-1.5885,-1.5885,-1.5885,-1.5885,-1.5885,-1.5885,-1.5885,-1.5885,-1.5885,-1.5885,0.721,0.721,0.721,0.7099,0.6932,0.5873,0.4702,0.3587,0.2973,0.1851,0.0561,0.0224,-0.0336,-0.1065,-0.1234,-0.1458,-0.1679,-0.1771,-0.1811,-0.1799,-0.1756,-0.1727,-0.1713,-0.1638,-0.1624,-0.162,-0.1641,-0.164,-0.1622,-0.1647,-0.1714,-0.1714,-0.1707,-0.164,-0.1567,-0.1566,-0.1718,-0.192,-0.2323,-0.2904,-0.3601,-0.3581,-0.3984,-0.4743,-0.4967,-0.535,-0.5902,-0.6246,-0.6452,-0.6575,-0.6649,-0.6716,-0.6723,-0.6869,-0.6933,-0.6943,-0.7068,-0.7258,-0.7414,-0.7563,-0.7692,-0.7801,-0.7841,-0.7864,-0.7968,-0.7988,-0.8005,-0.8099,-0.8231,-0.8377,-0.8523,-0.8676,-0.8811,-0.8868,-0.8937,-0.8937,-0.8937,-0.8937,-0.8937,-0.8937,-0.8937,-0.8937,-0.8937,-0.8937,-0.8937,-0.8992,-0.9379,-0.9926,-1.0417,-1.0966,-1.1787,-1.2713,-1.3527,-1.4121,-1.4444,-1.4552,-1.4767,-1.5208,-1.5369,-1.547,-1.5678,-1.5838,-1.5885,-1.5885,-1.5885,-1.5885,-1.5885,-1.5885,-1.5885,-1.5885,-1.5885,-1.5885,-1.5885,-1.5885,-1.5885,0.721,0.721,0.721,0.6882,0.6383,0.5708,0.4702,0.3586,0.2974,0.2019,0.0897,0.0504,0.0056,-0.0504,-0.1065,-0.129,-0.1346,-0.168,-0.1776,-0.1807,-0.1799,-0.1768,-0.172,-0.1712,-0.1643,-0.1622,-0.1624,-0.1628,-0.1624,-0.165,-0.1714,-0.1711,-0.1635,-0.1621,-0.1566,-0.1566,-0.1617,-0.1617,-0.1667,-0.2068,-0.2865,-0.2816,-0.3149,-0.3892,-0.4048,-0.4563,-0.5382,-0.5667,-0.5965,-0.641,-0.6621,-0.6797,-0.6838,-0.6983,-0.7075,-0.7082,-0.7268,-0.7417,-0.757,-0.7712,-0.7801,-0.7818,-0.7891,-0.7965,-0.7988,-0.7992,-0.8099,-0.8231,-0.8377,-0.8513,-0.8676,-0.8821,-0.8854,-0.8871,-0.8937,-0.8937,-0.8937,-0.8937,-0.8937,-0.8937,-0.8937,-0.8937,-0.8937,-0.8937,-0.8937,-0.8937,-0.9158,-0.9541,-0.9871,-1.0202,-1.0586,-1.124,-1.2273,-1.3418,-1.3954,-1.4223,-1.4223,-1.4606,-1.4874,-1.5148,-1.5416,-1.5737,-1.5885,-1.5891,-1.5885,-1.5885,-1.5885,-1.5885,-1.5885,-1.5885,-1.5885,-1.5885,-1.5885,-1.5885,-1.5885,0.721,0.721,0.721,0.6935,0.6492,0.5875,0.5039,0.4089,0.3306,0.2355,0.1458,0.0897,0.028,-0.0392,-0.0673,-0.0897,-0.1065,-0.1402,-0.1509,-0.1553,-0.1704,-0.179,-0.1768,-0.1695,-0.168,-0.1669,-0.1669,-0.1669,-0.1671,-0.1682,-0.167,-0.164,-0.164,-0.1635,-0.1568,-0.1566,-0.1566,-0.1566,-0.1566,-0.1768,-0.2066,-0.2182,-0.2492,-0.3094,-0.343,-0.3823,-0.4334,-0.4956,-0.5455,-0.5813,-0.6171,-0.6529,-0.6795,-0.6962,-0.7101,-0.7292,-0.7499,-0.7658,-0.7723,-0.7862,-0.7897,-0.7894,-0.8004,-0.7988,-0.7995,-0.8123,-0.8238,-0.8374,-0.8448,-0.8543,-0.8699,-0.8794,-0.8937,-0.8937,-0.8937,-0.8937,-0.8937,-0.8937,-0.8937,-0.8937,-0.8937,-0.8937,-0.8937,-0.8937,-0.8937,-0.8937,-0.9047,-0.9213,-0.9489,-0.9655,-0.9981,-1.0417,-1.1131,-1.1787,-1.2491,-1.2817,-1.3142,-1.3689,-1.4229,-1.4659,-1.5095,-1.5476,-1.569,-1.5844,-1.5891,-1.5891,-1.5885,-1.5885,-1.5885,-1.5885,-1.5885,-1.5885,-1.5885,-1.5885,-1.5885,0.7206,0.7254,0.7226,0.699,0.6659,0.6156,0.5429,0.4592,0.3696,0.2802,0.1907,0.1346,0.0673,0.0,-0.028,-0.0561,-0.0785,-0.1065,-0.1177,-0.1232,-0.155,-0.1648,-0.1639,-0.1727,-0.1712,-0.1705,-0.1703,-0.1703,-0.1703,-0.1695,-0.167,-0.1637,-0.1643,-0.1639,-0.162,-0.1624,-0.1624,-0.1618,-0.1624,-0.1626,-0.1615,-0.1745,-0.2024,-0.2498,-0.2816,-0.3142,-0.3449,-0.4221,-0.4824,-0.5149,-0.5687,-0.6139,-0.6554,-0.6871,-0.7175,-0.7502,-0.7689,-0.7831,-0.7868,-0.7928,-0.7988,-0.7988,-0.7988,-0.8058,-0.8113,-0.8208,-0.8402,-0.8523,-0.8547,-0.8611,-0.8757,-0.8817,-0.8878,-0.8937,-0.8937,-0.8937,-0.8937,-0.8937,-0.8937,-0.8937,-0.8937,-0.8937,-0.8937,-0.8937,-0.8937,-0.8937,-0.8937,-0.8937,-0.9217,-0.9268,-0.9434,-0.9871,-0.9926,-1.0363,-1.1131,-1.1678,-1.2114,-1.2767,-1.3418,-1.4013,-1.4552,-1.4939,-1.5261,-1.5303,-1.5571,-1.5791,-1.5791,-1.5785,-1.5873,-1.5885,-1.5867,-1.5855,-1.5885,-1.5885,-1.5885,0.7271,0.7307,0.7256,0.7046,0.6712,0.6376,0.5764,0.4873,0.4198,0.3305,0.2299,0.1907,0.1402,0.0785,0.0,-0.0392,-0.0448,-0.0785,-0.0897,-0.0953,-0.1176,-0.1332,-0.1368,-0.1638,-0.1733,-0.1607,-0.1659,-0.171,-0.1705,-0.1733,-0.1715,-0.1711,-0.1636,-0.162,-0.162,-0.1642,-0.1645,-0.1625,-0.1643,-0.1645,-0.1622,-0.1615,-0.1749,-0.197,-0.2202,-0.2564,-0.3004,-0.3514,-0.3982,-0.4507,-0.5202,-0.5722,-0.6062,-0.6776,-0.7357,-0.7719,-0.7756,-0.783,-0.7948,-0.7982,-0.7995,-0.7998,-0.8008,-0.8056,-0.8241,-0.8292,-0.8421,-0.8669,-0.8693,-0.8764,-0.8882,-0.8923,-0.8937,-0.8937,-0.8937,-0.8937,-0.8937,-0.8937,-0.8937,-0.8937,-0.8937,-0.8937,-0.8937,-0.8937,-0.8937,-0.8937,-0.8937,-0.8937,-0.8937,-0.8937,-0.8995,-0.9051,-0.9158,-0.9375,-1.0468,-1.0907,-1.135,-1.1951,-1.255,-1.3152,-1.3694,-1.4175,-1.4444,-1.4767,-1.5148,-1.5422,-1.5529,-1.5672,-1.5802,-1.5825,-1.5777,-1.5777,-1.5771,-1.5855,-1.5873,0.7288,0.7217,0.7229,0.7154,0.699,0.671,0.6267,0.5708,0.4927,0.4255,0.353,0.2523,0.1907,0.1683,0.0617,0.0112,0.0056,-0.0392,-0.0561,-0.0617,-0.0897,-0.1062,-0.1056,-0.1167,-0.1219,-0.1212,-0.1377,-0.1533,-0.1733,-0.1777,-0.1751,-0.1717,-0.1703,-0.1637,-0.1622,-0.1628,-0.1636,-0.1644,-0.164,-0.1637,-0.1642,-0.1627,-0.1662,-0.17,-0.1926,-0.2104,-0.2284,-0.2734,-0.3238,-0.3764,-0.433,-0.4991,-0.5708,-0.6587,-0.7272,-0.7596,-0.7668,-0.7786,-0.7932,-0.7988,-0.8035,-0.8177,-0.8187,-0.8245,-0.8387,-0.8496,-0.8601,-0.8703,-0.8753,-0.8831,-0.8861,-0.8937,-0.8937,-0.8937,-0.8937,-0.8937,-0.8937,-0.8937,-0.8937,-0.8937,-0.8937,-0.8937,-0.8937,-0.8937,-0.8937,-0.8937,-0.8937,-0.8937,-0.8937,-0.8937,-0.8937,-0.8937,-0.8937,-0.9047,-0.9379,-0.9978,-1.0468,-1.1076,-1.1678,-1.2387,-1.2985,-1.3364,-1.3689,-1.4062,-1.4552,-1.4911,-1.4948,-1.5199,-1.5399,-1.5573,-1.5531,-1.5519,-1.5602,-1.5632,-1.5722,0.7288,0.7214,0.7224,0.721,0.7154,0.699,0.6712,0.6376,0.5652,0.515,0.459,0.3474,0.2859,0.2467,0.1458,0.0897,0.0785,0.0112,-0.028,-0.028,-0.0617,-0.0729,-0.0785,-0.0841,-0.0897,-0.0897,-0.1065,-0.1337,-0.1599,-0.1645,-0.1675,-0.1746,-0.1734,-0.1661,-0.1637,-0.164,-0.165,-0.1647,-0.1645,-0.1648,-0.1647,-0.1637,-0.1626,-0.1615,-0.1747,-0.1784,-0.1834,-0.2201,-0.2622,-0.3059,-0.3638,-0.4458,-0.5528,-0.6225,-0.6802,-0.7282,-0.7344,-0.7494,-0.7793,-0.7892,-0.8009,-0.8252,-0.8327,-0.8395,-0.8533,-0.8652,-0.8723,-0.8791,-0.8866,-0.8937,-0.8937,-0.8937,-0.8937,-0.8937,-0.8937,-0.8937,-0.8937,-0.8937,-0.8937,-0.8937,-0.8937,-0.8937,-0.8937,-0.8937,-0.8937,-0.8937,-0.8937,-0.8937,-0.8937,-0.8937,-0.8937,-0.8937,-0.8937,-0.8937,-0.9103,-0.943,-0.9816,-1.0363,-1.0802,-1.1514,-1.2114,-1.2495,-1.293,-1.3359,-1.3776,-1.4126,-1.4478,-1.4662,-1.4914,-1.5126,-1.517,-1.5094,-1.5233,-1.5372,-1.5451,0.728,0.7247,0.7209,0.7218,0.7213,0.7154,0.6988,0.6657,0.6376,0.5929,0.5371,0.4702,0.4033,0.3475,0.2468,0.1963,0.1514,0.0504,0.0,-0.0056,-0.028,-0.0392,-0.0392,-0.0673,-0.0841,-0.0841,-0.0897,-0.1065,-0.1286,-0.1325,-0.1476,-0.1687,-0.1662,-0.1585,-0.1662,-0.1575,-0.1618,-0.1595,-0.1617,-0.1616,-0.1629,-0.1592,-0.1592,-0.1572,-0.1567,-0.1566,-0.1566,-0.1865,-0.2161,-0.2463,-0.3165,-0.4176,-0.5211,-0.557,-0.5932,-0.6589,-0.6795,-0.7045,-0.7497,-0.7606,-0.7885,-0.8221,-0.834,-0.8431,-0.8662,-0.8726,-0.8784,-0.8831,-0.8868,-0.8937,-0.8937,-0.8937,-0.8937,-0.8937,-0.8937,-0.8937,-0.8937,-0.8937,-0.8937,-0.8937,-0.8937,-0.8937,-0.8937,-0.8881,-0.8826,-0.8826,-0.8826,-0.8771,-0.8771,-0.8771,-0.8881,-0.8881,-0.8881,-0.8937,-0.8937,-0.8937,-0.9323,-0.971,-1.0091,-1.0582,-1.1076,-1.1459,-1.1732,-1.2164,-1.2762,-1.3221,-1.3885,-1.4066,-1.4258,-1.4413,-1.4503,-1.4675,-1.4874,-1.5011,-1.5098,0.7364,0.7225,0.7263,0.723,0.7215,0.721,0.7099,0.699,0.6712,0.6434,0.6154,0.5206,0.465,0.4147,0.2915,0.2188,0.1963,0.0841,0.028,0.028,0.0,0.0,0.0,0.0,-0.0392,-0.0561,-0.0561,-0.0729,-0.0952,-0.1004,-0.1107,-0.1149,-0.1197,-0.1129,-0.1111,-0.1104,-0.1097,-0.1153,-0.1293,-0.1283,-0.113,-0.1278,-0.1278,-0.1081,-0.103,-0.1029,-0.108,-0.1475,-0.182,-0.2122,-0.2522,-0.3225,-0.4029,-0.4383,-0.4885,-0.5584,-0.5887,-0.6387,-0.7203,-0.7585,-0.7945,-0.8346,-0.8506,-0.8659,-0.8832,-0.8811,-0.8828,-0.8878,-0.8937,-0.8937,-0.8937,-0.8937,-0.8881,-0.8881,-0.8937,-0.8881,-0.8826,-0.8881,-0.8937,-0.8937,-0.8937,-0.8937,-0.8881,-0.8768,-0.8598,-0.8598,-0.8432,-0.8325,-0.8325,-0.8488,-0.8598,-0.8654,-0.8768,-0.8826,-0.8771,-0.8771,-0.8937,-0.921,-0.9541,-0.9816,-1.0202,-1.0527,-1.0747,-1.1118,-1.1723,-1.2328,-1.3007,-1.3346,-1.3424,-1.3679,-1.3784,-1.4088,-1.4463,-1.4604,-1.4627,0.7388,0.7296,0.7323,0.7293,0.7217,0.7232,0.721,0.7154,0.699,0.6879,0.6712,0.5989,0.5487,0.515,0.3866,0.3082,0.2746,0.1626,0.1009,0.0785,0.0224,0.0,0.0,0.0,-0.0056,-0.0224,-0.0224,-0.0392,-0.0673,-0.0729,-0.0781,-0.0885,-0.0883,-0.0876,-0.0862,-0.0852,-0.0851,-0.0904,-0.1044,-0.1034,-0.0932,-0.1027,-0.0972,-0.0822,-0.0771,-0.0771,-0.0821,-0.1118,-0.1414,-0.1566,-0.1817,-0.2269,-0.2924,-0.3176,-0.3626,-0.4327,-0.4782,-0.5347,-0.6398,-0.6828,-0.7422,-0.7952,-0.8173,-0.8336,-0.8511,-0.8546,-0.8549,-0.8546,-0.8546,-0.8546,-0.8546,-0.8546,-0.8549,-0.8549,-0.8657,-0.8657,-0.8602,-0.8546,-0.8546,-0.8546,-0.8549,-0.8546,-0.8491,-0.8432,-0.8322,-0.8263,-0.8156,-0.7992,-0.8045,-0.8208,-0.8263,-0.8322,-0.838,-0.8436,-0.8549,-0.8549,-0.8602,-0.8823,-0.9044,-0.932,-0.9596,-0.9871,-1.0091,-1.0487,-1.1017,-1.1273,-1.1844,-1.2061,-1.2187,-1.2587,-1.3013,-1.3351,-1.3626,-1.3877,-1.3993,0.7344,0.7489,0.7383,0.7274,0.7309,0.7206,0.721,0.721,0.721,0.7154,0.7099,0.6712,0.649,0.6098,0.5039,0.4369,0.3863,0.2689,0.1963,0.1514,0.0729,0.0,0.0,0.0,0.0,0.0,0.0,-0.0112,-0.0392,-0.0392,-0.0561,-0.0727,-0.0726,-0.0834,-0.0768,-0.082,-0.0758,-0.0697,-0.08,-0.0844,-0.0728,-0.083,-0.0825,-0.0711,-0.0711,-0.0661,-0.0661,-0.0709,-0.0808,-0.0859,-0.1162,-0.1463,-0.1816,-0.1917,-0.2369,-0.3124,-0.3428,-0.4226,-0.515,-0.5775,-0.633,-0.7257,-0.7476,-0.7577,-0.7968,-0.81,-0.8103,-0.81,-0.8103,-0.8045,-0.8045,-0.8045,-0.8045,-0.8048,-0.8266,-0.8318,-0.8045,-0.8045,-0.81,-0.8103,-0.7992,-0.7992,-0.81,-0.8045,-0.7989,-0.7989,-0.7934,-0.7878,-0.7878,-0.7878,-0.7989,-0.8048,-0.8103,-0.8159,-0.8269,-0.8269,-0.8325,-0.8432,-0.8654,-0.8878,-0.9103,-0.9323,-0.9541,-0.994,-1.0163,-1.0363,-1.0619,-1.0925,-1.1295,-1.1707,-1.2109,-1.2521,-1.2829,-1.3116,-1.3436,0.7298,0.7377,0.729,0.7277,0.7261,0.7206,0.7213,0.721,0.721,0.721,0.7157,0.6879,0.6657,0.649,0.5431,0.4817,0.4369,0.3249,0.2411,0.2019,0.1346,0.0561,0.0,0.0,0.0,0.0,0.0,0.0,-0.0112,0.0,0.0,-0.0224,0.0,0.0,0.0,0.0,-0.0219,-0.0272,-0.0429,-0.0423,-0.0261,-0.0467,-0.0415,-0.0206,0.0,0.0,0.0,-0.0204,-0.0404,-0.0758,-0.0859,-0.096,-0.1111,-0.1111,-0.1464,-0.2174,-0.2656,-0.3349,-0.4468,-0.5088,-0.5775,-0.6645,-0.6944,-0.7401,-0.7651,-0.7878,-0.7989,-0.7992,-0.7992,-0.7989,-0.7992,-0.7989,-0.7881,-0.7771,-0.7934,-0.8097,-0.7989,-0.7992,-0.7992,-0.7992,-0.7992,-0.7934,-0.7934,-0.7823,-0.7718,-0.766,-0.7604,-0.749,-0.7546,-0.7657,-0.7715,-0.7771,-0.7826,-0.7937,-0.8048,-0.8048,-0.8045,-0.81,-0.8266,-0.8432,-0.8712,-0.8992,-0.9213,-0.953,-0.9417,-0.9572,-0.9855,-1.0121,-1.0482,-1.0815,-1.1296,-1.1731,-1.2224,-1.2542,-1.2889,0.7306,0.7413,0.7413,0.7413,0.7396,0.7282,0.7203,0.7218,0.721,0.721,0.7154,0.6988,0.6935,0.6824,0.6044,0.5599,0.5318,0.4199,0.3418,0.2857,0.1962,0.1009,0.0,0.0,0.0,0.0,0.0,0.0,0.0,0.0,0.0,0.0,0.0,0.0,0.0,0.0,0.0,0.0,-0.0163,-0.016,0.0,-0.0156,-0.0155,0.0,0.0,0.0,0.0,0.0,0.0,-0.0505,-0.0556,-0.0455,-0.0455,-0.0455,-0.0709,-0.1326,-0.1599,-0.2294,-0.334,-0.3997,-0.4702,-0.5511,-0.6125,-0.6536,-0.6824,-0.7213,-0.7435,-0.7435,-0.7546,-0.7654,-0.7654,-0.7657,-0.7601,-0.7493,-0.7546,-0.7657,-0.7657,-0.7654,-0.7654,-0.7657,-0.7657,-0.7654,-0.7657,-0.7546,-0.7435,-0.7382,-0.7324,-0.7268,-0.7265,-0.7382,-0.7438,-0.7549,-0.7549,-0.7601,-0.7657,-0.7657,-0.7771,-0.7823,-0.7931,-0.81,-0.8269,-0.8546,-0.8679,-0.8801,-0.8713,-0.8793,-0.9078,-0.9339,-0.9612,-0.9978,-1.0462,-1.0904,-1.1292,-1.1634,-1.2024,0.741,0.7519,0.7519,0.7527,0.7513,0.7391,0.7271,0.7187,0.7218,0.721,0.721,0.721,0.7157,0.7154,0.6657,0.649,0.6265,0.5262,0.4534,0.3639,0.2521,0.1402,0.0673,0.0224,0.0,0.0,0.0,0.0,0.0,0.0,0.0,0.0,0.0,0.0,0.0,0.0,0.0,0.0,0.0,0.0,0.0,0.0,0.0,0.0,0.0,0.0,0.0,0.0,-0.0153,-0.0356,-0.0101,0.0,0.0,0.0,-0.0204,-0.0466,-0.0784,-0.1275,-0.2062,-0.2733,-0.3307,-0.4236,-0.4918,-0.5371,-0.5708,-0.6212,-0.6543,-0.6543,-0.6877,-0.7043,-0.7154,-0.7157,-0.721,-0.721,-0.7268,-0.721,-0.721,-0.721,-0.721,-0.721,-0.721,-0.721,-0.721,-0.721,-0.721,-0.7324,-0.7213,-0.721,-0.721,-0.7268,-0.7324,-0.7268,-0.7268,-0.7265,-0.7265,-0.7265,-0.7379,-0.7549,-0.7657,-0.7823,-0.7878,-0.8029,-0.8032,-0.8074,-0.8192,-0.8279,-0.829,-0.8554,-0.8792,-0.8989,-0.9373,-0.9768,-1.0113,-1.0453,-1.0841,0.7634,0.7519,0.7519,0.7576,0.7616,0.7377,0.7323,0.7285,0.7192,0.7218,0.721,0.721,0.721,0.7154,0.6879,0.6657,0.6546,0.5877,0.5037,0.3917,0.269,0.1963,0.1346,0.0785,0.0224,0.0,0.0,0.0,0.0,0.0,0.0,0.0,0.0,0.0,0.0,0.0,0.0,0.0,0.0,0.0,0.0,0.0,0.0,0.0,0.0,0.0,0.0,0.0,0.0,0.0,0.0,0.0,0.0,0.0,0.0,-0.0314,-0.0427,-0.0814,-0.1423,-0.1882,-0.2344,-0.3076,-0.3863,-0.4421,-0.4758,-0.5371,-0.565,-0.5761,-0.5931,-0.632,-0.6657,-0.6771,-0.6879,-0.7043,-0.7154,-0.7154,-0.721,-0.721,-0.721,-0.721,-0.721,-0.721,-0.721,-0.721,-0.721,-0.721,-0.721,-0.721,-0.721,-0.721,-0.721,-0.721,-0.721,-0.721,-0.721,-0.721,-0.7268,-0.7324,-0.7435,-0.7543,-0.7601,-0.7619,-0.7731,-0.7771,-0.78,-0.7824,-0.7762,-0.7836,-0.8035,-0.8184,-0.8382,-0.873,-0.9122,-0.9414,-0.971,0.8244,0.8301,0.8131,0.7994,0.7912,0.7797,0.7558,0.7339,0.7271,0.7203,0.7218,0.721,0.721,0.721,0.7046,0.6935,0.6768,0.632,0.5427,0.4479,0.3586,0.2913,0.2186,0.1514,0.0953,0.0336,0.0,0.0112,0.0,0.0,0.0,0.0,0.0,0.0,0.0,0.0,0.0,0.0,0.0,0.0,0.0,0.0,0.0,0.0,0.0,0.0,0.0,0.0,0.0,0.0,0.0,0.0,0.0,0.0,0.0,-0.016,-0.0216,-0.0385,-0.083,-0.1171,-0.1569,-0.2017,-0.2856,-0.336,-0.3863,-0.4423,-0.4925,-0.5093,-0.5373,-0.5764,-0.6042,-0.6212,-0.6376,-0.6543,-0.6824,-0.6932,-0.699,-0.7099,-0.721,-0.721,-0.721,-0.721,-0.721,-0.721,-0.721,-0.721,-0.721,-0.721,-0.721,-0.721,-0.721,-0.721,-0.721,-0.721,-0.721,-0.721,-0.721,-0.7268,-0.7265,-0.7321,-0.7321,-0.7378,-0.7425,-0.7453,-0.7416,-0.7316,-0.7322,-0.7356,-0.7385,-0.7587,-0.7786,-0.7982,-0.818,-0.8528,-0.8825,0.9078,0.9185,0.8907,0.862,0.8321,0.8235,0.799,0.7588,0.7483,0.7525,0.7368,0.7407,0.7413,0.7271,0.7268,0.7268,0.7043,0.6652,0.5817,0.515,0.4702,0.3974,0.3136,0.2577,0.1906,0.0841,0.0448,0.028,0.0112,0.0,0.0,0.0,0.0,0.0,0.0,0.0,0.0,0.0,0.0,0.0,0.0,0.0,0.0,0.0,0.0,0.0,0.0,0.0,0.0,0.0,0.0,0.0,0.0,0.0,0.0,0.0,0.0,-0.0166,-0.039,-0.0672,-0.0953,-0.1177,-0.1961,-0.2409,-0.2745,-0.3305,-0.3752,-0.4143,-0.4421,-0.4923,-0.5202,-0.5427,-0.5654,-0.5822,-0.6267,-0.6546,-0.6657,-0.6877,-0.7046,-0.721,-0.721,-0.721,-0.721,-0.721,-0.721,-0.721,-0.721,-0.721,-0.721,-0.721,-0.721,-0.721,-0.721,-0.721,-0.721,-0.721,-0.721,-0.721,-0.721,-0.7204,-0.7196,-0.7185,-0.7219,-0.7065,-0.7012,-0.6929,-0.693,-0.6947,-0.7004,-0.7095,-0.7138,-0.7285,-0.7484,-0.7637,-0.7985,0.9846,0.9192,0.9188,0.9061,0.8802,0.8702,0.8566,0.8449,0.8276,0.8223,0.8115,0.8103,0.7874,0.7636,0.7554,0.7382,0.7218,0.6821,0.649,0.5986,0.5594,0.4868,0.4311,0.3863,0.3192,0.2185,0.1289,0.0617,0.0336,0.0,0.0,0.0,0.0,0.0,0.0,0.0,0.0,0.0,0.0,0.0,0.0,0.0,0.0,0.0,0.0,0.0,0.0,0.0,0.0,0.0,0.0,0.0,0.0,0.0,0.0,0.0,0.0,0.0,0.0,-0.0336,-0.0504,-0.0673,-0.1177,-0.1514,-0.1682,-0.2018,-0.2522,-0.2634,-0.3025,-0.3583,-0.4534,-0.459,-0.4981,-0.5316,-0.5652,-0.5933,-0.61,-0.6434,-0.6879,-0.7099,-0.7154,-0.721,-0.721,-0.721,-0.721,-0.721,-0.721,-0.721,-0.721,-0.721,-0.721,-0.721,-0.721,-0.721,-0.721,-0.721,-0.721,-0.721,-0.7207,-0.7193,-0.7166,-0.7043,-0.6959,-0.6895,-0.6796,-0.6746,-0.6709,-0.6631,-0.6656,-0.6739,-0.6689,-0.6637,-0.6889,-0.7188,-0.7288,1.1003,1.0497,1.0215,0.9822,0.9387,0.9325,0.9007,0.8706,0.8635,0.8534,0.8442,0.8405,0.8223,0.8013,0.793,0.7841,0.756,0.7326,0.7104,0.6877,0.6541,0.6098,0.5596,0.5144,0.4643,0.3861,0.2742,0.1569,0.0897,0.0617,0.0504,0.0,0.0448,0.0448,0.0,0.0,0.0448,0.0448,0.0448,0.0448,0.0448,0.0448,0.0448,0.0448,0.0448,0.0448,0.0448,0.028,0.0,0.0,0.0,0.0,0.0,0.0,0.0,0.0,0.0,0.0,0.0,-0.0112,-0.0168,-0.0224,-0.0617,-0.0785,-0.0953,-0.129,-0.157,-0.1795,-0.1963,-0.2466,-0.3025,-0.336,-0.3751,-0.4199,-0.476,-0.5206,-0.5596,-0.6098,-0.6543,-0.6877,-0.7043,-0.7154,-0.721,-0.721,-0.721,-0.721,-0.721,-0.721,-0.721,-0.721,-0.721,-0.721,-0.721,-0.721,-0.721,-0.721,-0.721,-0.721,-0.7202,-0.7188,-0.7114,-0.698,-0.6869,-0.6749,-0.6665,-0.6589,-0.6526,-0.6498,-0.6442,-0.6387,-0.6487,-0.6537,-0.6539,-0.6689,-0.6839,1.2337,1.1937,1.1333,1.0728,1.0126,0.994,0.9573,0.9061,0.8932,0.885,0.8731,0.8712,0.8646,0.8428,0.8303,0.8179,0.7998,0.7715,0.766,0.7604,0.7432,0.7157,0.6768,0.6429,0.5926,0.5371,0.4529,0.3245,0.1905,0.1345,0.1177,0.1065,0.1065,0.0953,0.0953,0.0841,0.0897,0.0897,0.0897,0.0897,0.0897,0.0897,0.0897,0.0897,0.0897,0.0841,0.0785,0.0617,0.0504,0.0448,0.0336,0.0,0.0,0.0,0.0,0.0168,0.0056,0.0,0.0,0.0,0.0,0.0,0.0,-0.028,-0.0392,-0.0729,-0.1121,-0.1458,-0.1514,-0.1627,-0.1906,-0.2186,-0.2578,-0.3026,-0.3752,-0.4423,-0.4983,-0.5485,-0.6098,-0.6487,-0.6821,-0.7046,-0.7043,-0.721,-0.721,-0.721,-0.721,-0.721,-0.721,-0.721,-0.721,-0.721,-0.721,-0.721,-0.721,-0.721,-0.721,-0.721,-0.7196,-0.718,-0.707,-0.6902,-0.6793,-0.6692,-0.6543,-0.6473,-0.6416,-0.6387,-0.6387,-0.6387,-0.6387,-0.6437,-0.6489,-0.6489,-0.6587,1.3651,1.2539,1.2174,1.1692,1.1091,1.0547,1.0236,1.0034,0.9781,0.9593,0.9463,0.9456,0.9202,0.8839,0.8476,0.8239,0.8088,0.8011,0.8008,0.7995,0.7934,0.7768,0.7549,0.7496,0.7046,0.6543,0.5868,0.4531,0.3302,0.252,0.1961,0.1794,0.1626,0.129,0.1457,0.1345,0.0897,0.0897,0.0897,0.0953,0.0953,0.0953,0.0953,0.0953,0.0953,0.0953,0.1009,0.0897,0.0841,0.0841,0.0785,0.0785,0.0785,0.0785,0.0785,0.0617,0.0,0.0,0.0,0.0,0.0,0.0,0.0,0.0,0.0,0.0,-0.0392,-0.0561,-0.0617,-0.0841,-0.1177,-0.1402,-0.1739,-0.2243,-0.2858,-0.3418,-0.3977,-0.4869,-0.5427,-0.5877,-0.6209,-0.6654,-0.6879,-0.7043,-0.721,-0.721,-0.721,-0.7154,-0.7154,-0.7154,-0.7099,-0.7043,-0.699,-0.699,-0.7046,-0.7102,-0.7154,-0.7154,-0.7199,-0.7172,-0.7056,-0.6883,-0.6763,-0.6662,-0.6562,-0.6438,-0.6403,-0.6387,-0.6387,-0.6387,-0.6387,-0.6387,-0.6437,-0.6387,-0.6387,1.511,1.3734,1.326,1.2539,1.1812,1.1329,1.091,1.0547,1.0243,1.003,0.9978,0.9791,0.953,0.9261,0.9007,0.886,0.8633,0.8492,0.8447,0.8448,0.8383,0.8322,0.8325,0.8159,0.7878,0.7598,0.7099,0.6538,0.52,0.3973,0.3136,0.3024,0.2746,0.2521,0.2297,0.2185,0.1961,0.1738,0.1514,0.1402,0.1402,0.1402,0.1402,0.1402,0.1402,0.1402,0.1346,0.1177,0.1121,0.1121,0.1009,0.0897,0.0897,0.0897,0.0897,0.0841,0.0673,0.0,0.0,0.0112,0.0,0.0,0.0,0.0,0.0,0.0,0.0,-0.0168,-0.0168,0.0,0.0,-0.0729,-0.1121,-0.1626,-0.2131,-0.2803,-0.3362,-0.4032,-0.47,-0.515,-0.5599,-0.5931,-0.6209,-0.632,-0.6543,-0.6765,-0.6821,-0.6879,-0.6935,-0.699,-0.6935,-0.6879,-0.6768,-0.6659,-0.6771,-0.6879,-0.699,-0.7046,-0.7099,-0.7108,-0.7002,-0.6885,-0.6721,-0.6597,-0.6487,-0.643,-0.6398,-0.6387,-0.6387,-0.6387,-0.6387,-0.6387,-0.6387,-0.6387,-0.6387,1.636,1.5165,1.4336,1.3559,1.2775,1.2234,1.1696,1.1148,1.0728,1.0486,1.0243,0.993,0.9737,0.9618,0.9424,0.9299,0.9211,0.8944,0.8924,0.8844,0.8784,0.8712,0.8712,0.8657,0.8543,0.8595,0.7989,0.7598,0.6985,0.5926,0.4866,0.4421,0.3921,0.3698,0.3473,0.3193,0.2858,0.2579,0.2411,0.2299,0.2299,0.2299,0.2186,0.213,0.213,0.2075,0.1907,0.1683,0.157,0.1402,0.129,0.1177,0.1177,0.1234,0.1234,0.1177,0.1065,0.0897,0.0673,0.0504,0.028,0.0224,0.0112,0.0,0.0,0.0,0.0,0.0,0.0,0.0,0.0,0.0,-0.0561,-0.1009,-0.1402,-0.2186,-0.2914,-0.3417,-0.3974,-0.4477,-0.4814,-0.4927,-0.5206,-0.5431,-0.571,-0.6212,-0.6434,-0.6546,-0.6546,-0.6543,-0.6432,-0.6265,-0.6209,-0.61,-0.6212,-0.6379,-0.6601,-0.6768,-0.6877,-0.694,-0.6787,-0.6751,-0.6653,-0.6575,-0.6452,-0.6435,-0.6408,-0.6398,-0.6387,-0.6387,-0.6387,-0.6387,-0.6387,-0.6387,-0.6387,1.725,1.6726,1.5531,1.4753,1.4272,1.3135,1.2479,1.2057,1.1514,1.091,1.0365,0.9997,0.9804,0.9642,0.9661,0.9569,0.9357,0.9215,0.9174,0.911,0.8959,0.8915,0.8905,0.8898,0.8823,0.8823,0.8491,0.8377,0.8208,0.7487,0.6487,0.5766,0.515,0.4648,0.4255,0.392,0.3642,0.3363,0.3251,0.3251,0.3307,0.3251,0.3194,0.3026,0.2913,0.2746,0.2243,0.2187,0.1963,0.1795,0.1683,0.1627,0.157,0.157,0.157,0.157,0.1402,0.129,0.1121,0.0897,0.0785,0.0729,0.0504,0.0224,0.0,0.0,0.0,0.0,0.0,0.0,0.0,-0.0056,-0.028,-0.0561,-0.0953,-0.1458,-0.2074,-0.2465,-0.308,-0.3751,-0.3974,-0.392,-0.392,-0.4033,-0.4871,-0.5373,-0.5873,-0.5984,-0.5819,-0.5761,-0.565,-0.5483,-0.5427,-0.5427,-0.5429,-0.5596,-0.5819,-0.6042,-0.6151,-0.6325,-0.6419,-0.6391,-0.6379,-0.645,-0.6342,-0.6406,-0.6435,-0.6446,-0.6441,-0.6403,-0.6387,-0.6387,-0.6387,-0.6387,-0.6387,1.7426,1.725,1.6537,1.5887,1.5154,1.4267,1.3559,1.302,1.2234,1.1394,1.0607,1.0482,1.0276,1.0109,0.9971,0.9838,0.9527,0.9469,0.9381,0.9326,0.9157,0.9083,0.9052,0.8991,0.8881,0.8885,0.8771,0.8768,0.8657,0.8269,0.8045,0.7265,0.6485,0.5984,0.5483,0.4758,0.4311,0.4089,0.3867,0.3643,0.3587,0.3587,0.3531,0.3419,0.3418,0.3194,0.2859,0.2802,0.2467,0.2188,0.2075,0.2019,0.1907,0.1851,0.1851,0.1795,0.1627,0.157,0.1514,0.1177,0.0897,0.0841,0.0617,0.0392,0.028,0.0112,0.0,0.0,0.0,0.0,0.0,0.0,-0.0112,-0.0336,-0.0617,-0.0953,-0.129,-0.1737,-0.2129,-0.28,-0.2745,-0.2578,-0.2578,-0.2634,-0.3642,-0.4534,-0.5037,-0.5314,-0.4979,-0.4814,-0.4646,-0.4479,-0.4367,-0.4479,-0.4534,-0.4758,-0.4983,-0.5204,-0.5371,-0.556,-0.5738,-0.5904,-0.5894,-0.6088,-0.6245,-0.6235,-0.6334,-0.6436,-0.6492,-0.6441,-0.6408,-0.6387,-0.6387,-0.6387,-0.6387,1.7485,1.7485,1.725,1.672,1.5994,1.5337,1.4694,1.4038,1.332,1.229,1.139,1.1152,1.0849,1.0607,1.0479,1.0194,0.9909,0.9787,0.9596,0.9483,0.9306,0.9235,0.9171,0.91,0.9025,0.8994,0.8892,0.8881,0.8881,0.8709,0.8543,0.8322,0.8045,0.7376,0.6599,0.5817,0.5314,0.5204,0.4981,0.4648,0.4758,0.4758,0.4592,0.459,0.4534,0.4145,0.3754,0.3529,0.325,0.2859,0.2579,0.2411,0.2243,0.2019,0.1963,0.1907,0.1851,0.1795,0.1683,0.1458,0.1121,0.1009,0.0897,0.0673,0.0504,0.028,0.0,0.0,0.0,0.0,0.0,0.0,0.0,-0.0224,-0.0224,-0.0504,-0.0729,-0.1121,-0.1402,-0.1794,-0.1683,-0.1683,-0.1795,-0.1906,-0.2354,-0.3137,-0.3361,-0.3639,-0.3639,-0.3473,-0.3417,-0.3305,-0.3193,-0.3361,-0.3585,-0.3529,-0.3585,-0.3918,-0.4198,-0.47,-0.4891,-0.507,-0.5358,-0.5575,-0.5803,-0.5993,-0.6044,-0.6024,-0.62,-0.642,-0.6438,-0.6403,-0.6387,-0.6387,-0.6387,1.7473,1.7485,1.7479,1.725,1.6838,1.6354,1.5704,1.5056,1.457,1.3729,1.2595,1.1877,1.1454,1.1273,1.1088,1.0706,1.0311,1.0155,0.9912,0.9689,0.9449,0.9388,0.9323,0.9242,0.919,0.9106,0.9039,0.8974,0.8937,0.8881,0.8826,0.8881,0.8602,0.8269,0.7604,0.7268,0.7099,0.7099,0.6874,0.6763,0.6652,0.6599,0.6318,0.604,0.5929,0.5427,0.4758,0.459,0.4199,0.3586,0.325,0.3082,0.297,0.2467,0.2299,0.2244,0.1963,0.1851,0.1795,0.1739,0.157,0.1346,0.1177,0.1065,0.0841,0.0617,0.0392,0.0392,0.0,0.0,0.0,0.0,0.0,0.0,0.0,-0.0112,-0.0392,-0.0561,-0.0841,-0.1009,-0.1009,-0.1009,-0.1177,-0.129,-0.1458,-0.1738,-0.1795,-0.2018,-0.2298,-0.2354,-0.241,-0.2354,-0.2298,-0.2354,-0.2465,-0.213,-0.2186,-0.2576,-0.3024,-0.3471,-0.3918,-0.4177,-0.4531,-0.4933,-0.5245,-0.5393,-0.5491,-0.553,-0.5777,-0.6017,-0.6366,-0.6419,-0.64,-0.6392,-0.64,1.7225,1.7243,1.7412,1.7426,1.725,1.6897,1.6419,1.5946,1.5229,1.4451,1.3794,1.331,1.2771,1.2294,1.1877,1.1454,1.0952,1.034,1.0109,1.0028,0.9713,0.9551,0.9486,0.9381,0.9316,0.9221,0.9086,0.9015,0.8937,0.8937,0.8937,0.8937,0.8881,0.8657,0.8159,0.7768,0.7438,0.7438,0.7268,0.7154,0.721,0.721,0.7154,0.693,0.693,0.6485,0.5761,0.565,0.5204,0.4479,0.4143,0.392,0.3586,0.3082,0.2858,0.2691,0.241,0.1963,0.1851,0.1795,0.1795,0.1627,0.1402,0.129,0.1121,0.0897,0.0785,0.0729,0.0617,0.0448,0.0,0.0,0.0,0.0,0.0,0.0,-0.0168,-0.0168,-0.028,-0.0336,-0.0336,0.0,0.0,0.0,0.0,0.0,-0.1177,-0.1514,-0.185,-0.1738,-0.1682,-0.157,-0.1514,-0.1458,-0.1402,-0.1346,-0.1458,-0.1905,-0.2129,-0.2298,-0.2745,-0.3192,-0.3352,-0.3657,-0.4213,-0.4764,-0.4769,-0.488,-0.52,-0.5499,-0.5879,-0.6187,-0.6196,-0.6287,-0.643,1.7008,1.7111,1.7274,1.7406,1.7473,1.7256,1.6961,1.6543,1.5822,1.5224,1.4867,1.4629,1.4093,1.3435,1.29,1.2238,1.1631,1.1088,1.0543,1.0475,1.0035,0.9929,0.9811,0.9593,0.9435,0.9361,0.9238,0.9149,0.9022,0.896,0.8885,0.8937,0.8881,0.8768,0.8546,0.8269,0.8106,0.8106,0.7992,0.7878,0.7878,0.7823,0.7765,0.7709,0.7598,0.7374,0.6932,0.6599,0.6318,0.5594,0.5148,0.4925,0.4479,0.3976,0.3696,0.3418,0.2914,0.2522,0.2354,0.2019,0.2019,0.1963,0.1627,0.1514,0.1402,0.1234,0.1065,0.1009,0.0953,0.0841,0.0617,0.0561,0.0,0.0,0.0,0.0,0.0168,0.0112,0.0056,0.0056,0.0,0.0,0.0,0.0,0.0,0.0,-0.0673,-0.0953,-0.1234,-0.1121,0.0,0.0,0.0,0.0,0.0,-0.0729,-0.0953,-0.1234,-0.1346,-0.1402,-0.1738,-0.2185,-0.2241,-0.2353,-0.2905,-0.3457,-0.3959,-0.4205,-0.4586,-0.502,-0.5441,-0.5713,-0.5865,-0.605,-0.6162,1.6833,1.705,1.708,1.7225,1.7436,1.7467,1.7309,1.6961,1.6414,1.6118,1.6065,1.5472,1.4992,1.4575,1.4043,1.326,1.2414,1.1997,1.1454,1.097,1.0574,1.0457,1.018,0.9912,0.9759,0.9545,0.9429,0.9296,0.9207,0.9042,0.8977,0.894,0.8937,0.8881,0.8771,0.8716,0.866,0.8605,0.8605,0.8546,0.8546,0.866,0.8491,0.8432,0.8318,0.8045,0.7712,0.749,0.7321,0.6932,0.6599,0.6376,0.5929,0.5204,0.4758,0.4257,0.3529,0.3305,0.2969,0.2579,0.2355,0.2299,0.2075,0.1907,0.1683,0.1514,0.1402,0.129,0.1234,0.1065,0.0897,0.0897,0.0,0.0,0.0,0.0673,0.0448,0.0392,0.028,0.0168,0.0056,0.0,0.0,0.0,0.0,0.0,0.0,-0.0056,-0.0336,-0.0448,0.0,0.0,0.0,0.0,0.0,0.0,-0.0392,-0.0729,-0.0673,-0.0729,-0.1009,-0.1234,-0.1402,-0.1569,-0.1738,-0.2185,-0.2853,-0.346,-0.3998,-0.434,-0.4353,-0.5034,-0.5149,-0.5459,-0.5625,1.6453,1.6531,1.673,1.6966,1.7213,1.74,1.742,1.7309,1.7126,1.6956,1.672,1.6543,1.6124,1.5645,1.4992,1.4391,1.3674,1.2955,1.2298,1.1752,1.1329,1.097,1.0649,1.0364,1.0116,0.9909,0.9679,0.9511,0.9357,0.9164,0.9081,0.8954,0.9019,0.9013,0.9016,0.8944,0.8954,0.896,0.8971,0.8971,0.8915,0.8922,0.8856,0.8791,0.8787,0.8507,0.8325,0.8211,0.7989,0.7549,0.7382,0.716,0.6877,0.6151,0.5594,0.4592,0.4145,0.3921,0.353,0.3307,0.3083,0.2915,0.2746,0.2299,0.2019,0.1795,0.1683,0.157,0.1458,0.1346,0.1234,0.1177,0.1121,0.1065,0.1065,0.0953,0.0785,0.0729,0.0561,0.0392,0.0224,0.0224,0.028,0.0,0.0,0.0,0.0617,0.0561,0.0504,0.028,0.0,0.0,0.0,0.0,0.0,-0.0056,-0.0056,-0.0112,-0.0112,-0.0112,-0.028,-0.0504,-0.0673,-0.0897,-0.1177,-0.1514,-0.2018,-0.2573,-0.3013,-0.2682,-0.2716,-0.3654,-0.4414,-0.4621,-0.4889,1.6513,1.6636,1.6796,1.6974,1.7124,1.7271,1.7328,1.7346,1.7436,1.7367,1.7197,1.7191,1.6956,1.6419,1.5882,1.5348,1.4862,1.3973,1.3315,1.2955,1.2234,1.1877,1.1454,1.0963,1.0612,1.0356,1.0105,0.995,0.9734,0.9666,0.9578,0.9525,0.9405,0.9405,0.9483,0.9479,0.9356,0.9251,0.9195,0.9069,0.9083,0.904,0.9083,0.9032,0.9025,0.8886,0.8722,0.866,0.8439,0.8106,0.8051,0.7878,0.7598,0.7099,0.6599,0.5708,0.5371,0.5148,0.4812,0.4199,0.3921,0.3642,0.3474,0.3082,0.2635,0.2299,0.2019,0.1795,0.1739,0.1739,0.157,0.1458,0.1402,0.129,0.1234,0.1234,0.1121,0.1065,0.0897,0.0673,0.0561,0.0504,0.0504,0.0561,0.0617,0.0729,0.0785,0.0785,0.0729,0.0617,0.0561,0.0,0.0,0.0,0.0336,0.028,0.028,0.0336,0.0392,0.0392,0.028,0.0112,-0.0168,-0.0392,-0.0673,-0.1009,-0.129,-0.157,-0.1849,-0.157,-0.1627,-0.2439,-0.3184,-0.3511,-0.3789,1.6835,1.7022,1.7108,1.7053,1.7117,1.7169,1.7132,1.7174,1.7392,1.7461,1.7473,1.7485,1.7309,1.6956,1.6543,1.6177,1.5698,1.4986,1.451,1.4267,1.3435,1.296,1.2535,1.1933,1.1491,1.109,1.0729,1.0584,1.0281,1.0164,1.0189,1.0297,1.0095,1.0008,1.0017,1.0008,0.9909,0.9838,0.9545,0.9329,0.9364,0.934,0.9374,0.9255,0.9207,0.9117,0.8952,0.8905,0.8892,0.883,0.8654,0.8488,0.8208,0.7934,0.749,0.7102,0.6543,0.6318,0.5929,0.5427,0.4923,0.459,0.4145,0.3866,0.353,0.2803,0.2355,0.2187,0.2131,0.1963,0.1851,0.1683,0.157,0.157,0.1514,0.1458,0.1402,0.129,0.1121,0.0897,0.0785,0.0785,0.0841,0.0897,0.1009,0.1009,0.1065,0.1065,0.1009,0.1009,0.0897,0.0841,0.0729,0.0673,0.0673,0.0673,0.0729,0.0785,0.0841,0.0785,0.0617,0.0448,0.028,0.0,-0.028,-0.0336,-0.0561,-0.0841,-0.1065,-0.1065,-0.1177,-0.1458,-0.1901,-0.2339,-0.2672,1.6721,1.6804,1.7025,1.7104,1.7138,1.7346,1.7409,1.7418,1.744,1.7484,1.7519,1.7485,1.7485,1.7309,1.702,1.672,1.6543,1.5941,1.558,1.5283,1.4689,1.4212,1.3789,1.3195,1.2599,1.2169,1.1755,1.132,1.1118,1.08,1.0482,1.0381,1.0364,1.0463,1.0454,1.0436,1.0377,1.0384,1.0059,0.968,0.948,0.9439,0.9347,0.9371,0.935,0.9268,0.9123,0.9083,0.9022,0.8912,0.8833,0.8709,0.8484,0.8377,0.8045,0.7604,0.7382,0.721,0.6985,0.6596,0.6207,0.5929,0.5539,0.5039,0.4369,0.3418,0.2858,0.2691,0.2467,0.2299,0.2075,0.1963,0.1851,0.1851,0.1795,0.1739,0.1683,0.1458,0.129,0.1177,0.1065,0.1065,0.1177,0.1234,0.1346,0.1458,0.157,0.157,0.157,0.1458,0.1177,0.1121,0.0897,0.0897,0.0953,0.1009,0.1065,0.1065,0.1009,0.0953,0.0897,0.0729,0.0561,0.0336,0.0112,0.0,-0.0112,-0.0168,-0.0336,0.0,0.0,0.0,0.0,-0.1062,-0.1455,1.71,1.7126,1.7128,1.7146,1.7143,1.7283,1.7396,1.7522,1.7489,1.7584,1.7642,1.7602,1.7485,1.7485,1.7309,1.7256,1.7138,1.672,1.6532,1.6354,1.5935,1.5585,1.5051,1.451,1.3913,1.3375,1.2775,1.2294,1.209,1.1967,1.1718,1.1439,1.1286,1.1028,1.1063,1.0997,1.0801,1.0779,1.0439,1.0131,0.9733,0.961,0.9388,0.9374,0.932,0.9258,0.9113,0.9059,0.9015,0.8905,0.8885,0.8881,0.8712,0.8657,0.8491,0.8269,0.8048,0.7934,0.7765,0.7543,0.7268,0.6988,0.6707,0.6096,0.5984,0.5091,0.3976,0.3752,0.3194,0.2915,0.269,0.2578,0.2243,0.2132,0.2019,0.1963,0.1795,0.1627,0.157,0.1514,0.1458,0.1458,0.1514,0.1514,0.1627,0.1627,0.1795,0.1795,0.1795,0.1795,0.157,0.1402,0.1234,0.1234,0.1402,0.1402,0.1402,0.1346,0.1234,0.1234,0.1177,0.1009,0.0785,0.0617,0.0448,0.0224,0.0168,0.0168,0.0,0.0,0.0,0.0,0.0,0.0,0.0,1.7582,1.7589,1.7331,1.7239,1.7258,1.7165,1.7363,1.7607,1.761,1.7778,1.8,1.7778,1.7602,1.7543,1.7602,1.7602,1.7543,1.7367,1.7426,1.7361,1.7009,1.6708,1.6467,1.6053,1.5278,1.451,1.3734,1.3619,1.3586,1.3223,1.291,1.3039,1.2631,1.2141,1.2017,1.1717,1.1319,1.1051,1.0798,1.0604,1.0215,0.9834,0.9598,0.941,0.9284,0.9163,0.9074,0.8971,0.8974,0.8885,0.8937,0.8881,0.8881,0.8826,0.8826,0.866,0.8546,0.8488,0.8377,0.8103,0.7881,0.7657,0.7432,0.7265,0.7099,0.6485,0.5427,0.4758,0.4257,0.3642,0.3417,0.3137,0.2803,0.2524,0.2412,0.2299,0.2131,0.1963,0.1963,0.1963,0.1907,0.1907,0.1851,0.1851,0.1907,0.1907,0.1851,0.1851,0.1851,0.1795,0.1683,0.1627,0.157,0.1627,0.1739,0.1683,0.1627,0.1627,0.1514,0.1514,0.1458,0.1234,0.1065,0.0953,0.0729,0.0504,0.0448,0.0392,0.0,0.0,0.0,0.0,0.0,0.0,0.0,1.7589,1.7589,1.7529,1.7536,1.7496,1.7497,1.7646,1.7877,1.7918,1.8045,1.8268,1.8246,1.8129,1.7901,1.8129,1.8181,1.8071,1.7954,1.8071,1.8123,1.7948,1.7824,1.7531,1.7056,1.6532,1.5758,1.4922,1.451,1.4694,1.4102,1.3504,1.3366,1.2937,1.2474,1.2166,1.1891,1.1632,1.139,1.1051,1.0744,1.0585,1.0311,1.017,0.9972,0.9849,0.9635,0.9437,0.9229,0.9098,0.8977,0.8937,0.8937,0.8937,0.8937,0.8937,0.8881,0.8768,0.8768,0.8657,0.8549,0.838,0.8266,0.8042,0.7931,0.7768,0.7493,0.671,0.6374,0.5704,0.4702,0.4311,0.3864,0.3586,0.3363,0.3251,0.3027,0.2858,0.2746,0.2635,0.2523,0.2412,0.2356,0.2244,0.23,0.2412,0.2356,0.2299,0.2243,0.2131,0.2019,0.1907,0.1963,0.2019,0.1795,0.1795,0.1795,0.1739,0.1795,0.1795,0.1683,0.157,0.1402,0.129,0.1234,0.1065,0.0841,0.0729,0.0673,0.0,0.0,0.0,0.0,0.028,0.0,0.0]}]]